LiveATC.Net - Listen to live air traffic control over the Internet!
Airport/ARTCC Code
Frequency Search
(e.g., 124.400, 128.75)
Site-wide search
 


Browse Feeds
Top 50 Feeds
Coverage Map
Bad Weather Areas

LiveATC FAQ
Offer LiveATC feed
Contact LiveATC.net
Press Inquiries

LiveATC on iPhone
LiveATC on Android

Windows Phone
Windows 8/10

LiveATC Mobile
(Mobile browser)

ATC Audio Archives
Interesting Recordings

LiveATC Forums

Home Page
About LiveATC.net
Make a Donation
Terms of Use
Privacy Policy

Canadian Air Freqs

AIRMETs/SIGMETs

FAA Airport Status
Nat'l Airspace Status
Arrival Demand Charts


Server Software By:
Icecast.org
Liquidsoap

Select an area of interest:
U.S. Feeds: Class B Airports | Class C Airports | Class D/Other Airports | ARTCC (Centers)
International Feeds: Canada | Europe | Oceania | Asia | South America | North/Central America | Africa
Misc Feeds: HF Feeds
Search by ICAO/IATA airport code:   (e.g., kbos, kjfk, lax, eham, etc.)


Currently Available Live Feeds: 2601
Status Updated: Wed Apr 01 2020 02:38:04 UTC


NOTICE

Unauthorized use prohibited. See LiveATC.net Terms of Service

International Airport Feeds

 

EFKU Tower/Approach (Archives)
Siilinjarvi, Finland

Feed Status: UP
Listen in your browser - HTML5 player(in browser, HTML5)
Click here to listen with your own player(launches your MP3 player)

EFKU 010220Z AUTO 25009KT CAVOK M01/M03 Q0990

EFKU Flight Activity (Flightaware)

Listeners: 2 out of 650 total

Kuopio Approach: 130.600
Kuopio Tower: 120.150

Dutch Mil Radar (Archives)
Amsterdam, Netherlands

Feed Status: UP
Listen in your browser - HTML5 player(in browser, HTML5)
Click here to listen with your own player(launches your MP3 player)

EHLE 010225Z AUTO 21002KT 9999 NCD M02/M04 Q1026

EHLE Flight Activity (Flightaware)

Listeners: 0 out of 650 total

Dutch Mil Flight Info: 264.325
Dutch Mil Radar: 128.355
Dutch Mil Radar: 132.350

EHAA Radar ARTIP (Archives)
Amsterdam, Netherlands

Feed Status: UP
Listen in your browser - HTML5 player(in browser, HTML5)
Click here to listen with your own player(launches your MP3 player)

EHAM 010225Z 29001KT 9999 MIFG NSC M01/M02 Q1026 NOSIG

EHAM Flight Activity (Flightaware)

Listeners: 0 out of 650 total

EHAA Radar Sector 1 ARTIP: 120.550

EHAA Radar East Inbound (Archives)
Amsterdam, Netherlands

Feed Status: UP
Listen in your browser - HTML5 player(in browser, HTML5)
Click here to listen with your own player(launches your MP3 player)

EHAM 010225Z 29001KT 9999 MIFG NSC M01/M02 Q1026 NOSIG

EHAM Flight Activity (Flightaware)

Listeners: 1 out of 650 total

EHAA Radar Sector 2 East Inbound: 128.575

EHAA Radar East Outbound (Archives)
Amsterdam, Netherlands

Feed Status: UP
Listen in your browser - HTML5 player(in browser, HTML5)
Click here to listen with your own player(launches your MP3 player)

EHAM 010225Z 29001KT 9999 MIFG NSC M01/M02 Q1026 NOSIG

EHAM Flight Activity (Flightaware)

Listeners: 0 out of 650 total

EHAA Radar Sector 2 East Outbound: 124.875

EHAA Radar North (Archives)
Amsterdam, Netherlands

Feed Status: UP
Listen in your browser - HTML5 player(in browser, HTML5)
Click here to listen with your own player(launches your MP3 player)

EHAM 010225Z 29001KT 9999 MIFG NSC M01/M02 Q1026 NOSIG

EHAM Flight Activity (Flightaware)

Listeners: 0 out of 650 total

EHAA Radar Sector 1 North: 134.375

EHAA Radar Northwest (Archives)
Amsterdam, Netherlands

Feed Status: UP
Listen in your browser - HTML5 player(in browser, HTML5)
Click here to listen with your own player(launches your MP3 player)

EHAM 010225Z 29001KT 9999 MIFG NSC M01/M02 Q1026 NOSIG

EHAM Flight Activity (Flightaware)

Listeners: 0 out of 650 total

EHAA Radar Sector 5 Northwest: 123.7000

EHAA Radar RIVER (Archives)
Amsterdam, Netherlands

Feed Status: UP
Listen in your browser - HTML5 player(in browser, HTML5)
Click here to listen with your own player(launches your MP3 player)

EHAM 010225Z 29001KT 9999 MIFG NSC M01/M02 Q1026 NOSIG

EHAM Flight Activity (Flightaware)

Listeners: 0 out of 650 total

EHAA Radar Sector 3 RIVER: 130.950

EHAA Radar South (Archives)
Amsterdam, Netherlands

Feed Status: UP
Listen in your browser - HTML5 player(in browser, HTML5)
Click here to listen with your own player(launches your MP3 player)

EHAM 010225Z 29001KT 9999 MIFG NSC M01/M02 Q1026 NOSIG

EHAM Flight Activity (Flightaware)

Listeners: 0 out of 650 total

EHAA Radar Sector 3 South: 123.850

EHAA Radar South (Backup) (Archives)
Amsterdam, Netherlands

Feed Status: UP
Listen in your browser - HTML5 player(in browser, HTML5)
Click here to listen with your own player(launches your MP3 player)

EHAM 010225Z 29001KT 9999 MIFG NSC M01/M02 Q1026 NOSIG

EHAM Flight Activity (Flightaware)

Listeners: 0 out of 650 total

EHAA Radar Sector 3 South Backup : 127.775

EHAA Radar Southwest (Archives)
Amsterdam, Netherlands

Feed Status: UP
Listen in your browser - HTML5 player(in browser, HTML5)
Click here to listen with your own player(launches your MP3 player)

EHAM 010225Z 29001KT 9999 MIFG NSC M01/M02 Q1026 NOSIG

EHAM Flight Activity (Flightaware)

Listeners: 0 out of 650 total

EHAA Radar Sector 4 Southwest: 125.750

EHAA Radar SUGOL (Archives)
Amsterdam, Netherlands

Feed Status: UP
Listen in your browser - HTML5 player(in browser, HTML5)
Click here to listen with your own player(launches your MP3 player)

EHAM 010225Z 29001KT 9999 MIFG NSC M01/M02 Q1026 NOSIG

EHAM Flight Activity (Flightaware)

Listeners: 0 out of 650 total

EHAA Radar Sector 5 SUGOL: 118.800

EHAM Airside Ops Mgr (AOM) (Archives)
Amsterdam, Netherlands

Feed Status: UP
Listen in your browser - HTML5 player(in browser, HTML5)
Click here to listen with your own player(launches your MP3 player)

EHAM 010225Z 29001KT 9999 MIFG NSC M01/M02 Q1026 NOSIG

EHAM Flight Activity (Flightaware)

Listeners: 0 out of 650 total

Schiphol Airside Operations Manager: 130.475

EHAM App/Dep Backup (Archives)
Amsterdam, Netherlands

Feed Status: UP
Listen in your browser - HTML5 player(in browser, HTML5)
Click here to listen with your own player(launches your MP3 player)

EHAM 010225Z 29001KT 9999 MIFG NSC M01/M02 Q1026 NOSIG

EHAM Flight Activity (Flightaware)

Listeners: 0 out of 650 total

Schiphol App/Dep Backup: 118.075

EHAM App/Dep TMA East (Archives)
Amsterdam, Netherlands

Feed Status: UP
Listen in your browser - HTML5 player(in browser, HTML5)
Click here to listen with your own player(launches your MP3 player)

EHAM 010225Z 29001KT 9999 MIFG NSC M01/M02 Q1026 NOSIG

EHAM Flight Activity (Flightaware)

Listeners: 1 out of 650 total

Amsterdam Approach/Departure TMA East: 119.055

EHAM App/Dep TMA West (Archives)
Amsterdam, Netherlands

Feed Status: UP
Listen in your browser - HTML5 player(in browser, HTML5)
Click here to listen with your own player(launches your MP3 player)

EHAM 010225Z 29001KT 9999 MIFG NSC M01/M02 Q1026 NOSIG

EHAM Flight Activity (Flightaware)

Listeners: 0 out of 650 total

Amsterdam Approach/Departure TMA West: 121.200

EHAM Apron (North) (Archives)
Amsterdam, Netherlands

Feed Status: UP
Listen in your browser - HTML5 player(in browser, HTML5)
Click here to listen with your own player(launches your MP3 player)

EHAM 010225Z 29001KT 9999 MIFG NSC M01/M02 Q1026 NOSIG

EHAM Flight Activity (Flightaware)

Listeners: 0 out of 650 total

Schiphol Apron (North): 121.880

EHAM Apron (South) (Archives)
Amsterdam, Netherlands

Feed Status: UP
Listen in your browser - HTML5 player(in browser, HTML5)
Click here to listen with your own player(launches your MP3 player)

EHAM 010225Z 29001KT 9999 MIFG NSC M01/M02 Q1026 NOSIG

EHAM Flight Activity (Flightaware)

Listeners: 0 out of 650 total

Schiphol Apron (South): 121.780

EHAM Arrival (Primary) (Archives)
Amsterdam, Netherlands

Feed Status: UP
Listen in your browser - HTML5 player(in browser, HTML5)
Click here to listen with your own player(launches your MP3 player)

EHAM 010225Z 29001KT 9999 MIFG NSC M01/M02 Q1026 NOSIG

EHAM Flight Activity (Flightaware)

Listeners: 0 out of 650 total

Amsterdam Arrival : 118.400

EHAM Arrival (Secondary) (Archives)
Amsterdam, Netherlands

Feed Status: UP
Listen in your browser - HTML5 player(in browser, HTML5)
Click here to listen with your own player(launches your MP3 player)

EHAM 010225Z 29001KT 9999 MIFG NSC M01/M02 Q1026 NOSIG

EHAM Flight Activity (Flightaware)

Listeners: 0 out of 650 total

Amsterdam Arrival (Secondary): 131.150

EHAM Arrival (Secondary/Backup) (Archives)
Amsterdam, Netherlands

Feed Status: UP
Listen in your browser - HTML5 player(in browser, HTML5)
Click here to listen with your own player(launches your MP3 player)

EHAM 010225Z 29001KT 9999 MIFG NSC M01/M02 Q1026 NOSIG

EHAM Flight Activity (Flightaware)

Listeners: 0 out of 650 total

Amsterdam Arrival (Secondary Backup): 131.275

EHAM Arrival Backup/Discrete (Archives)
Amsterdam, Netherlands

Feed Status: UP
Listen in your browser - HTML5 player(in browser, HTML5)
Click here to listen with your own player(launches your MP3 player)

EHAM 010225Z 29001KT 9999 MIFG NSC M01/M02 Q1026 NOSIG

EHAM Flight Activity (Flightaware)

Listeners: 0 out of 650 total

Schiphol Arrival Backup: 126.675

EHAM Clearance Delivery (Archives)
Amsterdam, Netherlands

Feed Status: UP
Listen in your browser - HTML5 player(in browser, HTML5)
Click here to listen with your own player(launches your MP3 player)

EHAM 010225Z 29001KT 9999 MIFG NSC M01/M02 Q1026 NOSIG

EHAM Flight Activity (Flightaware)

Listeners: 0 out of 650 total

Schiphol Clearance Delivery: 121.980

EHAM Ground (Backup) (Archives)
Amsterdam, Netherlands

Feed Status: UP
Listen in your browser - HTML5 player(in browser, HTML5)
Click here to listen with your own player(launches your MP3 player)

EHAM 010225Z 29001KT 9999 MIFG NSC M01/M02 Q1026 NOSIG

EHAM Flight Activity (Flightaware)

Listeners: 0 out of 650 total

Schiphol Ground (Backup): 122.425

EHAM Ground (North) (Archives)
Amsterdam, Netherlands

Feed Status: UP
Listen in your browser - HTML5 player(in browser, HTML5)
Click here to listen with your own player(launches your MP3 player)

EHAM 010225Z 29001KT 9999 MIFG NSC M01/M02 Q1026 NOSIG

EHAM Flight Activity (Flightaware)

Listeners: 0 out of 650 total

Schiphol Ground (North): 121.805

EHAM Ground (South) (Archives)
Amsterdam, Netherlands

Feed Status: UP
Listen in your browser - HTML5 player(in browser, HTML5)
Click here to listen with your own player(launches your MP3 player)

EHAM 010225Z 29001KT 9999 MIFG NSC M01/M02 Q1026 NOSIG

EHAM Flight Activity (Flightaware)

Listeners: 0 out of 650 total

Schiphol Ground (South): 121.705

EHAM Ground (West) (Archives)
Amsterdam, Netherlands

Feed Status: UP
Listen in your browser - HTML5 player(in browser, HTML5)
Click here to listen with your own player(launches your MP3 player)

EHAM 010225Z 29001KT 9999 MIFG NSC M01/M02 Q1026 NOSIG

EHAM Flight Activity (Flightaware)

Listeners: 0 out of 650 total

Schiphol Ground (West): 121.560

EHAM Info North Sea (North) (Archives)
Amsterdam, Netherlands

Feed Status: UP
Listen in your browser - HTML5 player(in browser, HTML5)
Click here to listen with your own player(launches your MP3 player)

EHAM 010225Z 29001KT 9999 MIFG NSC M01/M02 Q1026 NOSIG

EHAM Flight Activity (Flightaware)

Listeners: 0 out of 650 total

Amsterdam Info North Sea (North): 119.175

EHAM Info North Sea (Over Land) (Archives)
Amsterdam, Netherlands

Feed Status: UP
Listen in your browser - HTML5 player(in browser, HTML5)
Click here to listen with your own player(launches your MP3 player)

EHAM 010225Z 29001KT 9999 MIFG NSC M01/M02 Q1026 NOSIG

EHAM Flight Activity (Flightaware)

Listeners: 0 out of 650 total

Amsterdam Info North Sea (Over Land): 124.300

EHAM Info North Sea (South) (Archives)
Amsterdam, Netherlands

Feed Status: UP
Listen in your browser - HTML5 player(in browser, HTML5)
Click here to listen with your own player(launches your MP3 player)

EHAM 010225Z 29001KT 9999 MIFG NSC M01/M02 Q1026 NOSIG

EHAM Flight Activity (Flightaware)

Listeners: 0 out of 650 total

Amsterdam Info North Sea (South): 136.650

EHAM Ops
Amsterdam, Netherlands

Feed Status: DOWN
Offline since: 2020-03-16 09:18:38 UTC

EHAM 010225Z 29001KT 9999 MIFG NSC M01/M02 Q1026 NOSIG

Schiphol Ops 1: 465.770
Schiphol Ops 2: 466.470
Schiphol Runway Ops: 447.175

EHAM Schiphol Outbound Planner (Archives)
Amsterdam, Netherlands

Feed Status: UP
Listen in your browser - HTML5 player(in browser, HTML5)
Click here to listen with your own player(launches your MP3 player)

EHAM 010225Z 29001KT 9999 MIFG NSC M01/M02 Q1026 NOSIG

EHAM Flight Activity (Flightaware)

Listeners: 0 out of 650 total

Schiphol Outbound Planner: 121.655

EHAM Tow Traffic (Archives)
Amsterdam, Netherlands

Feed Status: UP
Listen in your browser - HTML5 player(in browser, HTML5)
Click here to listen with your own player(launches your MP3 player)

EHAM 010225Z 29001KT 9999 MIFG NSC M01/M02 Q1026 NOSIG

EHAM Flight Activity (Flightaware)

Listeners: 0 out of 650 total

Schiphol Tow Traffic: 134.875

EHAM Tower (06/24) (Archives)
Amsterdam, Netherlands

Feed Status: UP
Listen in your browser - HTML5 player(in browser, HTML5)
Click here to listen with your own player(launches your MP3 player)

EHAM 010225Z 29001KT 9999 MIFG NSC M01/M02 Q1026 NOSIG

EHAM Flight Activity (Flightaware)

Listeners: 0 out of 650 total

Schiphol Tower Main 06/24: 118.950

EHAM Tower (18C/36C-27/09) (Archives)
Amsterdam, Netherlands

Feed Status: UP
Listen in your browser - HTML5 player(in browser, HTML5)
Click here to listen with your own player(launches your MP3 player)

EHAM 010225Z 29001KT 9999 MIFG NSC M01/M02 Q1026 NOSIG

EHAM Flight Activity (Flightaware)

Listeners: 1 out of 650 total

Schiphol Tower Main 18C/36C - 27/09: 118.100

EHAM Tower (18L/36R-22/04) (Archives)
Amsterdam, Netherlands

Feed Status: UP
Listen in your browser - HTML5 player(in browser, HTML5)
Click here to listen with your own player(launches your MP3 player)

EHAM 010225Z 29001KT 9999 MIFG NSC M01/M02 Q1026 NOSIG

EHAM Flight Activity (Flightaware)

Listeners: 0 out of 650 total

Schiphol Tower Main 18L/36R - 22/04: 119.225

EHAM Tower Backup (Archives)
Amsterdam, Netherlands

Feed Status: UP
Listen in your browser - HTML5 player(in browser, HTML5)
Click here to listen with your own player(launches your MP3 player)

EHAM 010225Z 29001KT 9999 MIFG NSC M01/M02 Q1026 NOSIG

EHAM Flight Activity (Flightaware)

Listeners: 0 out of 650 total

Schiphol Tower Backup: 119.905

EHAM Tower West (18R/36L) (Archives)
Amsterdam, Netherlands

Feed Status: UP
Listen in your browser - HTML5 player(in browser, HTML5)
Click here to listen with your own player(launches your MP3 player)

EHAM 010225Z 29001KT 9999 MIFG NSC M01/M02 Q1026 NOSIG

EHAM Flight Activity (Flightaware)

Listeners: 0 out of 650 total

Schiphol Tower West 18R/36L: 118.280

EHBK ATIS (Archives)
Beek, Netherlands

Feed Status: UP
Listen in your browser - HTML5 player(in browser, HTML5)
Click here to listen with your own player(launches your MP3 player)

EHBK 010225Z AUTO 01003KT 330V030 9999 NCD M01/M04 Q1024

EHBK Flight Activity (Flightaware)

Listeners: 0 out of 650 total

Beek ATIS: 124.575

EHBK Gnd/Twr/App (Archives)
Beek, Netherlands

Feed Status: UP
Listen in your browser - HTML5 player(in browser, HTML5)
Click here to listen with your own player(launches your MP3 player)

EHBK 010225Z AUTO 01003KT 330V030 9999 NCD M01/M04 Q1024

EHBK Flight Activity (Flightaware)

Listeners: 0 out of 650 total

Beek Approach: 120.200
Beek Approach: 123.975
Beek Ground: 121.825
Beek Tower: 119.475
Beek Tower: 119.700

MUAC/Eurocontrol Delta High (Archives)
Beek, Netherlands

Feed Status: UP
Listen in your browser - HTML5 player(in browser, HTML5)
Click here to listen with your own player(launches your MP3 player)

EHBK 010225Z AUTO 01003KT 330V030 9999 NCD M01/M04 Q1024

EHBK Flight Activity (Flightaware)

Listeners: 0 out of 650 total

MUAC Delta High Sector: 132.085

MUAC/Eurocontrol Koksy (Archives)
Beek, Netherlands

Feed Status: UP
Listen in your browser - HTML5 player(in browser, HTML5)
Click here to listen with your own player(launches your MP3 player)

EHBK 010225Z AUTO 01003KT 330V030 9999 NCD M01/M04 Q1024

EHBK Flight Activity (Flightaware)

Listeners: 0 out of 650 total

MUAC Koksy Sector: 132.205

MUAC/Eurocontrol Koksy High (Archives)
Beek, Netherlands

Feed Status: UP
Listen in your browser - HTML5 player(in browser, HTML5)
Click here to listen with your own player(launches your MP3 player)

EHBK 010225Z AUTO 01003KT 330V030 9999 NCD M01/M04 Q1024

EHBK Flight Activity (Flightaware)

Listeners: 0 out of 650 total

MUAC Koksy High Sector: 132.755

MUAC/Eurocontrol Lux High (Archives)
Beek, Netherlands

Feed Status: UP
Listen in your browser - HTML5 player(in browser, HTML5)
Click here to listen with your own player(launches your MP3 player)

EHBK 010225Z AUTO 01003KT 330V030 9999 NCD M01/M04 Q1024

EHBK Flight Activity (Flightaware)

Listeners: 0 out of 650 total

MUAC Lux High Sector: 132.315

MUAC/Eurocontrol Lux Low (Archives)
Beek, Netherlands

Feed Status: UP
Listen in your browser - HTML5 player(in browser, HTML5)
Click here to listen with your own player(launches your MP3 player)

EHBK 010225Z AUTO 01003KT 330V030 9999 NCD M01/M04 Q1024

EHBK Flight Activity (Flightaware)

Listeners: 0 out of 650 total

MUAC Lux Low Sector: 133.355

MUAC/Eurocontrol Olno Low (Archives)
Beek, Netherlands

Feed Status: UP
Listen in your browser - HTML5 player(in browser, HTML5)
Click here to listen with your own player(launches your MP3 player)

EHBK 010225Z AUTO 01003KT 330V030 9999 NCD M01/M04 Q1024

EHBK Flight Activity (Flightaware)

Listeners: 0 out of 650 total

MUAC Olno Low Sector: 132.855

MUAC/Eurocontrol Ruhr (Archives)
Beek, Netherlands

Feed Status: UP
Listen in your browser - HTML5 player(in browser, HTML5)
Click here to listen with your own player(launches your MP3 player)

EHBK 010225Z AUTO 01003KT 330V030 9999 NCD M01/M04 Q1024

EHBK Flight Activity (Flightaware)

Listeners: 0 out of 650 total

MUAC Ruhr Sector: 132.515

EHEH Approach #1 (Archives)
Eindhoven, Netherlands

Feed Status: UP
Listen in your browser - HTML5 player(in browser, HTML5)
Click here to listen with your own player(launches your MP3 player)

EHEH 010225Z AUTO 31001KT 9999 NCD M02/M04 Q1025 BLU

EHEH Flight Activity (Flightaware)

Listeners: 0 out of 650 total

DutchMil: 132.530
DutchMil RAPCON South: 379.925
DutchMil RAPCON South: 123.180
Eindhoven Arrival/Director: 124.530

EHEH Approach #2 (Archives)
Eindhoven, Netherlands

Feed Status: UP
Listen in your browser - HTML5 player(in browser, HTML5)
Click here to listen with your own player(launches your MP3 player)

EHEH 010225Z AUTO 31001KT 9999 NCD M02/M04 Q1025 BLU

EHEH Flight Activity (Flightaware)

Listeners: 0 out of 650 total

Eindhoven Approach/Arrival: 124.530
Eindhoven Approach/Arrival: 132.530
Eindhoven Approach/Arrival: 278.050

EHEH Ground (Archives)
Eindhoven, Netherlands

Feed Status: UP
Listen in your browser - HTML5 player(in browser, HTML5)
Click here to listen with your own player(launches your MP3 player)

EHEH 010225Z AUTO 31001KT 9999 NCD M02/M04 Q1025 BLU

EHEH Flight Activity (Flightaware)

Listeners: 0 out of 650 total

Eindhoven Ground: 121.930
Eindhoven Ground: 369.250

EHEH Tower #1 (Archives)
Eindhoven, Netherlands

Feed Status: UP
Listen in your browser - HTML5 player(in browser, HTML5)
Click here to listen with your own player(launches your MP3 player)

EHEH 010225Z AUTO 31001KT 9999 NCD M02/M04 Q1025 BLU

EHEH Flight Activity (Flightaware)

Listeners: 0 out of 650 total

Budel Tower: 122.155
Eindhoven Tower: 131.005
Emergency/Guard: 121.500
Generic Tower: 122.100
Volkel Tower: 372.225
Volkel Tower: 136.080

EHEH Tower #2 (Archives)
Eindhoven, Netherlands

Feed Status: UP
Listen in your browser - HTML5 player(in browser, HTML5)
Click here to listen with your own player(launches your MP3 player)

EHEH 010225Z AUTO 31001KT 9999 NCD M02/M04 Q1025 BLU

EHEH Flight Activity (Flightaware)

Listeners: 0 out of 650 total

Eindhoven Tower: 122.100
Eindhoven Tower: 131.005
Eindhoven Tower: 281.150

EHGG Approach (Archives)
Groningen, Netherlands

Feed Status: UP
Listen in your browser - HTML5 player(in browser, HTML5)
Click here to listen with your own player(launches your MP3 player)

EHGG 010225Z AUTO 24003KT 9999 -UP FEW016 BKN024 BKN030 01/M01 Q1025

EHGG Flight Activity (Flightaware)

Listeners: 0 out of 650 total

Eelde Approach: 120.305

EHGG ATIS (Archives)
Groningen, Netherlands

Feed Status: UP
Listen in your browser - HTML5 player(in browser, HTML5)
Click here to listen with your own player(launches your MP3 player)

EHGG 010225Z AUTO 24003KT 9999 -UP FEW016 BKN024 BKN030 01/M01 Q1025

EHGG Flight Activity (Flightaware)

Listeners: 0 out of 650 total

Groningen ATIS: 133.555

EHGG Ground (Archives)
Groningen, Netherlands

Feed Status: UP
Listen in your browser - HTML5 player(in browser, HTML5)
Click here to listen with your own player(launches your MP3 player)

EHGG 010225Z AUTO 24003KT 9999 -UP FEW016 BKN024 BKN030 01/M01 Q1025

EHGG Flight Activity (Flightaware)

Listeners: 0 out of 650 total

Eelde Clearance Delivery/Ground: 121.705

EHGG Guard/Emergency (Archives)
Groningen, Netherlands

Feed Status: UP
Listen in your browser - HTML5 player(in browser, HTML5)
Click here to listen with your own player(launches your MP3 player)

EHGG 010225Z AUTO 24003KT 9999 -UP FEW016 BKN024 BKN030 01/M01 Q1025

EHGG Flight Activity (Flightaware)

Listeners: 0 out of 650 total

Emergency/Guard: 121.500

EHGG Tower (Archives)
Groningen, Netherlands

Feed Status: UP
Listen in your browser - HTML5 player(in browser, HTML5)
Click here to listen with your own player(launches your MP3 player)

EHGG 010225Z AUTO 24003KT 9999 -UP FEW016 BKN024 BKN030 01/M01 Q1025

EHGG Flight Activity (Flightaware)

Listeners: 1 out of 650 total

Eelde Tower: 118.705

MUAC/Eurocontrol (EHGG Area) (Archives)
Groningen, Netherlands

Feed Status: UP
Listen in your browser - HTML5 player(in browser, HTML5)
Click here to listen with your own player(launches your MP3 player)

EHGG 010225Z AUTO 24003KT 9999 -UP FEW016 BKN024 BKN030 01/M01 Q1025

EHGG Flight Activity (Flightaware)

Listeners: 1 out of 650 total

MUAC Holstein High Sector: 132.775
MUAC Holstein Sector: 120.9333
MUAC Javer High Sector: 134.700
MUAC Jever Sector: 136.4666

EHHV CTAF (Archives)
Hilversum, Netherlands

Feed Status: UP
Listen in your browser - HTML5 player(in browser, HTML5)
Click here to listen with your own player(launches your MP3 player)

EHHV Flight Activity (Flightaware)

Listeners: 0 out of 650 total

Hilversum Radio: 131.025

Approach/Dutch Mil Radar (Archives)
Lelystad, Netherlands

Feed Status: UP
Listen in your browser - HTML5 player(in browser, HTML5)
Click here to listen with your own player(launches your MP3 player)

EHLE 010225Z AUTO 21002KT 9999 NCD M02/M04 Q1026

EHLE Flight Activity (Flightaware)

Listeners: 0 out of 650 total

Dutch Mil Flight Info: 264.325
Dutch Mil Radar: 128.355
Dutch Mil Radar: 132.350

EHLE Tower (Archives)
Lelystad, Netherlands

Feed Status: UP
Listen in your browser - HTML5 player(in browser, HTML5)
Click here to listen with your own player(launches your MP3 player)

EHLE 010225Z AUTO 21002KT 9999 NCD M02/M04 Q1026

EHLE Flight Activity (Flightaware)

Listeners: 0 out of 650 total

Lelystad Clearance Delivery: 123.680
Lelystad Tower: 135.180
Lelystad Tower: 123.830

EHMC/EHML Military/Radar (Archives)
Nieuw-Milligen, Netherlands

Feed Status: UP
Listen in your browser - HTML5 player(in browser, HTML5)
Click here to listen with your own player(launches your MP3 player)

EHMC Flight Activity (Flightaware)

Listeners: 0 out of 650 total

AMCC: 234.000
Belga Radar: 129.325
Command Post: 313.550
Dutch Military Radar: 120.825
Dutch Military Radar: 125.925
Dutch Military Radar: 128.350
GCI: 363.100
Lippe Radar: 131.075
London Mil: 135.275
Meteo: 284.425

EHMC/EHML Military/Radar (Archives)
Nieuw-Milligen, Netherlands

Feed Status: UP
Listen in your browser - HTML5 player(in browser, HTML5)
Click here to listen with your own player(launches your MP3 player)

EHMC Flight Activity (Flightaware)

Listeners: 0 out of 650 total

AMCC: 234.000
Belga Radar: 129.325
Command Post: 313.550
Dutch Military Radar: 120.825
Dutch Military Radar: 125.925
Dutch Military Radar: 128.350
GCI: 363.100
Lippe Radar: 131.075
London Mil: 135.275
Meteo: 284.425

EHMM CTAF (Archives)
Middenmeer, Netherlands

Feed Status: UP
Listen in your browser - HTML5 player(in browser, HTML5)
Click here to listen with your own player(launches your MP3 player)

EHMM Flight Activity (Flightaware)

Listeners: 0 out of 650 total

Middenmeer CTAF: 123.425

EHRD Approach (Archives)
Rotterdam, Netherlands

Feed Status: UP
Listen in your browser - HTML5 player(in browser, HTML5)
Click here to listen with your own player(launches your MP3 player)

EHRD 010225Z AUTO 00000KT 9999 NCD M01/M02 Q1026 NOSIG

EHRD Flight Activity (Flightaware)

Listeners: 0 out of 650 total

Rotterdam Approach: 124.535
Rotterdam Approach: 281.050

EHRD Clearance Delivery (Archives)
Rotterdam, Netherlands

Feed Status: UP
Listen in your browser - HTML5 player(in browser, HTML5)
Click here to listen with your own player(launches your MP3 player)

EHRD 010225Z AUTO 00000KT 9999 NCD M01/M02 Q1026 NOSIG

EHRD Flight Activity (Flightaware)

Listeners: 0 out of 650 total

Rotterdam Del/Gnd: 122.180

EHRD Del/Twr (Archives)
Rotterdam, Netherlands

Feed Status: UP
Listen in your browser - HTML5 player(in browser, HTML5)
Click here to listen with your own player(launches your MP3 player)

EHRD 010225Z AUTO 00000KT 9999 NCD M01/M02 Q1026 NOSIG

EHRD Flight Activity (Flightaware)

Listeners: 0 out of 650 total

Rotterdam Del/Gnd: 122.180
Rotterdam Tower: 118.205

EHRD Gnd/Twr/App (Archives)
Rotterdam, Netherlands

Feed Status: UP
Listen in your browser - HTML5 player(in browser, HTML5)
Click here to listen with your own player(launches your MP3 player)

EHRD 010225Z AUTO 00000KT 9999 NCD M01/M02 Q1026 NOSIG

EHRD Flight Activity (Flightaware)

Listeners: 1 out of 650 total

Adam Info: 124.300
Regional Guard: 119.705
Rotterdam Approach: 127.025
Rotterdam Del/Gnd: 122.180
Rotterdam Tower: 118.205
SAR: 123.100
SAR: 282.800

EHRD Tower (Archives)
Rotterdam, Netherlands

Feed Status: UP
Listen in your browser - HTML5 player(in browser, HTML5)
Click here to listen with your own player(launches your MP3 player)

EHRD 010225Z AUTO 00000KT 9999 NCD M01/M02 Q1026 NOSIG

EHRD Flight Activity (Flightaware)

Listeners: 0 out of 650 total

Rotterdam Tower: 118.205
Rotterdam Tower: 362.300

EHRD Twr/App
Rotterdam, Netherlands

Feed Status: DOWN
Offline since: 2020-03-14 14:15:39 UTC

EHRD 010225Z AUTO 00000KT 9999 NCD M01/M02 Q1026 NOSIG

Rotterdam Approach: 127.025
Rotterdam Tower: 118.205

EHTX Gnd/Twr (Archives)
Texel, Netherlands

Feed Status: UP
Listen in your browser - HTML5 player(in browser, HTML5)
Click here to listen with your own player(launches your MP3 player)

EHTX Flight Activity (Flightaware)

Listeners: 0 out of 650 total

Texel Radio (Ground/Tower): 119.300

EHVL CTAF/Range Control (Archives)
Vlieland, Netherlands

Feed Status: UP
Listen in your browser - HTML5 player(in browser, HTML5)
Click here to listen with your own player(launches your MP3 player)

EHVL 010225Z AUTO 27009KT 9999 BKN018 OVC025 06/02 Q1025 WHT

EHVL Flight Activity (Flightaware)

Listeners: 0 out of 650 total

Cornfield VHF (CTAF): 122.100
Range Controller (Primary): 291.650
Range Controller (Secondary): 370.300
Range Controller VHF: 138.075

EICK Approach/Departure (Archives)
Cork, Ireland

Feed Status: UP
Listen in your browser - HTML5 player(in browser, HTML5)
Click here to listen with your own player(launches your MP3 player)

EICK 010200Z 36008KT 9999 BKN039 06/01 Q1030 NOSIG

EICK Flight Activity (Flightaware)

Listeners: 0 out of 650 total

Cork Approach: 119.900

EICK Gnd/Twr/App/Dep (Archives)
Cork, Ireland

Feed Status: UP
Listen in your browser - HTML5 player(in browser, HTML5)
Click here to listen with your own player(launches your MP3 player)

EICK 010200Z 36008KT 9999 BKN039 06/01 Q1030 NOSIG

EICK Flight Activity (Flightaware)

Listeners: 0 out of 650 total

Cork Approach: 119.900
Cork Ground: 121.850
Cork Tower: 119.300

EICK Ground/Tower (Archives)
Cork, Ireland

Feed Status: UP
Listen in your browser - HTML5 player(in browser, HTML5)
Click here to listen with your own player(launches your MP3 player)

EICK 010200Z 36008KT 9999 BKN039 06/01 Q1030 NOSIG

EICK Flight Activity (Flightaware)

Listeners: 0 out of 650 total

Cork Ground: 121.850
Cork Tower: 119.300

EIDW Approach (Archives)
Dublin, Ireland

Feed Status: UP
Listen in your browser - HTML5 player(in browser, HTML5)
Click here to listen with your own player(launches your MP3 player)

EIDW 010200Z 32008KT 9999 FEW025 BKN040 05/02 Q1030 NOSIG

EIDW Flight Activity (Flightaware)

Listeners: 0 out of 650 total

Dublin Approach: 121.100

EIDW Approach (Final) (Archives)
Dublin, Ireland

Feed Status: UP
Listen in your browser - HTML5 player(in browser, HTML5)
Click here to listen with your own player(launches your MP3 player)

EIDW 010200Z 32008KT 9999 FEW025 BKN040 05/02 Q1030 NOSIG

EIDW Flight Activity (Flightaware)

Listeners: 0 out of 650 total

Dublin Approach (Final): 119.925

EIDW Clearance Delivery (Archives)
Dublin, Ireland

Feed Status: UP
Listen in your browser - HTML5 player(in browser, HTML5)
Click here to listen with your own player(launches your MP3 player)

EIDW 010200Z 32008KT 9999 FEW025 BKN040 05/02 Q1030 NOSIG

EIDW Flight Activity (Flightaware)

Listeners: 0 out of 650 total

Dublin Clearance Delivery: 121.875

EIDW Del/Gnd/Twr/App/Center (Archives)
Dublin, Ireland

Feed Status: UP
Listen in your browser - HTML5 player(in browser, HTML5)
Click here to listen with your own player(launches your MP3 player)

EIDW 010200Z 32008KT 9999 FEW025 BKN040 05/02 Q1030 NOSIG

EIDW Flight Activity (Flightaware)

Listeners: 2 out of 650 total

Dublin Approach: 121.100
Dublin Approach (backup): 119.550
Dublin Centre North: 129.175
Dublin Centre South: 126.250
Dublin Clearance Delivery: 121.875
Dublin FIS: 118.500
Dublin Ground: 121.800
Dublin Tower: 118.600

EIDW Ground (Archives)
Dublin, Ireland

Feed Status: UP
Listen in your browser - HTML5 player(in browser, HTML5)
Click here to listen with your own player(launches your MP3 player)

EIDW 010200Z 32008KT 9999 FEW025 BKN040 05/02 Q1030 NOSIG

EIDW Flight Activity (Flightaware)

Listeners: 0 out of 650 total

Dublin Ground: 121.800

EIDW Ground (North) (Archives)
Dublin, Ireland

Feed Status: UP
Listen in your browser - HTML5 player(in browser, HTML5)
Click here to listen with your own player(launches your MP3 player)

EIDW 010200Z 32008KT 9999 FEW025 BKN040 05/02 Q1030 NOSIG

EIDW Flight Activity (Flightaware)

Listeners: 4 out of 650 total

Dublin Ground (North): 118.750

EIDW Tower (Archives)
Dublin, Ireland

Feed Status: UP
Listen in your browser - HTML5 player(in browser, HTML5)
Click here to listen with your own player(launches your MP3 player)

EIDW 010200Z 32008KT 9999 FEW025 BKN040 05/02 Q1030 NOSIG

EIDW Flight Activity (Flightaware)

Listeners: 3 out of 650 total

Dublin Tower: 118.600

EIKN Gnd/Twr/App (Archives)
Charlestown, Ireland

Feed Status: UP
Listen in your browser - HTML5 player(in browser, HTML5)
Click here to listen with your own player(launches your MP3 player)

EIKN 301430Z 36016KT 9999 FEW024 BKN036 08/05 Q1040

EIKN Flight Activity (Flightaware)

Listeners: 0 out of 650 total

Connaught Ground: 121.900
Connaught Tower: 130.700
Shannon Low Level: 119.075

EINN Approach/Departure (Archives)
Shannon, Ireland

Feed Status: UP
Listen in your browser - HTML5 player(in browser, HTML5)
Click here to listen with your own player(launches your MP3 player)

EINN 010200Z 34004KT 9999 FEW030 BKN040 06/03 Q1032 NOSIG

EINN Flight Activity (Flightaware)

Listeners: 0 out of 650 total

Shannon Approach Radar: 121.400
Shannon Low: 124.700

EINN Gnd/Twr/Ops (Archives)
Shannon, Ireland

Feed Status: UP
Listen in your browser - HTML5 player(in browser, HTML5)
Click here to listen with your own player(launches your MP3 player)

EINN 010200Z 34004KT 9999 FEW030 BKN040 06/03 Q1032 NOSIG

EINN Flight Activity (Flightaware)

Listeners: 0 out of 650 total

Aer Lingus Ops: 131.500
Service Air Ops: 131.450
Shannon Ground: 121.800
Shannon Tower: 118.700
Sig Ops (Pre-Clearance): 131.590

EINN Shannon Control High #1 (Archives)
Shannon, Ireland

Feed Status: UP
Listen in your browser - HTML5 player(in browser, HTML5)
Click here to listen with your own player(launches your MP3 player)

EINN 010200Z 34004KT 9999 FEW030 BKN040 06/03 Q1032 NOSIG

EINN Flight Activity (Flightaware)

Listeners: 2 out of 650 total

Shannon Clearance (Oceanic only): 121.700
Shannon Control: 134.630
Shannon Control: 134.260
Shannon Control: 119.075
Shannon Control (BABAN/DEVOL Sector): 132.150
Shannon Control (Cork Sector): 131.150
Shannon Control (Shannon Sector): 134.280
Shannon Control (SOTA Sector): 135.600
Shannon Control NOTA: 125.875
Shannon Control NOTA: 122.980
Shannon High Level (SOTA Sector): 135.230
Shanwick Radio: 127.650
Track Information: 133.800

EINN Twr/App #1 (Archives)
Shannon, Ireland

Feed Status: UP
Listen in your browser - HTML5 player(in browser, HTML5)
Click here to listen with your own player(launches your MP3 player)

EINN 010200Z 34004KT 9999 FEW030 BKN040 06/03 Q1032 NOSIG

EINN Flight Activity (Flightaware)

Listeners: 0 out of 650 total

Aer Lingus Ops: 131.500
Service Air Ops: 131.450
Shannon Approach Radar: 121.400
Shannon Control: Misc
Shannon Ground: 121.800
Shannon Tower: 118.700
Sig Ops (Pre-Clearance): 131.590

ENAT Twr/App/Control (Archives)
Alta, Norway

Feed Status: UP
Listen in your browser - HTML5 player(in browser, HTML5)
Click here to listen with your own player(launches your MP3 player)

ENAT 010220Z AUTO VRB03KT 9999 BKN078/// M08/M11 Q0996 RMK WIND 700FT 01015KT

ENAT Flight Activity (Flightaware)

Listeners: 1 out of 650 total

Alta Tower (to boat, Harbour Channel 12): 156.600
Alta Tower (to vehicle): 462.400
Alta Tower/Approach: 120.400
Norway Control: 126.700

ENBO Approach (Archives)
Bodo, Norway

Feed Status: UP
Listen in your browser - HTML5 player(in browser, HTML5)
Click here to listen with your own player(launches your MP3 player)

ENBO 010150Z 33013KT 9999 FEW015 SCT070 01/M04 Q1000

ENBO Flight Activity (Flightaware)

Listeners: 2 out of 650 total

Bodo Approach: 119.700

ENBO Tower (Archives)
Bodo, Norway

Feed Status: UP
Listen in your browser - HTML5 player(in browser, HTML5)
Click here to listen with your own player(launches your MP3 player)

ENBO 010150Z 33013KT 9999 FEW015 SCT070 01/M04 Q1000

ENBO Flight Activity (Flightaware)

Listeners: 1 out of 650 total

Bodo Tower: 118.100

ENCN Tower/Approach (Archives)
Kristiansand, Norway

Feed Status: UP
Listen in your browser - HTML5 player(in browser, HTML5)
Click here to listen with your own player(launches your MP3 player)

ENCN 010220Z AUTO 28004KT 200V310 9999 NCD 04/M00 Q1013

ENCN Flight Activity (Flightaware)

Listeners: 0 out of 650 total

Kjevik Tower: 118.100
Kjevik Tower/Approach: 119.950

ENEV Twr/App/ACC (Archives)
Evenes, Norway

Feed Status: UP
Listen in your browser - HTML5 player(in browser, HTML5)
Click here to listen with your own player(launches your MP3 player)

ENEV 010220Z AUTO 33008KT 9999 SCT033/// OVC045/// M01/M05 Q0999 RMK WIND 1400FT 32016KT

ENEV Flight Activity (Flightaware)

Listeners: 0 out of 650 total

Evenes Approach: 120.100
Evenes Tower: 118.000
Norway ACC (Bodo Sector 25): 126.450

ENGM Approach (Archives)
Oslo, Norway

Feed Status: UP
Listen in your browser - HTML5 player(in browser, HTML5)
Click here to listen with your own player(launches your MP3 player)

ENGM 010220Z 20003KT 160V230 CAVOK 03/M03 Q1008

ENGM Flight Activity (Flightaware)

Listeners: 0 out of 650 total

Oslo Approach: 118.475
Oslo Approach: 120.450

ENGM Tower (Archives)
Oslo, Norway

Feed Status: UP
Listen in your browser - HTML5 player(in browser, HTML5)
Click here to listen with your own player(launches your MP3 player)

ENGM 010220Z 20003KT 160V230 CAVOK 03/M03 Q1008

ENGM Flight Activity (Flightaware)

Listeners: 2 out of 650 total

Oslo Tower (East): 120.100
Oslo Tower (West): 118.300

ENJB CTAF (Archives)
Tonsberg, Norway

Feed Status: UP
Listen in your browser - HTML5 player(in browser, HTML5)
Click here to listen with your own player(launches your MP3 player)

ENTO 010220Z AUTO 28006KT 9999 NCD 04/M03 Q1009

ENTO Flight Activity (Flightaware)

Listeners: 0 out of 650 total

Jarlsberg CTAF: 122.300

ENKJ RDO (Archives)
Kjeller, Norway

Feed Status: UP
Listen in your browser - HTML5 player(in browser, HTML5)
Click here to listen with your own player(launches your MP3 player)

ENKJ Flight Activity (Flightaware)

Listeners: 0 out of 650 total

Kjeller RDO: 119.100

ENLI CTAF (Archives)
Farsund, Norway

Feed Status: UP
Listen in your browser - HTML5 player(in browser, HTML5)
Click here to listen with your own player(launches your MP3 player)

ENLI Flight Activity (Flightaware)

Listeners: 0 out of 650 total

Lista Traffic/Lista Radio: 126.450

ENML Gnd/Twr/App/Center
Molde, Norway

Feed Status: DOWN
Offline since: 2020-03-10 16:29:21 UTC

ENML 010220Z AUTO 05006KT 020V080 9999NDV BKN010/// BKN031/// OVC041/// 01/00 Q1008

Molde Info: 119.950

ENRK CTAF (Archives)
Astorp, Norway

Feed Status: UP
Listen in your browser - HTML5 player(in browser, HTML5)
Click here to listen with your own player(launches your MP3 player)

ENRK Flight Activity (Flightaware)

Listeners: 0 out of 650 total

Rakkestad CTAF: 122.950

ENOR Sector 8 (Archives)
Moss, Norway

Feed Status: UP
Listen in your browser - HTML5 player(in browser, HTML5)
Click here to listen with your own player(launches your MP3 player)

ENOR Flight Activity (Flightaware)

Listeners: 0 out of 650 total

Norway Center (FIR) Sector 8: 118.875

ENRY Tower (Archives)
Moss, Norway

Feed Status: UP
Listen in your browser - HTML5 player(in browser, HTML5)
Click here to listen with your own player(launches your MP3 player)

ENRY 010220Z AUTO 25005KT 9999NDV NCD 02/M03 Q1010

ENRY Flight Activity (Flightaware)

Listeners: 0 out of 650 total

Rygge Tower: 119.500

ENTC Tower/App (Archives)
Langnes, Norway

Feed Status: UP
Listen in your browser - HTML5 player(in browser, HTML5)
Click here to listen with your own player(launches your MP3 player)

ENTC 010220Z 02007KT 350V070 9999 VCSH FEW036 SCT048 M03/M06 Q0998 RMK WIND 2600FT /////KT

ENTC Flight Activity (Flightaware)

Listeners: 0 out of 650 total

Langnes Tower: 118.300
Langnes VDF (Approach): 123.750

ENTO App/Dep (Archives)
Sandefjord, Norway

Feed Status: UP
Listen in your browser - HTML5 player(in browser, HTML5)
Click here to listen with your own player(launches your MP3 player)

ENTO 010220Z AUTO 28006KT 9999 NCD 04/M03 Q1009

ENTO Flight Activity (Flightaware)

Listeners: 0 out of 650 total

Sandefjord Approach (TMA): 134.050

ENTO Control Sector 4 (Archives)
Sandefjord, Norway

Feed Status: UP
Listen in your browser - HTML5 player(in browser, HTML5)
Click here to listen with your own player(launches your MP3 player)

ENTO 010220Z AUTO 28006KT 9999 NCD 04/M03 Q1009

ENTO Flight Activity (Flightaware)

Listeners: 0 out of 650 total

Norway control Sector 4: 118.875

ENTO Tower (Archives)
Sandefjord, Norway

Feed Status: UP
Listen in your browser - HTML5 player(in browser, HTML5)
Click here to listen with your own player(launches your MP3 player)

ENTO 010220Z AUTO 28006KT 9999 NCD 04/M03 Q1009

ENTO Flight Activity (Flightaware)

Listeners: 0 out of 650 total

Sandefjord Tower: 118.650

ENTO Tower/App (Archives)
Sandefjord, Norway

Feed Status: UP
Listen in your browser - HTML5 player(in browser, HTML5)
Click here to listen with your own player(launches your MP3 player)

ENTO 010220Z AUTO 28006KT 9999 NCD 04/M03 Q1009

ENTO Flight Activity (Flightaware)

Listeners: 0 out of 650 total

ENJB Tonsberg Airport - Jarlsberg - CTAF: 122.300
Farris Approach (TCA): 134.050
Sandefjord Tower: 118.650

ENTO Twr/App (Archives)
Sandefjord, Norway

Feed Status: UP
Listen in your browser - HTML5 player(in browser, HTML5)
Click here to listen with your own player(launches your MP3 player)

ENTO 010220Z AUTO 28006KT 9999 NCD 04/M03 Q1009

ENTO Flight Activity (Flightaware)

Listeners: 0 out of 650 total

Sandefjord Approach (TMA): 134.050
Sandefjord Tower: 118.650

ENVA Gnd/Twr/App (Archives)
Trondheim, Norway

Feed Status: UP
Listen in your browser - HTML5 player(in browser, HTML5)
Click here to listen with your own player(launches your MP3 player)

ENVA 010220Z AUTO 25014KT 9999 FEW013/// BKN026/// OVC035/// 03/M01 Q1006 RMK WIND 670FT 27016KT

ENVA Flight Activity (Flightaware)

Listeners: 1 out of 650 total

Trondheim Approach: 118.600
Trondheim Ground: 121.600
Trondheim Tower: 119.400

ENZV Gnd/Twr/App (Archives)
Stavanger, Norway

Feed Status: UP
Listen in your browser - HTML5 player(in browser, HTML5)
Click here to listen with your own player(launches your MP3 player)

ENZV 010220Z 28009KT 9999 FEW030 BKN050 06/03 Q1016

ENZV Flight Activity (Flightaware)

Listeners: 0 out of 650 total

Sola Approach/Departure: 119.600
Sola Ground: 121.750
Sola Tower: 118.350

EPGD Tower/Approach
Gdansk, Poland

Feed Status: DOWN
Offline since: 2020-04-01 01:45:39 UTC

EPGD 010200Z 24011KT 9999 BKN044 M01/M07 Q1017 R11/290095

Gdansk Approach: 127.275
Gdansk Tower: 118.100

EPKK Tower/App (Archives)
Krakow, Poland

Feed Status: UP
Listen in your browser - HTML5 player(in browser, HTML5)
Click here to listen with your own player(launches your MP3 player)

EPKK 010200Z 22004KT 0100 R25/0300N FZFG SCT000 M04/M04 Q1024

EPKK Flight Activity (Flightaware)

Listeners: 0 out of 650 total

Krakow Approach: 121.075
Krakow Approach: 123.255
Krakow Tower: 123.255

EPKR CTAF (Archives)
Krosno, Poland

Feed Status: UP
Listen in your browser - HTML5 player(in browser, HTML5)
Click here to listen with your own player(launches your MP3 player)

EPKR Flight Activity (Flightaware)

Listeners: 0 out of 650 total

Krosno CTAF: 122.400

EPKT Del/Twr/App (Archives)
Katowice, Poland

Feed Status: UP
Listen in your browser - HTML5 player(in browser, HTML5)
Click here to listen with your own player(launches your MP3 player)

EPKT 010200Z 00000KT 2000 0400N BCFG BR NSC M07/M08 Q1024

EPKT Flight Activity (Flightaware)

Listeners: 0 out of 650 total

Katowice Delivery: 121.800
Katowice Tower: 129.250
Krakow Approach: 135.400
Krakow Approach: 121.075

EPKT Delivery/Approach (Archives)
Katowice, Poland

Feed Status: UP
Listen in your browser - HTML5 player(in browser, HTML5)
Click here to listen with your own player(launches your MP3 player)

EPKT 010200Z 00000KT 2000 0400N BCFG BR NSC M07/M08 Q1024

EPKT Flight Activity (Flightaware)

Listeners: 0 out of 650 total

Katowice Delivery: 121.800
Krakow Approach: 121.075

EPKT Tower/Approach (Archives)
Katowice, Poland

Feed Status: UP
Listen in your browser - HTML5 player(in browser, HTML5)
Click here to listen with your own player(launches your MP3 player)

EPKT 010200Z 00000KT 2000 0400N BCFG BR NSC M07/M08 Q1024

EPKT Flight Activity (Flightaware)

Listeners: 1 out of 650 total

Katowice Tower: 129.250
Krakow Approach: 135.400

EPLL Tower
Lodz, Poland

Feed Status: DOWN
Offline since: 2020-03-31 04:10:03 UTC

EPLL 010200Z VRB01KT CAVOK M06/M08 Q1023

Lodz Tower: 124.230

EPML Info
Mielec, Poland

Feed Status: DOWN
Offline since: 2020-03-31 11:17:22 UTC

Mielec Info: 119.105

EPPO Twr/App/FIS (Archives)
Poznan, Poland

Feed Status: UP
Listen in your browser - HTML5 player(in browser, HTML5)
Click here to listen with your own player(launches your MP3 player)

EPPO 010200Z 23005KT CAVOK M04/M07 Q1023

EPPO Flight Activity (Flightaware)

Listeners: 0 out of 650 total

Poznan Approach: 129.025
Poznan Approach: 127.225
Poznan FIS: 126.300
Poznan Tower: 119.975

EPRZ Del/Twr/EPWW Radar (Archives)
Jasionka, Poland

Feed Status: UP
Listen in your browser - HTML5 player(in browser, HTML5)
Click here to listen with your own player(launches your MP3 player)

EPRZ 010200Z 26008KT 5000 BR NSC M05/M06 Q1023

EPRZ Flight Activity (Flightaware)

Listeners: 1 out of 650 total

EPWW Radar: 134.175
EPWW Radar: 120.950
Rzeszow Delivery: 121.800
Rzeszow Tower: 126.800

EPWA Approach #1 (Archives)
Warsaw, Poland

Feed Status: UP
Listen in your browser - HTML5 player(in browser, HTML5)
Click here to listen with your own player(launches your MP3 player)

EPWA 010200Z 24004KT 210V280 CAVOK M03/M07 Q1022 NOSIG

EPWA Flight Activity (Flightaware)

Listeners: 1 out of 650 total

Warsaw Approach: 128.800

EPWA Approach #2 (Archives)
Warsaw, Poland

Feed Status: UP
Listen in your browser - HTML5 player(in browser, HTML5)
Click here to listen with your own player(launches your MP3 player)

EPWA 010200Z 24004KT 210V280 CAVOK M03/M07 Q1022 NOSIG

EPWA Flight Activity (Flightaware)

Listeners: 0 out of 650 total

Warsaw Approach: 125.050

EPWA Clearance Delivery (Archives)
Warsaw, Poland

Feed Status: UP
Listen in your browser - HTML5 player(in browser, HTML5)
Click here to listen with your own player(launches your MP3 player)

EPWA 010200Z 24004KT 210V280 CAVOK M03/M07 Q1022 NOSIG

EPWA Flight Activity (Flightaware)

Listeners: 0 out of 650 total

Warsaw Clearance Delivery: 121.600

EPWA Director (Archives)
Warsaw, Poland

Feed Status: UP
Listen in your browser - HTML5 player(in browser, HTML5)
Click here to listen with your own player(launches your MP3 player)

EPWA 010200Z 24004KT 210V280 CAVOK M03/M07 Q1022 NOSIG

EPWA Flight Activity (Flightaware)

Listeners: 0 out of 650 total

Warsaw Director: 129.375

EPWA Ground (Archives)
Warsaw, Poland

Feed Status: UP
Listen in your browser - HTML5 player(in browser, HTML5)
Click here to listen with your own player(launches your MP3 player)

EPWA 010200Z 24004KT 210V280 CAVOK M03/M07 Q1022 NOSIG

EPWA Flight Activity (Flightaware)

Listeners: 0 out of 650 total

Warsaw Ground: 121.900

EPWA Tower #1 (Archives)
Warsaw, Poland

Feed Status: UP
Listen in your browser - HTML5 player(in browser, HTML5)
Click here to listen with your own player(launches your MP3 player)

EPWA 010200Z 24004KT 210V280 CAVOK M03/M07 Q1022 NOSIG

EPWA Flight Activity (Flightaware)

Listeners: 0 out of 650 total

Warsaw Tower: 118.300

EPWA Tower #2 (Archives)
Warsaw, Poland

Feed Status: UP
Listen in your browser - HTML5 player(in browser, HTML5)
Click here to listen with your own player(launches your MP3 player)

EPWA 010200Z 24004KT 210V280 CAVOK M03/M07 Q1022 NOSIG

EPWA Flight Activity (Flightaware)

Listeners: 0 out of 650 total

Warsaw Tower: 118.300

EPWR Twr/App (Archives)
Wroclaw, Poland

Feed Status: UP
Listen in your browser - HTML5 player(in browser, HTML5)
Click here to listen with your own player(launches your MP3 player)

EPPO 010200Z 23005KT CAVOK M04/M07 Q1023

EPPO Flight Activity (Flightaware)

Listeners: 1 out of 650 total

Poznan Approach (South): 127.225

EPRZ Del/Twr/EPWW Radar (Archives)
Jasionka, Poland

Feed Status: UP
Listen in your browser - HTML5 player(in browser, HTML5)
Click here to listen with your own player(launches your MP3 player)

EPRZ 010200Z 26008KT 5000 BR NSC M05/M06 Q1023

EPRZ Flight Activity (Flightaware)

Listeners: 1 out of 650 total

EPWW Radar: 134.175
EPWW Radar: 120.950
Rzeszow Delivery: 121.800
Rzeszow Tower: 126.800

ESDF Gnd/Twr (Archives)
Ronneby, Sweden

Feed Status: UP
Listen in your browser - HTML5 player(in browser, HTML5)
Click here to listen with your own player(launches your MP3 player)

ESDF 010220Z AUTO 25007KT 9999 -SHRA BKN015/// OVC042/// 03/03 Q1013

ESDF Flight Activity (Flightaware)

Listeners: 0 out of 650 total

Ronneby Ground: 121.850
Ronneby Tower: 119.200

ESDF Ronneby Control (Archives)
Ronneby, Sweden

Feed Status: UP
Listen in your browser - HTML5 player(in browser, HTML5)
Click here to listen with your own player(launches your MP3 player)

ESDF 010220Z AUTO 25007KT 9999 -SHRA BKN015/// OVC042/// 03/03 Q1013

ESDF Flight Activity (Flightaware)

Listeners: 0 out of 650 total

Ronneby Control: 128.450

ESMQ Tower (Archives)
Kalmar, Sweden

Feed Status: UP
Listen in your browser - HTML5 player(in browser, HTML5)
Click here to listen with your own player(launches your MP3 player)

ESMQ 010220Z AUTO 25012KT 9999 FEW021/// 05/02 Q1011

ESMQ Flight Activity (Flightaware)

Listeners: 0 out of 650 total

Kalmar Tower: 130.805

ESMS Radar (Archives)
Svedala, Sweden

Feed Status: UP
Listen in your browser - HTML5 player(in browser, HTML5)
Click here to listen with your own player(launches your MP3 player)

ESMS 010220Z 26013KT 9999 OVC008 04/03 Q1016 R17/09//95

ESMS Flight Activity (Flightaware)

Listeners: 0 out of 650 total

Sweden Control (Sector L, Malmo): 134.980

ESMS Tower (Archives)
Svedala, Sweden

Feed Status: UP
Listen in your browser - HTML5 player(in browser, HTML5)
Click here to listen with your own player(launches your MP3 player)

ESMS 010220Z 26013KT 9999 OVC008 04/03 Q1016 R17/09//95

ESMS Flight Activity (Flightaware)

Listeners: 0 out of 650 total

Malmo Tower: 118.800

ESOW Twr/CTAF/Control (Archives)
Stockholm, Sweden

Feed Status: UP
Listen in your browser - HTML5 player(in browser, HTML5)
Click here to listen with your own player(launches your MP3 player)

ESOW 010220Z AUTO 30005KT 220V330 9999 NCD 05/M04 Q1006

ESOW Flight Activity (Flightaware)

Listeners: 0 out of 650 total

Arlanda Approach: 123.750
Arlanda Approach: 126.655
Arlanda Approach: 130.325
Arlanda Departure: 124.100
Arlanda Tower: 118.505
Arlanda Tower: 128.725
Enkoping/Langtora: 123.525
Eskilstuna: 126.850
Frolunda: 123.400
Johannisberg CTAF: 123.650
Ska Edeby: 123.350
Stockholm Control: 120.155
Stockholm Control: 118.405
Stockholm Control: 118.280
Sweden Control: 133.260
Sweden Control: 129.175
Sweden Control: 131.130
Uppsala Tower: 119.200
Uppsala/Sundbro: 123.350
Vasteras Control: 125.955
Vasteras Tower: 130.600

ESPA Twr/Control (Archives)
Lulea, Sweden

Feed Status: UP
Listen in your browser - HTML5 player(in browser, HTML5)
Click here to listen with your own player(launches your MP3 player)

ESPA 010220Z AUTO 33012KT 9999 -RASN FEW018/// BKN029/// OVC040/// 00/M01 Q0991

ESPA Flight Activity (Flightaware)

Listeners: 0 out of 650 total

Emergency/Guard: 121.500
Kallax Control: 125.450
Kallax Tower: 128.200
Sweden Control North: 131.050

ESSG Misc (Archives)
Ludvika, Sweden

Feed Status: UP
Listen in your browser - HTML5 player(in browser, HTML5)
Click here to listen with your own player(launches your MP3 player)

ESSG Flight Activity (Flightaware)

Listeners: 0 out of 650 total

Avesta, Gagnef, Siljansnas: 123.550
Borlange Tower: 127.300
Dala-Jarna: 123.350
Emergency/Guard: 121.500
Karlstad: 119.450
Koping, Arboga, Borberg: 123.150
Ludvika CTAF: 122.100
Mora: 129.850
Orebro: 120.275
Orsa: 123.400
Soaring Freq: 123.500
Sweden Control: 131.125
Sweden Control: 129.175
Sweden Control: 118.200
Sweden Control: 132.150

ESVQ CTAF (Archives)
Koping, Sweden

Feed Status: UP
Listen in your browser - HTML5 player(in browser, HTML5)
Click here to listen with your own player(launches your MP3 player)

ESVQ Flight Activity (Flightaware)

Listeners: 0 out of 650 total

Koping CTAF: 123.150

EVLA AFIS (Archives)
Liepaja, Latvia

Feed Status: UP
Listen in your browser - HTML5 player(in browser, HTML5)
Click here to listen with your own player(launches your MP3 player)

EVLA 010220Z AUTO 26017KT 9999 FEW017/// OVC026/// 05/03 Q1009

EVLA Flight Activity (Flightaware)

Listeners: 0 out of 650 total

Liepaja AFIS: 129.400

EVRA Approach (Archives)
Riga, Latvia

Feed Status: UP
Listen in your browser - HTML5 player(in browser, HTML5)
Click here to listen with your own player(launches your MP3 player)

EVRA 010220Z 21010KT 9999 SCT024 02/M02 Q1008 NOSIG

EVRA Flight Activity (Flightaware)

Listeners: 0 out of 650 total

Riga Approach: 129.925

EVRA Approach (Archives)
Riga, Latvia

Feed Status: UP
Listen in your browser - HTML5 player(in browser, HTML5)
Click here to listen with your own player(launches your MP3 player)

EVLA 010220Z AUTO 26017KT 9999 FEW017/// OVC026/// 05/03 Q1009

EVLA Flight Activity (Flightaware)

Listeners: 0 out of 650 total

Riga Approach: 129.925

EVRA CTAF (Archives)
Riga, Latvia

Feed Status: UP
Listen in your browser - HTML5 player(in browser, HTML5)
Click here to listen with your own player(launches your MP3 player)

EVRA 010220Z 21010KT 9999 SCT024 02/M02 Q1008 NOSIG

EVRA Flight Activity (Flightaware)

Listeners: 0 out of 650 total

Riga Approach (evenings): 134.850
Riga CTAF: 123.950

EVRA FIC (Archives)
Riga, Latvia

Feed Status: UP
Listen in your browser - HTML5 player(in browser, HTML5)
Click here to listen with your own player(launches your MP3 player)

EVRA 010220Z 21010KT 9999 SCT024 02/M02 Q1008 NOSIG

EVRA Flight Activity (Flightaware)

Listeners: 0 out of 650 total

Riga FIC: 120.225

EVRA FIC (Archives)
Riga, Latvia

Feed Status: UP
Listen in your browser - HTML5 player(in browser, HTML5)
Click here to listen with your own player(launches your MP3 player)

EVLA 010220Z AUTO 26017KT 9999 FEW017/// OVC026/// 05/03 Q1009

EVLA Flight Activity (Flightaware)

Listeners: 0 out of 650 total

Riga FIC: 120.225

EVRA Tower/Guard (Archives)
Riga, Latvia

Feed Status: UP
Listen in your browser - HTML5 player(in browser, HTML5)
Click here to listen with your own player(launches your MP3 player)

EVRA 010220Z 21010KT 9999 SCT024 02/M02 Q1008 NOSIG

EVRA Flight Activity (Flightaware)

Listeners: 0 out of 650 total

Emergency/Guard: 121.500
Riga Tower: 118.100

EYPA Tower (Archives)
Palanga, Lithuania

Feed Status: UP
Listen in your browser - HTML5 player(in browser, HTML5)
Click here to listen with your own player(launches your MP3 player)

EVLA 010220Z AUTO 26017KT 9999 FEW017/// OVC026/// 05/03 Q1009

EVLA Flight Activity (Flightaware)

Listeners: 0 out of 650 total

Palanga Tower: 124.300

EYVI Twr/App/Misc (Archives)
Vilnius, Lithuania

Feed Status: UP
Listen in your browser - HTML5 player(in browser, HTML5)
Click here to listen with your own player(launches your MP3 player)

EYVI 010220Z 24010KT CAVOK M02/M06 Q1014 NOSIG

EYVI Flight Activity (Flightaware)

Listeners: 0 out of 650 total

Emergency / GUARD: 121.500
FlyLAL, AirBaltic transit services: 131.900
FlyLAL, AirBaltic transit services: 131.600
FlyLAL, AirBaltic transit services: 131.500
Kaunas Approach (EYKA): 124.200
Vilnius Approach: 120.700
Vilnius Control: 132.275
Vilnius Control: 133.425
Vilnius Control: 133.300
Vilnius FIS: 123.850
Vilnius Tower: 118.200
Zokniai A/G (mil): 122.775

EYVP CTAF (Archives)
Paluknys, Lithuania

Feed Status: UP
Listen in your browser - HTML5 player(in browser, HTML5)
Click here to listen with your own player(launches your MP3 player)

EYVP Flight Activity (Flightaware)

Listeners: 0 out of 650 total

EYVP Paluknis CTAF: 119.100

FIMP Twr/App/Ctr #1 (Archives)
Plaine Magnien, Mauritius

Feed Status: UP
Listen in your browser - HTML5 player(in browser, HTML5)
Click here to listen with your own player(launches your MP3 player)

FIMP 010200Z 00000KT 9999 VCSH BKN015 26/25 Q1009


Listeners: 0 out of 650 total

FIMP Approach: 119.100
FIMP Tower: 118.100
FMEE Approach/Departure: 127.200
Mauritius Centre: 129.300

FIMP Twr/App/Ctr #2 (Archives)
Plaine Magnien, Mauritius

Feed Status: UP
Listen in your browser - HTML5 player(in browser, HTML5)
Click here to listen with your own player(launches your MP3 player)

FIMP 010200Z 00000KT 9999 VCSH BKN015 26/25 Q1009


Listeners: 0 out of 650 total

FIMP Approach: 119.100
FIMP Tower: 118.100
Mauritius Centre: 129.300

FMEE Tower (Archives)
Sainte-Marie, Reunion

Feed Status: UP
Listen in your browser - HTML5 player(in browser, HTML5)
Click here to listen with your own player(launches your MP3 player)

FMEE 010200Z AUTO 19006KT CAVOK 23/20 Q1008 NOSIG


Listeners: 0 out of 650 total

Gillot Tower: 118.400

FMEP Info (Archives)
Saint-Pierre, Reunion

Feed Status: UP
Listen in your browser - HTML5 player(in browser, HTML5)
Click here to listen with your own player(launches your MP3 player)

FMEP 010200Z AUTO 04007KT CAVOK 24/21 Q1009


Listeners: 0 out of 650 total

Saint-Pierre Info: 122.400

FMMI Twr/App/Center (Archives)
Antananarivo, Madagascar

Feed Status: UP
Listen in your browser - HTML5 player(in browser, HTML5)
Click here to listen with your own player(launches your MP3 player)

FMMI 010200Z 15003KT 100V180 9999 FEW008 BKN020 18/17 Q1017 NOSIG


Listeners: 0 out of 650 total

Ivato Approach: 125.700
Ivato Tower: 120.100
Tana Control: 128.900

LBLS Tower/FIC
Lesnovo, Bulgaria

Feed Status: DOWN
Offline since: 2020-03-25 03:38:23 UTC

LBSF 010200Z 12004KT 2800 -SN FEW004 OVC019 M01/M02 Q1017 NOSIG

Lesnovo FIC: 130.600
Lesnovo Tower: 122.250

LBPD Tower (Archives)
Plovdiv, Bulgaria

Feed Status: UP
Listen in your browser - HTML5 player(in browser, HTML5)
Click here to listen with your own player(launches your MP3 player)

LBSF 010200Z 12004KT 2800 -SN FEW004 OVC019 M01/M02 Q1017 NOSIG

LBSF Flight Activity (Flightaware)

Listeners: 0 out of 650 total

Plovdiv Tower: 125.500
Plovdiv Tower: 133.600

LBSF ATIS (Archives)
Sofia, Bulgaria

Feed Status: UP
Listen in your browser - HTML5 player(in browser, HTML5)
Click here to listen with your own player(launches your MP3 player)

LBSF 010200Z 12004KT 2800 -SN FEW004 OVC019 M01/M02 Q1017 NOSIG

LBSF Flight Activity (Flightaware)

Listeners: 0 out of 650 total

Sofia ATIS: 126.680

LBSF Sofia Control East (Archives)
Sofia, Bulgaria

Feed Status: UP
Listen in your browser - HTML5 player(in browser, HTML5)
Click here to listen with your own player(launches your MP3 player)

LBSF 010200Z 12004KT 2800 -SN FEW004 OVC019 M01/M02 Q1017 NOSIG

LBSF Flight Activity (Flightaware)

Listeners: 0 out of 650 total

Sofia Control (East/Middle Sector): 129.100
Sofia Control (Varna Sector): 134.700

LBSF Twr/App #1 (Archives)
Sofia, Bulgaria

Feed Status: UP
Listen in your browser - HTML5 player(in browser, HTML5)
Click here to listen with your own player(launches your MP3 player)

LBSF 010200Z 12004KT 2800 -SN FEW004 OVC019 M01/M02 Q1017 NOSIG

LBSF Flight Activity (Flightaware)

Listeners: 0 out of 650 total

Sofia Approach: 123.700
Sofia Approach: 129.900
Sofia Tower: 118.100
Sofia Tower: 120.200

LBSF Twr/App #2 (Archives)
Sofia, Bulgaria

Feed Status: UP
Listen in your browser - HTML5 player(in browser, HTML5)
Click here to listen with your own player(launches your MP3 player)

LBSF 010200Z 12004KT 2800 -SN FEW004 OVC019 M01/M02 Q1017 NOSIG

LBSF Flight Activity (Flightaware)

Listeners: 0 out of 650 total

Sofia Approach: 123.700
Sofia Tower: 118.100

LBWN Tower/Approach (Archives)
Varna, Bulgaria

Feed Status: UP
Listen in your browser - HTML5 player(in browser, HTML5)
Click here to listen with your own player(launches your MP3 player)

LBWN 010200Z 01011KT 350V050 CAVOK 04/M07 Q1019 NOSIG

LBWN Flight Activity (Flightaware)

Listeners: 0 out of 650 total

Varna Approach: 121.000
Varna Tower: 119.500

Bordeaux Control (Archives)
Bordeaux, France

Feed Status: UP
Listen in your browser - HTML5 player(in browser, HTML5)
Click here to listen with your own player(launches your MP3 player)

LFBD 010200Z AUTO 03005KT CAVOK 07/M00 Q1015 NOSIG

LFBD Flight Activity (Flightaware)

Listeners: 1 out of 650 total

Air to Air: 123.450
Bordeaux Control BN FL<300: 127.675
Bordeaux Control L3 FL>300: 134.250
Bordeaux Control R2 FL>300: 133.575
Emergency/Guard: 121.500

LFBD Aquitane Approach (Archives)
Bordeaux, France

Feed Status: UP
Listen in your browser - HTML5 player(in browser, HTML5)
Click here to listen with your own player(launches your MP3 player)

LFBD 010200Z AUTO 03005KT CAVOK 07/M00 Q1015 NOSIG

LFBD Flight Activity (Flightaware)

Listeners: 0 out of 650 total

Aquitane Approach: 129.875

LFBD Bordeaux Control Sector X1 (Archives)
Bordeaux, France

Feed Status: UP
Listen in your browser - HTML5 player(in browser, HTML5)
Click here to listen with your own player(launches your MP3 player)

LFBD 010200Z AUTO 03005KT CAVOK 07/M00 Q1015 NOSIG

LFBD Flight Activity (Flightaware)

Listeners: 0 out of 650 total

Bordeaux Control (Sector X1): 118.425

LFBD Ground (Archives)
Bordeaux, France

Feed Status: UP
Listen in your browser - HTML5 player(in browser, HTML5)
Click here to listen with your own player(launches your MP3 player)

LFBD 010200Z AUTO 03005KT CAVOK 07/M00 Q1015 NOSIG

LFBD Flight Activity (Flightaware)

Listeners: 0 out of 650 total

Merignac Ground: 121.900

LFBD Tower (Archives)
Bordeaux, France

Feed Status: UP
Listen in your browser - HTML5 player(in browser, HTML5)
Click here to listen with your own player(launches your MP3 player)

LFBD 010200Z AUTO 03005KT CAVOK 07/M00 Q1015 NOSIG

LFBD Flight Activity (Flightaware)

Listeners: 0 out of 650 total

Merignac Tower: 118.300

LFBU/LFBL Tower (Archives)
Limoges, France

Feed Status: UP
Listen in your browser - HTML5 player(in browser, HTML5)
Click here to listen with your own player(launches your MP3 player)

LFBU 010200Z AUTO 04009KT CAVOK 05/M05 Q1016

LFBU Flight Activity (Flightaware)

Listeners: 0 out of 650 total

LFBL Limoges Tower: 124.055
LFBU Angouleme Tower: 123.150
Medoc: 124.325

Bordeaux Control (Archives)
Angouleme, France

Feed Status: UP
Listen in your browser - HTML5 player(in browser, HTML5)
Click here to listen with your own player(launches your MP3 player)

LFBD 010200Z AUTO 03005KT CAVOK 07/M00 Q1015 NOSIG

LFBD Flight Activity (Flightaware)

Listeners: 1 out of 650 total

Air to Air: 123.450
Bordeaux Control BN FL<300: 127.675
Bordeaux Control L3 FL>300: 134.250
Bordeaux Control R2 FL>300: 133.575
Emergency/Guard: 121.500

LFBU/LFBL Tower (Archives)
Angouleme, France

Feed Status: UP
Listen in your browser - HTML5 player(in browser, HTML5)
Click here to listen with your own player(launches your MP3 player)

LFBU 010200Z AUTO 04009KT CAVOK 05/M05 Q1016

LFBU Flight Activity (Flightaware)

Listeners: 0 out of 650 total

LFBL Limoges Tower: 124.055
LFBU Angouleme Tower: 123.150
Medoc: 124.325

LFLL Tower (Archives)
Lyon, France

Feed Status: UP
Listen in your browser - HTML5 player(in browser, HTML5)
Click here to listen with your own player(launches your MP3 player)

LFLL 010200Z AUTO 25003KT 210V270 CAVOK 02/M04 Q1019 NOSIG

LFLL Flight Activity (Flightaware)

Listeners: 0 out of 650 total

Lyon Tower: 120.450

Lyon FIS (Archives)
Lyon, France

Feed Status: UP
Listen in your browser - HTML5 player(in browser, HTML5)
Click here to listen with your own player(launches your MP3 player)

LFLL 010200Z AUTO 25003KT 210V270 CAVOK 02/M04 Q1019 NOSIG

LFLL Flight Activity (Flightaware)

Listeners: 0 out of 650 total

Lyon FIS: 135.200

LFLP Twr/LFLB App
Annecy, France

Feed Status: DOWN
Offline since: 2020-03-31 18:34:40 UTC

LFLP 010200Z AUTO 00000KT CAVOK M01/M04 Q1019

Annecy Tower: 118.200
Chambery Approach: 121.205
Chambery Info: 123.700

LFLY Tower (Archives)
Bron, France

Feed Status: UP
Listen in your browser - HTML5 player(in browser, HTML5)
Click here to listen with your own player(launches your MP3 player)

LFLY 010200Z AUTO VRB02KT CAVOK 01/M04 Q1019

LFLY Flight Activity (Flightaware)

Listeners: 0 out of 650 total

Lyon-Bron Tower: 118.100

Lyon FIS (Archives)
Bron, France

Feed Status: UP
Listen in your browser - HTML5 player(in browser, HTML5)
Click here to listen with your own player(launches your MP3 player)

LFLL 010200Z AUTO 25003KT 210V270 CAVOK 02/M04 Q1019 NOSIG

LFLL Flight Activity (Flightaware)

Listeners: 0 out of 650 total

Lyon FIS: 135.200

LFMD Ground/Tower (Archives)
Cannes, France

Feed Status: UP
Listen in your browser - HTML5 player(in browser, HTML5)
Click here to listen with your own player(launches your MP3 player)

LFMD 010200Z AUTO 10007KT 040V180 9999 OVC066 11/M02 Q1020

LFMD Flight Activity (Flightaware)

Listeners: 0 out of 650 total

Cannes Ground: 121.800
Cannes Tower: 118.625

LFMN Approach (Archives)
Nice, France

Feed Status: UP
Listen in your browser - HTML5 player(in browser, HTML5)
Click here to listen with your own player(launches your MP3 player)

LFMN 010200Z AUTO 10025KT 9999 OVC060 11/03 Q1020 TEMPO 09020G30KT

LFMN Flight Activity (Flightaware)

Listeners: 0 out of 650 total

Nice Approach: 124.175

LFMN Control (High) (Archives)
Nice, France

Feed Status: UP
Listen in your browser - HTML5 player(in browser, HTML5)
Click here to listen with your own player(launches your MP3 player)

LFMN 010200Z AUTO 10025KT 9999 OVC060 11/03 Q1020 TEMPO 09020G30KT

LFMN Flight Activity (Flightaware)

Listeners: 0 out of 650 total

Marseille Control Sector K1 (FL245-FL305): 126.780

LFMN FIS/Approach (Archives)
Nice, France

Feed Status: UP
Listen in your browser - HTML5 player(in browser, HTML5)
Click here to listen with your own player(launches your MP3 player)

LFMN 010200Z AUTO 10025KT 9999 OVC060 11/03 Q1020 TEMPO 09020G30KT

LFMN Flight Activity (Flightaware)

Listeners: 0 out of 650 total

Nice FIS/Approach (TMA4 NICE 2500ft - FL115): 120.850

LFMN Ground/Tower (Archives)
Nice, France

Feed Status: UP
Listen in your browser - HTML5 player(in browser, HTML5)
Click here to listen with your own player(launches your MP3 player)

LFMN 010200Z AUTO 10025KT 9999 OVC060 11/03 Q1020 TEMPO 09020G30KT

LFMN Flight Activity (Flightaware)

Listeners: 0 out of 650 total

Nice Ground: 121.700
Nice Tower: 118.700

LFPG Tower (Archives)
Paris, France

Feed Status: UP
Listen in your browser - HTML5 player(in browser, HTML5)
Click here to listen with your own player(launches your MP3 player)

LFPG 010200Z AUTO 02007KT CAVOK 01/M04 Q1023 NOSIG

LFPG Flight Activity (Flightaware)

Listeners: 1 out of 650 total

De Gaulle Tower: 120.900
De Gaulle Tower: 119.250

LFPO Approach (Archives)
Paris, France

Feed Status: UP
Listen in your browser - HTML5 player(in browser, HTML5)
Click here to listen with your own player(launches your MP3 player)

LFPO 010200Z AUTO 05004KT CAVOK 03/M03 Q1023 NOSIG

LFPO Flight Activity (Flightaware)

Listeners: 0 out of 650 total

Orly Approach: 124.450
Orly Approach: 118.850
Orly Approach: 120.850
Orly Approach: 123.875

LFPO Departure (Archives)
Paris, France

Feed Status: UP
Listen in your browser - HTML5 player(in browser, HTML5)
Click here to listen with your own player(launches your MP3 player)

LFPO 010200Z AUTO 05004KT CAVOK 03/M03 Q1023 NOSIG

LFPO Flight Activity (Flightaware)

Listeners: 0 out of 650 total

Orly Departure: 127.750

LFPO Tower (Archives)
Paris, France

Feed Status: UP
Listen in your browser - HTML5 player(in browser, HTML5)
Click here to listen with your own player(launches your MP3 player)

LFPO 010200Z AUTO 05004KT CAVOK 03/M03 Q1023 NOSIG

LFPO Flight Activity (Flightaware)

Listeners: 1 out of 650 total

Orly Tower: 120.500
Orly Tower: 118.700

LFSB Tower (Archives)
Basel, Switzerland

Feed Status: UP
Listen in your browser - HTML5 player(in browser, HTML5)
Click here to listen with your own player(launches your MP3 player)

LFSB 010200Z AUTO VRB03KT CAVOK M02/M06 Q1021 NOSIG

LFSB Flight Activity (Flightaware)

Listeners: 1 out of 650 total

Mulhouse Tower: 118.300

LGAV App/Radar (Archives)
Athens, Greece

Feed Status: UP
Listen in your browser - HTML5 player(in browser, HTML5)
Click here to listen with your own player(launches your MP3 player)

LGAV 010220Z 07005KT 340V100 9999 FEW030 09/06 Q1013 NOSIG

LGAV Flight Activity (Flightaware)

Listeners: 0 out of 650 total

Athens Approach: 132.975
Athens Information: 130.925
Athens Information: 119.750
Athens Radar (Kerkira-Kefalinia-Paleohora Sectors FL460-FL345): 134.325
Athens Radar (Milos/Sitia Sectors FL460-FL345): 125.200
Athens Radar (Paleohora /Kerkira Sectors FL460-FL345): 133.725
Athens Radar (Paleohora Sector FL460-FL345): 124.625
Athens Radar (Rhodos/Kavos Sector FL460-FL345): 133.325
Emergency/Guard: 121.500
Makedonia Radar (Thessaloniki/Skopelos/Limnos/Kavala Sectors FL460-FL345): 133.575

LGAV Clearance Delivery (Archives)
Athens, Greece

Feed Status: UP
Listen in your browser - HTML5 player(in browser, HTML5)
Click here to listen with your own player(launches your MP3 player)

LGAV 010220Z 07005KT 340V100 9999 FEW030 09/06 Q1013 NOSIG

LGAV Flight Activity (Flightaware)

Listeners: 0 out of 650 total

Athens Clearance Delivery: 118.675

LGAV Director (Archives)
Athens, Greece

Feed Status: UP
Listen in your browser - HTML5 player(in browser, HTML5)
Click here to listen with your own player(launches your MP3 player)

LGAV 010220Z 07005KT 340V100 9999 FEW030 09/06 Q1013 NOSIG

LGAV Flight Activity (Flightaware)

Listeners: 0 out of 650 total

Athens Director: 121.400

LGAV Ground (North) (Archives)
Athens, Greece

Feed Status: UP
Listen in your browser - HTML5 player(in browser, HTML5)
Click here to listen with your own player(launches your MP3 player)

LGAV 010220Z 07005KT 340V100 9999 FEW030 09/06 Q1013 NOSIG

LGAV Flight Activity (Flightaware)

Listeners: 0 out of 650 total

Athens Ground (North): 121.750

LGAV Ground (South) (Archives)
Athens, Greece

Feed Status: UP
Listen in your browser - HTML5 player(in browser, HTML5)
Click here to listen with your own player(launches your MP3 player)

LGAV 010220Z 07005KT 340V100 9999 FEW030 09/06 Q1013 NOSIG

LGAV Flight Activity (Flightaware)

Listeners: 0 out of 650 total

Athens Ground (South): 121.950

LGAV Tower (Rwy 3L/21R) (Archives)
Athens, Greece

Feed Status: UP
Listen in your browser - HTML5 player(in browser, HTML5)
Click here to listen with your own player(launches your MP3 player)

LGAV 010220Z 07005KT 340V100 9999 FEW030 09/06 Q1013 NOSIG

LGAV Flight Activity (Flightaware)

Listeners: 0 out of 650 total

Athens Tower (Rwy 03L/21R): 136.275

LGAV Tower (Rwy 3R/21L) (Archives)
Athens, Greece

Feed Status: UP
Listen in your browser - HTML5 player(in browser, HTML5)
Click here to listen with your own player(launches your MP3 player)

LGAV 010220Z 07005KT 340V100 9999 FEW030 09/06 Q1013 NOSIG

LGAV Flight Activity (Flightaware)

Listeners: 0 out of 650 total

Athens Tower (Rwy 03R/21L): 118.625

LGIR Approach (Archives)
Iraklion, Greece

Feed Status: UP
Listen in your browser - HTML5 player(in browser, HTML5)
Click here to listen with your own player(launches your MP3 player)

LGIR 010220Z 17004KT 9999 FEW020 11/09 Q1012 NOSIG

LGIR Flight Activity (Flightaware)

Listeners: 0 out of 650 total

Iraklion Radar: 123.975

LGIR Ground (Archives)
Iraklion, Greece

Feed Status: UP
Listen in your browser - HTML5 player(in browser, HTML5)
Click here to listen with your own player(launches your MP3 player)

LGIR 010220Z 17004KT 9999 FEW020 11/09 Q1012 NOSIG

LGIR Flight Activity (Flightaware)

Listeners: 0 out of 650 total

Heraklion Ground: 121.700

LGIR Tower (Archives)
Iraklion, Greece

Feed Status: UP
Listen in your browser - HTML5 player(in browser, HTML5)
Click here to listen with your own player(launches your MP3 player)

LGIR 010220Z 17004KT 9999 FEW020 11/09 Q1012 NOSIG

LGIR Flight Activity (Flightaware)

Listeners: 0 out of 650 total

Heraklion Tower: 120.850

LHBP Approach (Archives)
Budapest, Hungary

Feed Status: UP
Listen in your browser - HTML5 player(in browser, HTML5)
Click here to listen with your own player(launches your MP3 player)

LHBP 010200Z 07004KT CAVOK 00/M11 Q1023 NOSIG

LHBP Flight Activity (Flightaware)

Listeners: 0 out of 650 total

Budapest Approach: 122.975
Budapest Approach (Upper): 123.860

LHBP Approach (Director) (Archives)
Budapest, Hungary

Feed Status: UP
Listen in your browser - HTML5 player(in browser, HTML5)
Click here to listen with your own player(launches your MP3 player)

LHBP 010200Z 07004KT CAVOK 00/M11 Q1023 NOSIG

LHBP Flight Activity (Flightaware)

Listeners: 0 out of 650 total

Budapest Director: 119.510

LHBP ATIS (Archives)
Budapest, Hungary

Feed Status: UP
Listen in your browser - HTML5 player(in browser, HTML5)
Click here to listen with your own player(launches your MP3 player)

LHBP 010200Z 07004KT CAVOK 00/M11 Q1023 NOSIG

LHBP Flight Activity (Flightaware)

Listeners: 0 out of 650 total

Budapest ATIS: 132.380

LHBP Clearance Delivery (Archives)
Budapest, Hungary

Feed Status: UP
Listen in your browser - HTML5 player(in browser, HTML5)
Click here to listen with your own player(launches your MP3 player)

LHBP 010200Z 07004KT CAVOK 00/M11 Q1023 NOSIG

LHBP Flight Activity (Flightaware)

Listeners: 0 out of 650 total

Budapest Clearance Delivery: 134.540

LHBP Ground (Archives)
Budapest, Hungary

Feed Status: UP
Listen in your browser - HTML5 player(in browser, HTML5)
Click here to listen with your own player(launches your MP3 player)

LHBP 010200Z 07004KT CAVOK 00/M11 Q1023 NOSIG

LHBP Flight Activity (Flightaware)

Listeners: 0 out of 650 total

Budapest Ground: 121.910

LHBP Info (Archives)
Budapest, Hungary

Feed Status: UP
Listen in your browser - HTML5 player(in browser, HTML5)
Click here to listen with your own player(launches your MP3 player)

LHBP 010200Z 07004KT CAVOK 00/M11 Q1023 NOSIG

LHBP Flight Activity (Flightaware)

Listeners: 0 out of 650 total

Budapest Info: 119.350

LHBP Tower (Archives)
Budapest, Hungary

Feed Status: UP
Listen in your browser - HTML5 player(in browser, HTML5)
Click here to listen with your own player(launches your MP3 player)

LHBP 010200Z 07004KT CAVOK 00/M11 Q1023 NOSIG

LHBP Flight Activity (Flightaware)

Listeners: 0 out of 650 total

Budapest Tower: 118.100

LHBP Twr/Info (Archives)
Budapest, Hungary

Feed Status: UP
Listen in your browser - HTML5 player(in browser, HTML5)
Click here to listen with your own player(launches your MP3 player)

LHBP 010200Z 07004KT CAVOK 00/M11 Q1023 NOSIG

LHBP Flight Activity (Flightaware)

Listeners: 0 out of 650 total

Budapest Info: 119.350
Budapest Tower: 118.100

LHCC Control (East/West) (Archives)
Budapest, Hungary

Feed Status: UP
Listen in your browser - HTML5 player(in browser, HTML5)
Click here to listen with your own player(launches your MP3 player)

LHBP 010200Z 07004KT CAVOK 00/M11 Q1023 NOSIG

LHBP Flight Activity (Flightaware)

Listeners: 1 out of 650 total

Budapest Control (East Low Sector): 120.375
Budapest Control (West Low Sector): 133.200

LHDC Info/Tower (Archives)
Debrecen, Hungary

Feed Status: UP
Listen in your browser - HTML5 player(in browser, HTML5)
Click here to listen with your own player(launches your MP3 player)

LHDC 010145Z AUTO 04007KT CAVOK M04/M12 Q1024

LHDC Flight Activity (Flightaware)

Listeners: 0 out of 650 total

Debrecen Info/Tower: 125.900

LHEM CTAF (Archives)
Esztergom, Hungary

Feed Status: UP
Listen in your browser - HTML5 player(in browser, HTML5)
Click here to listen with your own player(launches your MP3 player)

LHEM Flight Activity (Flightaware)

Listeners: 0 out of 650 total

Esztergom CTAF: 126.850

LHPR Info/AFIS (Archives)
Gyor, Hungary

Feed Status: UP
Listen in your browser - HTML5 player(in browser, HTML5)
Click here to listen with your own player(launches your MP3 player)

LHPR 010145Z AUTO 25003KT CAVOK M03/M06 Q1024

LHPR Flight Activity (Flightaware)

Listeners: 0 out of 650 total

Gyor AFIS: 129.910

LHUD CTAF/Info/AFIS (Archives)
Szeged, Hungary

Feed Status: UP
Listen in your browser - HTML5 player(in browser, HTML5)
Click here to listen with your own player(launches your MP3 player)

LHUD 032345Z 35004KT CAVOK 18/13 Q1019

LHUD Flight Activity (Flightaware)

Listeners: 0 out of 650 total

Szeged CTAF/Info/AFIS: 122.810

LJLJ Info (Archives)
Ljubljana, Slovenia

Feed Status: UP
Listen in your browser - HTML5 player(in browser, HTML5)
Click here to listen with your own player(launches your MP3 player)

LJLJ 010200Z VRB02KT 9999 FEW060 SCT090 M03/M05 Q1022 NOSIG

LJLJ Flight Activity (Flightaware)

Listeners: 0 out of 650 total

Ljubljana Info: 118.475

LJLJ Radar (Archives)
Ljubljana, Slovenia

Feed Status: UP
Listen in your browser - HTML5 player(in browser, HTML5)
Click here to listen with your own player(launches your MP3 player)

LJLJ 010200Z VRB02KT 9999 FEW060 SCT090 M03/M05 Q1022 NOSIG

LJLJ Flight Activity (Flightaware)

Listeners: 0 out of 650 total

Ljubljana Approach: 135.275

LJLJ Tower (Archives)
Ljubljana, Slovenia

Feed Status: UP
Listen in your browser - HTML5 player(in browser, HTML5)
Click here to listen with your own player(launches your MP3 player)

LJLJ 010200Z VRB02KT 9999 FEW060 SCT090 M03/M05 Q1022 NOSIG

LJLJ Flight Activity (Flightaware)

Listeners: 0 out of 650 total

Ljubljana Tower: 118.000

LJMB Info/FSS/FIC
Maribor, Slovenia

Feed Status: DOWN
Offline since: 2020-03-04 08:39:39 UTC

LJMB 010200Z AUTO 34006KT 9999 NCD M02/M06 Q1024

Ljubljana Information FSS/FIC (Maribor Area): 118.475

LJMB Tower/Approach
Maribor, Slovenia

Feed Status: DOWN
Offline since: 2020-03-05 21:16:39 UTC

LJMB 010200Z AUTO 34006KT 9999 NCD M02/M06 Q1024

Maribor Tower/Approach: 119.200

LJPZ Tower
Secovlje, Slovenia

Feed Status: DOWN
Offline since: 2020-03-31 19:17:06 UTC

LJPZ 010200Z AUTO 08006KT 050V110 9999 NCD 02/M07 Q1023

Portoroz Tower: 124.875

LKPM Tower (Archives)
Pribram, Czech Republic

Feed Status: UP
Listen in your browser - HTML5 player(in browser, HTML5)
Click here to listen with your own player(launches your MP3 player)

LKPM Flight Activity (Flightaware)

Listeners: 0 out of 650 total

Pribram Tower: 118.750

LKAA FIR (High) (Archives)
Prague, Czech Republic

Feed Status: UP
Listen in your browser - HTML5 player(in browser, HTML5)
Click here to listen with your own player(launches your MP3 player)

LKAA Flight Activity (Flightaware)

Listeners: 0 out of 650 total

LKAA FIR Sector West High / Praha Radar : 132.065

LKAA FIR (Low) (Archives)
Prague, Czech Republic

Feed Status: UP
Listen in your browser - HTML5 player(in browser, HTML5)
Click here to listen with your own player(launches your MP3 player)

LKAA Flight Activity (Flightaware)

Listeners: 0 out of 650 total

LKAA FIR Sector West Low / Praha Radar: 120.275

LKPR Approach (Archives)
Prague, Czech Republic

Feed Status: UP
Listen in your browser - HTML5 player(in browser, HTML5)
Click here to listen with your own player(launches your MP3 player)

LKPR 010200Z 19002KT CAVOK M05/M09 Q1024 NOSIG

LKPR Flight Activity (Flightaware)

Listeners: 0 out of 650 total

Prague Approach/Radar: 127.580

LKPR Clearance Del (Archives)
Prague, Czech Republic

Feed Status: UP
Listen in your browser - HTML5 player(in browser, HTML5)
Click here to listen with your own player(launches your MP3 player)

LKPR 010200Z 19002KT CAVOK M05/M09 Q1024 NOSIG

LKPR Flight Activity (Flightaware)

Listeners: 0 out of 650 total

Prague/Ruzyne Clearance Delivery: 120.060

LKPR Director/Ruzyne Radar (Archives)
Prague, Czech Republic

Feed Status: UP
Listen in your browser - HTML5 player(in browser, HTML5)
Click here to listen with your own player(launches your MP3 player)

LKPR 010200Z 19002KT CAVOK M05/M09 Q1024 NOSIG

LKPR Flight Activity (Flightaware)

Listeners: 0 out of 650 total

Prague Director/Ruzyne Radar: 119.010

LKPR Ground (Archives)
Prague, Czech Republic

Feed Status: UP
Listen in your browser - HTML5 player(in browser, HTML5)
Click here to listen with your own player(launches your MP3 player)

LKPR 010200Z 19002KT CAVOK M05/M09 Q1024 NOSIG

LKPR Flight Activity (Flightaware)

Listeners: 0 out of 650 total

Prague/Ruzyne Ground: 121.910

LKPR Tower (Archives)
Prague, Czech Republic

Feed Status: UP
Listen in your browser - HTML5 player(in browser, HTML5)
Click here to listen with your own player(launches your MP3 player)

LKPR 010200Z 19002KT CAVOK M05/M09 Q1024 NOSIG

LKPR Flight Activity (Flightaware)

Listeners: 3 out of 650 total

Prague/Ruzyne Tower: 134.560

LKTB Gnd/Twr/Radar (Archives)
Brno, Czech Republic

Feed Status: UP
Listen in your browser - HTML5 player(in browser, HTML5)
Click here to listen with your own player(launches your MP3 player)

LKTB 010200Z 31005KT CAVOK M03/M06 Q1025 NOSIG

LKTB Flight Activity (Flightaware)

Listeners: 0 out of 650 total

Brno Ground: 125.430
Brno Handling: 131.800
Brno Radar (Approach): 127.350
Brno Tower: 119.605

Santa Maria Control (Oceanic)
Santa Maria Island (Azores), Portugal

Feed Status: DOWN
Offline since: 2020-02-01 00:20:23 UTC

LPAZ 010200Z 10013KT 9999 FEW028 14/06 Q1017

Emergency/Guard: 121.500
LPHR (Horta) Approach: 120.600
LPLA (Terceira) Approach: 135.000
LPLA (Terceira) Tower: 122.100
LPPD (Ponta Delgada) Approach: 119.400
Ponta Delgada Ground: 131.600
Santa Maria Approach: 119.100
Santa Maria Control: 132.150

LPLA Gnd/Twr/App (Archives)
Lajes, Portugal

Feed Status: UP
Listen in your browser - HTML5 player(in browser, HTML5)
Click here to listen with your own player(launches your MP3 player)

LPLA 010200Z /////KT 9999 FEW020 SCT030 14/09 Q1019

LPLA Flight Activity (Flightaware)

Listeners: 0 out of 650 total

Lajes Approach: 135.000
Lajes Ground: 121.900
Lajes Tower: 122.100

LPMA Approach (Archives)
Madeira, Portugal

Feed Status: UP
Listen in your browser - HTML5 player(in browser, HTML5)
Click here to listen with your own player(launches your MP3 player)

LPMA 010200Z 33009KT 290V010 9999 FEW015 15/08 Q1016

LPMA Flight Activity (Flightaware)

Listeners: 0 out of 650 total

Madeira Approach: 119.605

LPPR Approach #1 (Archives)
Porto, Portugal

Feed Status: UP
Listen in your browser - HTML5 player(in browser, HTML5)
Click here to listen with your own player(launches your MP3 player)

LPPR 010200Z 11008KT 9999 FEW020 07/04 Q1009

LPPR Flight Activity (Flightaware)

Listeners: 1 out of 650 total

Porto Approach: 121.105

LPPT Approach (Archives)
Lisbon, Portugal

Feed Status: UP
Listen in your browser - HTML5 player(in browser, HTML5)
Click here to listen with your own player(launches your MP3 player)

LPPT 010200Z VRB02KT 9999 FEW020 FEW025TCU 06/06 Q1009

LPPT Flight Activity (Flightaware)

Listeners: 0 out of 650 total

Lisbon Approach: 119.100

LRCL Twr/App #1 (Archives)
Cluj-Napoca, Romania

Feed Status: UP
Listen in your browser - HTML5 player(in browser, HTML5)
Click here to listen with your own player(launches your MP3 player)

LRCL 010200Z VRB02KT CAVOK M07/M09 Q1023

LRCL Flight Activity (Flightaware)

Listeners: 0 out of 650 total

Cluj Approach: 126.425
Cluj Tower: 118.705

LRCL Twr/App/ACC
Cluj-Napoca, Romania

Feed Status: DOWN
Offline since: 2020-04-01 02:36:39 UTC

LRCL 010200Z VRB02KT CAVOK M07/M09 Q1023

Cluj Approach: 126.425
Cluj Tower: 118.705
Napoc ACC: 127.075

LROP Ground (Archives)
Bucharest, Romania

Feed Status: UP
Listen in your browser - HTML5 player(in browser, HTML5)
Click here to listen with your own player(launches your MP3 player)

LROP 010200Z 03004KT CAVOK 01/M09 Q1022 NOSIG

LROP Flight Activity (Flightaware)

Listeners: 0 out of 650 total

Bucharest Ground: 121.855

LROP Radar (Archives)
Bucharest, Romania

Feed Status: UP
Listen in your browser - HTML5 player(in browser, HTML5)
Click here to listen with your own player(launches your MP3 player)

LROP 010200Z 03004KT CAVOK 01/M09 Q1022 NOSIG

LROP Flight Activity (Flightaware)

Listeners: 0 out of 650 total

Bucharest Radar (Arges Mid sector): 121.175
Bucharest Radar (Arges Top Sector): 123.265
Bucharest Radar (Lomos Top Sector): 132.865

LROP Tower/Approach (Archives)
Bucharest, Romania

Feed Status: UP
Listen in your browser - HTML5 player(in browser, HTML5)
Click here to listen with your own player(launches your MP3 player)

LROP 010200Z 03004KT CAVOK 01/M09 Q1022 NOSIG

LROP Flight Activity (Flightaware)

Listeners: 0 out of 650 total

Bucharest Approach: 119.415
Bucharest Director: 127.155
Bucharest Tower: 118.805

LROP Twr/App/Radar (Archives)
Bucharest, Romania

Feed Status: UP
Listen in your browser - HTML5 player(in browser, HTML5)
Click here to listen with your own player(launches your MP3 player)

LROP 010200Z 03004KT CAVOK 01/M09 Q1022 NOSIG

LROP Flight Activity (Flightaware)

Listeners: 2 out of 650 total

Bucharest Approach: 119.415
Bucharest Director: 127.155
Bucharest Radar (Arges Mid sector): 121.175
Bucharest Radar (Arges Top Sector): 123.265
Bucharest Radar (Lomos Top Sector): 132.865
Bucharest Tower: 118.805

LRSB Tower/CTAF (Archives)
Sibiu, Romania

Feed Status: UP
Listen in your browser - HTML5 player(in browser, HTML5)
Click here to listen with your own player(launches your MP3 player)

LRSB 010200Z VRB01KT 8000 BKN066 M04/M04 Q1021

LRSB Flight Activity (Flightaware)

Listeners: 0 out of 650 total

Sibiu Tower: 121.305

LRTR Tower (Archives)
Timisoara, Romania

Feed Status: UP
Listen in your browser - HTML5 player(in browser, HTML5)
Click here to listen with your own player(launches your MP3 player)

LRTR 010200Z VRB02KT CAVOK M03/M06 Q1022 NOSIG

LRTR Flight Activity (Flightaware)

Listeners: 0 out of 650 total

ARAD Approach: 127.250
Timisoara Tower: 120.100

LSGS Gnd/Twr/App (Archives)
Sion, Switzerland

Feed Status: UP
Listen in your browser - HTML5 player(in browser, HTML5)
Click here to listen with your own player(launches your MP3 player)

LSGS 010220Z AUTO VRB01KT CAVOK 02/M01 Q1019

LSGS Flight Activity (Flightaware)

Listeners: 0 out of 650 total

Alpine Jet Service Handling: 131.675
Sion Airport Handling: 131.475
Sion Approach (IFR ARR MIL OFF): 126.825
Sion Ground: 121.700
Sion Tower: 118.275

LSMD Tower (Archives)
Dubendorf, Switzerland

Feed Status: UP
Listen in your browser - HTML5 player(in browser, HTML5)
Click here to listen with your own player(launches your MP3 player)

LSZH 010220Z VRB03KT CAVOK M02/M07 Q1021 NOSIG

LSZH Flight Activity (Flightaware)

Listeners: 0 out of 650 total

Dubendorf Tower: 118.975

LSPM AFIS (Archives)
Ambri, Switzerland

Feed Status: UP
Listen in your browser - HTML5 player(in browser, HTML5)
Click here to listen with your own player(launches your MP3 player)

LSPM Flight Activity (Flightaware)

Listeners: 0 out of 650 total

Ambri AFIS: 118.525

LSZA Tower (Archives)
Agno, Switzerland

Feed Status: UP
Listen in your browser - HTML5 player(in browser, HTML5)
Click here to listen with your own player(launches your MP3 player)

LSZA 010220Z AUTO VRB01KT 9999 BKN049 BKN055 04/01 Q1023

LSZA Flight Activity (Flightaware)

Listeners: 0 out of 650 total

Lugano Tower: 120.250

LSZB Twr/App/Dep (Archives)
Bern, Switzerland

Feed Status: UP
Listen in your browser - HTML5 player(in browser, HTML5)
Click here to listen with your own player(launches your MP3 player)

LSZB 010220Z AUTO VRB01KT CAVOK M05/M07 Q1019

LSZB Flight Activity (Flightaware)

Listeners: 0 out of 650 total

LSZB Arrival/Departure: 127.325
LSZB Tower: 121.025

LSZG Tower (Archives)
Grenchen, Switzerland

Feed Status: UP
Listen in your browser - HTML5 player(in browser, HTML5)
Click here to listen with your own player(launches your MP3 player)

LSZG 010220Z AUTO 04004KT CAVOK M02/M07 Q1020

LSZG Flight Activity (Flightaware)

Listeners: 0 out of 650 total

Grenchen Tower: 120.100

LSZH Approach (East) (Archives)
Zurich, Switzerland

Feed Status: UP
Listen in your browser - HTML5 player(in browser, HTML5)
Click here to listen with your own player(launches your MP3 player)

LSZH 010220Z VRB03KT CAVOK M02/M07 Q1021 NOSIG

LSZH Flight Activity (Flightaware)

Listeners: 0 out of 650 total

Zurich Approach (East): 135.225

LSZH Approach (West) (Archives)
Zurich, Switzerland

Feed Status: UP
Listen in your browser - HTML5 player(in browser, HTML5)
Click here to listen with your own player(launches your MP3 player)

LSZH 010220Z VRB03KT CAVOK M02/M07 Q1021 NOSIG

LSZH Flight Activity (Flightaware)

Listeners: 0 out of 650 total

Zurich Approach (West): 118.000

LSZH Apron (South) (Archives)
Zurich, Switzerland

Feed Status: UP
Listen in your browser - HTML5 player(in browser, HTML5)
Click here to listen with your own player(launches your MP3 player)

LSZH 010220Z VRB03KT CAVOK M02/M07 Q1021 NOSIG

LSZH Flight Activity (Flightaware)

Listeners: 0 out of 650 total

Zurich Apron (South): 121.755

LSZH Apron (West) (Archives)
Zurich, Switzerland

Feed Status: UP
Listen in your browser - HTML5 player(in browser, HTML5)
Click here to listen with your own player(launches your MP3 player)

LSZH 010220Z VRB03KT CAVOK M02/M07 Q1021 NOSIG

LSZH Flight Activity (Flightaware)

Listeners: 0 out of 650 total

Zurich Apron (West): 121.855

LSZH Clearance Delivery (Archives)
Zurich, Switzerland

Feed Status: UP
Listen in your browser - HTML5 player(in browser, HTML5)
Click here to listen with your own player(launches your MP3 player)

LSZH 010220Z VRB03KT CAVOK M02/M07 Q1021 NOSIG

LSZH Flight Activity (Flightaware)

Listeners: 0 out of 650 total

Zurich Clearance Delivery: 121.925

LSZH Ground (Archives)
Zurich, Switzerland

Feed Status: UP
Listen in your browser - HTML5 player(in browser, HTML5)
Click here to listen with your own player(launches your MP3 player)

LSZH 010220Z VRB03KT CAVOK M02/M07 Q1021 NOSIG

LSZH Flight Activity (Flightaware)

Listeners: 0 out of 650 total

Zurich Ground: 121.905

LSZH Radar (Archives)
Zurich, Switzerland

Feed Status: UP
Listen in your browser - HTML5 player(in browser, HTML5)
Click here to listen with your own player(launches your MP3 player)

LSZH 010220Z VRB03KT CAVOK M02/M07 Q1021 NOSIG

LSZH Flight Activity (Flightaware)

Listeners: 1 out of 650 total

Zurich Radar ACC (-FL240 East): 133.900
Zurich Radar ACC (-FL240 North): 136.150
Zurich Radar ACC (-FL240 South): 128.050
Zurich Radar ACC (-FL240 West): 135.675
Zurich Radar ACC (FL250-280): 133.050
Zurich Radar ACC (FL290-320): 132.815
Zurich Radar ACC (FL330-350): 134.600
Zurich Radar ACC (FL360+): 133.400

LSZH Radar 132.815 (Archives)
Zurich, Switzerland

Feed Status: UP
Listen in your browser - HTML5 player(in browser, HTML5)
Click here to listen with your own player(launches your MP3 player)

LSZH 010220Z VRB03KT CAVOK M02/M07 Q1021 NOSIG

LSZH Flight Activity (Flightaware)

Listeners: 0 out of 650 total

Zurich Radar: 132.815

LSZH Radar 133.050 (Archives)
Zurich, Switzerland

Feed Status: UP
Listen in your browser - HTML5 player(in browser, HTML5)
Click here to listen with your own player(launches your MP3 player)

LSZH 010220Z VRB03KT CAVOK M02/M07 Q1021 NOSIG

LSZH Flight Activity (Flightaware)

Listeners: 0 out of 650 total

Zurich Radar: 133.050

LSZH Radar 133.405 (Archives)
Zurich, Switzerland

Feed Status: UP
Listen in your browser - HTML5 player(in browser, HTML5)
Click here to listen with your own player(launches your MP3 player)

LSZH 010220Z VRB03KT CAVOK M02/M07 Q1021 NOSIG

LSZH Flight Activity (Flightaware)

Listeners: 0 out of 650 total

Zurich Radar: 133.405

LSZH Radar 133.690 (Archives)
Zurich, Switzerland

Feed Status: UP
Listen in your browser - HTML5 player(in browser, HTML5)
Click here to listen with your own player(launches your MP3 player)

LSZH 010220Z VRB03KT CAVOK M02/M07 Q1021 NOSIG

LSZH Flight Activity (Flightaware)

Listeners: 0 out of 650 total

Zurich Radar: 133.690

LSZH Radar 133.905 (Archives)
Zurich, Switzerland

Feed Status: UP
Listen in your browser - HTML5 player(in browser, HTML5)
Click here to listen with your own player(launches your MP3 player)

LSZH 010220Z VRB03KT CAVOK M02/M07 Q1021 NOSIG

LSZH Flight Activity (Flightaware)

Listeners: 0 out of 650 total

Zurich Radar (Below FL240 East): 133.905

LSZH Radar 134.605 (Archives)
Zurich, Switzerland

Feed Status: UP
Listen in your browser - HTML5 player(in browser, HTML5)
Click here to listen with your own player(launches your MP3 player)

LSZH 010220Z VRB03KT CAVOK M02/M07 Q1021 NOSIG

LSZH Flight Activity (Flightaware)

Listeners: 0 out of 650 total

Zurich Radar (FL330-350): 134.605

LSZH Radar 135.680 (Archives)
Zurich, Switzerland

Feed Status: UP
Listen in your browser - HTML5 player(in browser, HTML5)
Click here to listen with your own player(launches your MP3 player)

LSZH 010220Z VRB03KT CAVOK M02/M07 Q1021 NOSIG

LSZH Flight Activity (Flightaware)

Listeners: 0 out of 650 total


LSZH Radar 136.155 (Archives)
Zurich, Switzerland

Feed Status: UP
Listen in your browser - HTML5 player(in browser, HTML5)
Click here to listen with your own player(launches your MP3 player)

LSZH 010220Z VRB03KT CAVOK M02/M07 Q1021 NOSIG

LSZH Flight Activity (Flightaware)

Listeners: 0 out of 650 total

Zurich Radar (Below FL240 North): 136.155

LSZH Tower (Archives)
Zurich, Switzerland

Feed Status: UP
Listen in your browser - HTML5 player(in browser, HTML5)
Click here to listen with your own player(launches your MP3 player)

LSZH 010220Z VRB03KT CAVOK M02/M07 Q1021 NOSIG

LSZH Flight Activity (Flightaware)

Listeners: 1 out of 650 total

Zurich Tower: 118.100

LSZH Tower (14/32) (Archives)
Zurich, Switzerland

Feed Status: UP
Listen in your browser - HTML5 player(in browser, HTML5)
Click here to listen with your own player(launches your MP3 player)

LSZH 010220Z VRB03KT CAVOK M02/M07 Q1021 NOSIG

LSZH Flight Activity (Flightaware)

Listeners: 1 out of 650 total

Zurich Tower (Rwy 14 App/32 Takeoff): 120.225

LSZH Twr/Gnd (backup) (Archives)
Zurich, Switzerland

Feed Status: UP
Listen in your browser - HTML5 player(in browser, HTML5)
Click here to listen with your own player(launches your MP3 player)

LSZH 010220Z VRB03KT CAVOK M02/M07 Q1021 NOSIG

LSZH Flight Activity (Flightaware)

Listeners: 0 out of 650 total

Zurich Twr/Gnd (backup): 119.700

LSZL Tower (Archives)
Locarno, Switzerland

Feed Status: UP
Listen in your browser - HTML5 player(in browser, HTML5)
Click here to listen with your own player(launches your MP3 player)

LSZL 010220Z AUTO 00000KT 9999NDV BKN037 04/01 Q1023 RMK

LSZL Flight Activity (Flightaware)

Listeners: 0 out of 650 total


LSZN CTAF (Archives)
Zurich, Switzerland

Feed Status: UP
Listen in your browser - HTML5 player(in browser, HTML5)
Click here to listen with your own player(launches your MP3 player)

LSZN Flight Activity (Flightaware)

Listeners: 0 out of 650 total

Hausen am Albis CTAF: 130.775

LSZR Tower (Archives)
Altenrhein, Switzerland

Feed Status: UP
Listen in your browser - HTML5 player(in browser, HTML5)
Click here to listen with your own player(launches your MP3 player)

LSZR 010220Z AUTO VRB02KT CAVOK M04/M05 Q1021

LSZR Flight Activity (Flightaware)

Listeners: 0 out of 650 total

Altenrhein Tower: 135.425

LSZW CTAF (Archives)
Thun, Switzerland

Feed Status: UP
Listen in your browser - HTML5 player(in browser, HTML5)
Click here to listen with your own player(launches your MP3 player)

LSZW Flight Activity (Flightaware)

Listeners: 0 out of 650 total

Thun CTAF/Info: 123.250

LTBA Gnd/Twr/App (Archives)
Istanbul, Turkey

Feed Status: UP
Listen in your browser - HTML5 player(in browser, HTML5)
Click here to listen with your own player(launches your MP3 player)

LTBA 010220Z 02012KT 9999 SCT013 BKN022 07/03 Q1016 NOSIG

LTBA Flight Activity (Flightaware)

Listeners: 0 out of 650 total

Istanbul Approach: 126.425
Istanbul Ground: 121.800
Istanbul Tower: 118.100

LTFJ Del/Gnd/Twr (Archives)
Istanbul, Turkey

Feed Status: UP
Listen in your browser - HTML5 player(in browser, HTML5)
Click here to listen with your own player(launches your MP3 player)

LTFJ 010220Z 03009KT 7000 BKN008 BKN022 06/04 Q1016 NOSIG

LTFJ Flight Activity (Flightaware)

Listeners: 0 out of 650 total

Gokcen Clearance Delivery: 122.625
Gokcen Ground: 121.750
Gokcen Tower: 118.800

LTFJ Pegasus Dispatch
Istanbul, Turkey

Feed Status: DOWN
Offline since: 2019-11-04 19:23:39 UTC

LTFJ 010220Z 03009KT 7000 BKN008 BKN022 06/04 Q1016 NOSIG

Pegasus Dispatch: 131.750

LUKK ACC #1 (Archives)
Chisinau, Moldova

Feed Status: UP
Listen in your browser - HTML5 player(in browser, HTML5)
Click here to listen with your own player(launches your MP3 player)

LUKK 010230Z 00000KT CAVOK M08/M12 Q1023 R08/CLRD// NOSIG

LUKK Flight Activity (Flightaware)

Listeners: 0 out of 650 total

Chisinau ACC: 130.975

LUKK ACC #2 (Archives)
Chisinau, Moldova

Feed Status: UP
Listen in your browser - HTML5 player(in browser, HTML5)
Click here to listen with your own player(launches your MP3 player)

LUKK 010230Z 00000KT CAVOK M08/M12 Q1023 R08/CLRD// NOSIG

LUKK Flight Activity (Flightaware)

Listeners: 0 out of 650 total

Chisinau ACC: 128.975

LUKK Air to Air (Archives)
Chisinau, Moldova

Feed Status: UP
Listen in your browser - HTML5 player(in browser, HTML5)
Click here to listen with your own player(launches your MP3 player)

LUKK 010230Z 00000KT CAVOK M08/M12 Q1023 R08/CLRD// NOSIG

LUKK Flight Activity (Flightaware)

Listeners: 0 out of 650 total

Chisinau Air to Air: 123.450

LUKK Alternate (Archives)
Chisinau, Moldova

Feed Status: UP
Listen in your browser - HTML5 player(in browser, HTML5)
Click here to listen with your own player(launches your MP3 player)

LUKK 010230Z 00000KT CAVOK M08/M12 Q1023 R08/CLRD// NOSIG

LUKK Flight Activity (Flightaware)

Listeners: 0 out of 650 total

Chisinau Alternate: 129.725

LUKK Approach #1
Chisinau, Moldova

Feed Status: DOWN
Offline since: 2020-02-11 03:09:41 UTC

LUKK 010230Z 00000KT CAVOK M08/M12 Q1023 R08/CLRD// NOSIG

Chisinau Approach: 133.300

LUKK Approach #2 (Archives)
Chisinau, Moldova

Feed Status: UP
Listen in your browser - HTML5 player(in browser, HTML5)
Click here to listen with your own player(launches your MP3 player)

LUKK 010230Z 00000KT CAVOK M08/M12 Q1023 R08/CLRD// NOSIG

LUKK Flight Activity (Flightaware)

Listeners: 0 out of 650 total

Chisinau Approach: 133.300

LUKK Emergency/Guard (Archives)
Chisinau, Moldova

Feed Status: UP
Listen in your browser - HTML5 player(in browser, HTML5)
Click here to listen with your own player(launches your MP3 player)

LUKK 010230Z 00000KT CAVOK M08/M12 Q1023 R08/CLRD// NOSIG

LUKK Flight Activity (Flightaware)

Listeners: 0 out of 650 total

Emergency/Guard: 121.500

LUKK Ground #1
Chisinau, Moldova

Feed Status: DOWN
Offline since: 2020-02-11 03:08:23 UTC

LUKK 010230Z 00000KT CAVOK M08/M12 Q1023 R08/CLRD// NOSIG

Chisinau Ground: 121.800

LUKK Ground #2 (Archives)
Chisinau, Moldova

Feed Status: UP
Listen in your browser - HTML5 player(in browser, HTML5)
Click here to listen with your own player(launches your MP3 player)

LUKK 010230Z 00000KT CAVOK M08/M12 Q1023 R08/CLRD// NOSIG

LUKK Flight Activity (Flightaware)

Listeners: 0 out of 650 total

Chisinau Ground: 121.800

LUKK Handling (Archives)
Chisinau, Moldova

Feed Status: UP
Listen in your browser - HTML5 player(in browser, HTML5)
Click here to listen with your own player(launches your MP3 player)

LUKK 010230Z 00000KT CAVOK M08/M12 Q1023 R08/CLRD// NOSIG

LUKK Flight Activity (Flightaware)

Listeners: 0 out of 650 total

Chisinau Handling: 131.700

LUKK Tower #2 (Archives)
Chisinau, Moldova

Feed Status: UP
Listen in your browser - HTML5 player(in browser, HTML5)
Click here to listen with your own player(launches your MP3 player)

LUKK 010230Z 00000KT CAVOK M08/M12 Q1023 R08/CLRD// NOSIG

LUKK Flight Activity (Flightaware)

Listeners: 0 out of 650 total

Chisinau Tower: 118.100

LWSK ACC (Lower) (Archives)
Petrovec, Macedonia, Republic of

Feed Status: UP
Listen in your browser - HTML5 player(in browser, HTML5)
Click here to listen with your own player(launches your MP3 player)

LWSK 010200Z 00000KT 9999 -RA SCT016 OVC040 01/M01 Q1017 NOSIG

LWSK Flight Activity (Flightaware)

Listeners: 0 out of 650 total

Skopje Control (Lower): 119.375

LWSK ACC (Upper) (Archives)
Petrovec, Macedonia, Republic of

Feed Status: UP
Listen in your browser - HTML5 player(in browser, HTML5)
Click here to listen with your own player(launches your MP3 player)

LWSK 010200Z 00000KT 9999 -RA SCT016 OVC040 01/M01 Q1017 NOSIG

LWSK Flight Activity (Flightaware)

Listeners: 0 out of 650 total

Skopje Control (Upper): 120.015

LWSK Approach (Archives)
Petrovec, Macedonia, Republic of

Feed Status: UP
Listen in your browser - HTML5 player(in browser, HTML5)
Click here to listen with your own player(launches your MP3 player)

LWSK 010200Z 00000KT 9999 -RA SCT016 OVC040 01/M01 Q1017 NOSIG

LWSK Flight Activity (Flightaware)

Listeners: 0 out of 650 total

Skopje Approach/Departure: 120.300

LWSK ATIS (Archives)
Petrovec, Macedonia, Republic of

Feed Status: UP
Listen in your browser - HTML5 player(in browser, HTML5)
Click here to listen with your own player(launches your MP3 player)

LWSK 010200Z 00000KT 9999 -RA SCT016 OVC040 01/M01 Q1017 NOSIG

LWSK Flight Activity (Flightaware)

Listeners: 0 out of 650 total

Skopje ATIS: 130.125

LWSK Tower (Archives)
Petrovec, Macedonia, Republic of

Feed Status: UP
Listen in your browser - HTML5 player(in browser, HTML5)
Click here to listen with your own player(launches your MP3 player)

LWSK 010200Z 00000KT 9999 -RA SCT016 OVC040 01/M01 Q1017 NOSIG

LWSK Flight Activity (Flightaware)

Listeners: 0 out of 650 total

Skopje Tower: 118.500

LYNI Twr/App (Archives)
Nis, Serbia

Feed Status: UP
Listen in your browser - HTML5 player(in browser, HTML5)
Click here to listen with your own player(launches your MP3 player)

LYNI 010200Z 33009KT 6000 +SN SCT008 OVC025 M00/M01 Q1019 NOSIG

LYNI Flight Activity (Flightaware)

Listeners: 0 out of 650 total

Nis Approach: 119.525
Nis Approach/Tower (Alternate): 136.075
Nis Tower: 118.950

LZIB Tower
Bratislava, Slovakia

Feed Status: DOWN
Offline since: 2020-03-04 10:39:39 UTC

LZIB 010200Z 27005KT CAVOK M01/M05 Q1024

Stefanik Tower: 118.300

LZKZ Gnd/Twr/App (Archives)
Kosice, Slovakia

Feed Status: UP
Listen in your browser - HTML5 player(in browser, HTML5)
Click here to listen with your own player(launches your MP3 player)

LZKZ 010200Z 05005KT CAVOK M04/M09 Q1024

LZKZ Flight Activity (Flightaware)

Listeners: 1 out of 650 total

Kosice Approach: 129.350
Kosice Approach (backup): 119.850
Kosice Ground: 121.700
Kosice Handling: 131.850
Kosice Tower: 120.400

LZNI CTAF (Archives)
Nitra, Slovakia

Feed Status: UP
Listen in your browser - HTML5 player(in browser, HTML5)
Click here to listen with your own player(launches your MP3 player)

LZNI Flight Activity (Flightaware)

Listeners: 0 out of 650 total

Nitra Traffic Radio: 123.405

LZPE CTAF/UNICOM (Archives)
Prievidza, Slovakia

Feed Status: UP
Listen in your browser - HTML5 player(in browser, HTML5)
Click here to listen with your own player(launches your MP3 player)

LZPE Flight Activity (Flightaware)

Listeners: 0 out of 650 total

Prievidza CTAF/UNICOM: 123.055

LZPP Ground/Tower (Archives)
Piestany, Slovakia

Feed Status: UP
Listen in your browser - HTML5 player(in browser, HTML5)
Click here to listen with your own player(launches your MP3 player)

LZPP 010200Z AUTO VRB01KT 9999 NCD M05/M07 Q1024

LZPP Flight Activity (Flightaware)

Listeners: 0 out of 650 total

Piestany Ground: 121.700
Piestany Tower: 118.575

LZPT CTAF
Partizanske, Slovakia

Feed Status: DOWN
Offline since: 2020-02-23 23:33:40 UTC

Male Bielice CTAF: 123.500

MDPP App/Dep (Archives)
Puerto Plata, Dominican Republic

Feed Status: UP
Listen in your browser - HTML5 player(in browser, HTML5)
Click here to listen with your own player(launches your MP3 player)

MDPP 010000Z 00000KT 9999 FEW018 25/22 Q1012

MDPP Flight Activity (Flightaware)

Listeners: 0 out of 650 total

Puerto Plata Approach/Departure: 119.000

MDPP Ground/Center (Archives)
Puerto Plata, Dominican Republic

Feed Status: UP
Listen in your browser - HTML5 player(in browser, HTML5)
Click here to listen with your own player(launches your MP3 player)

MDPP 010000Z 00000KT 9999 FEW018 25/22 Q1012

MDPP Flight Activity (Flightaware)

Listeners: 0 out of 650 total

Puerto Plata Ground: 121.900
Puerto Plata Tower: 118.000
Santo Domingo Center: 124.300

MDPP Ground/Tower/Center (Archives)
Puerto Plata, Dominican Republic

Feed Status: UP
Listen in your browser - HTML5 player(in browser, HTML5)
Click here to listen with your own player(launches your MP3 player)

MDPP 010000Z 00000KT 9999 FEW018 25/22 Q1012

MDPP Flight Activity (Flightaware)

Listeners: 0 out of 650 total

Puerto Plata Ground: 121.900
Puerto Plata Tower: 118.000
Santo Domingo Center: 124.300

MDPP Tower (Archives)
Puerto Plata, Dominican Republic

Feed Status: UP
Listen in your browser - HTML5 player(in browser, HTML5)
Click here to listen with your own player(launches your MP3 player)

MDPP 010000Z 00000KT 9999 FEW018 25/22 Q1012

MDPP Flight Activity (Flightaware)

Listeners: 0 out of 650 total

Puerto Plata Tower: 118.000

MHLC Gnd/Twr/Center (Archives)
La Ceiba, Honduras

Feed Status: UP
Listen in your browser - HTML5 player(in browser, HTML5)
Click here to listen with your own player(launches your MP3 player)

MHLC 170400Z 11003KT 9999 FEW024 23/22 Q1017 A3003 NOSIG

MHLC Flight Activity (Flightaware)

Listeners: 0 out of 650 total

CENAMER: 123.900
CENAMER: 124.300
Goloson Ground: 121.900
Goloson Tower: 118.500
La Ceiba Radio: 128.900

MHRO Gnd/Twr/App/Center (Archives)
Roatan, Honduras

Feed Status: UP
Listen in your browser - HTML5 player(in browser, HTML5)
Click here to listen with your own player(launches your MP3 player)

MHRO 312000Z METAR MHTG 312000Z

MHRO Flight Activity (Flightaware)

Listeners: 0 out of 650 total

CENAMER (Center): 124.300
La Ceiba Radio: 128.900
Roatan Ground: 121.600
Roatan Tower: 118.100

MHTG ATIS (Archives)
Tegucigalpa, Honduras

Feed Status: UP
Listen in your browser - HTML5 player(in browser, HTML5)
Click here to listen with your own player(launches your MP3 player)

MHTG 312200Z 03010KT 8000 BKN034 32/08 Q1013 A2992

MHTG Flight Activity (Flightaware)

Listeners: 0 out of 650 total

Toncontin ATIS: 127.750

MHTG Gnd/Twr/App/Ctr/Ops (Archives)
Tegucigalpa, Honduras

Feed Status: UP
Listen in your browser - HTML5 player(in browser, HTML5)
Click here to listen with your own player(launches your MP3 player)

MHTG 312200Z 03010KT 8000 BKN034 32/08 Q1013 A2992

MHTG Flight Activity (Flightaware)

Listeners: 0 out of 650 total

American Airlines Ops: 130.700
ARINC ACARS: 131.550
Cenamer Center: 123.900
Cenamer Center: 124.300
Cenamer Center: 124.100
CMP Ops: 129.925
Continental Airlines Ops: 129.925
FAH Ground: 122.900
Taca Ops: 131.300
Taca Ops Sal: 130.300
Tecnologias Unidas: 133.000
Tegucigalpa RDO: 126.700
Toncontin Approach: 119.100
Toncontin Ground: 121.900
Toncontin Tower: 118.700

MMAN Tower
Monterrey, Mexico

Feed Status: DOWN
Offline since: 2020-02-14 03:08:22 UTC

MMAN 010140Z 11005KT 12SM SCT080 BKN200 27/03 A3000 RMK 8/072

Monterrey Tower: 118.600

MMCU Twr/App (Archives)
Chihuahua, Mexico

Feed Status: UP
Listen in your browser - HTML5 player(in browser, HTML5)
Click here to listen with your own player(launches your MP3 player)

MMCU 010141Z 09009KT 10SM FEW080 BKN200 22/M10 A3004 RMK 8/072

MMCU Flight Activity (Flightaware)

Listeners: 0 out of 650 total

Chihuahua Approach: 121.000
Chihuahua Tower: 118.400

MMGL Twr/App (Archives)
Guadalajara, Mexico

Feed Status: UP
Listen in your browser - HTML5 player(in browser, HTML5)
Click here to listen with your own player(launches your MP3 player)

MMGL 010142Z 24012G25KT 10SM SKC 27/03 A3003 RMK CI

MMGL Flight Activity (Flightaware)

Listeners: 9 out of 650 total

Guadalajara Approach: 120.800
Guadalajara Tower: 118.100

MMHO App/Dep
Hermosillo, Mexico

Feed Status: DOWN
Offline since: 2019-11-27 01:26:40 UTC

MMHO 010140Z 24004KT 10SM BKN100 OVC200 27/04 A2986 RMK 8/027 HZY

Hermosillo Approach/Departure: 121.400

MMHO Tower
Hermosillo, Mexico

Feed Status: DOWN
Offline since: 2019-11-27 01:26:40 UTC

MMHO 010140Z 24004KT 10SM BKN100 OVC200 27/04 A2986 RMK 8/027 HZY

Hermosillo Tower: 118.700

MMLP Twr/App/Center (Archives)
La Paz, Mexico

Feed Status: UP
Listen in your browser - HTML5 player(in browser, HTML5)
Click here to listen with your own player(launches your MP3 player)

MMLP 010153Z 31004KT 10SM FEW100 BKN220 21/11 A2991 RMK 8/018

MMLP Flight Activity (Flightaware)

Listeners: 0 out of 650 total

La Paz Approach: 120.600
La Paz Tower: 118.100
Mazatlan Center: 128.000
Mazatlan Center: 124.400
Mazatlan Center: 128.300
Mazatlan Center: 124.200
Mazatlan Center: 126.300
Mazatlan Center: 126.500
San Jose Approach: 120.900

MMMD Tower/Approach (Archives)
Merida, Mexico

Feed Status: UP
Listen in your browser - HTML5 player(in browser, HTML5)
Click here to listen with your own player(launches your MP3 player)

MMMD 010143Z 35006KT 7SM SKC 27/22 A2987

MMMD Flight Activity (Flightaware)

Listeners: 1 out of 650 total

Merida Approach: 121.200
Merida Tower: 118.300

MMMM Tower (Archives)
Morelia, Mexico

Feed Status: UP
Listen in your browser - HTML5 player(in browser, HTML5)
Click here to listen with your own player(launches your MP3 player)

MMMM 010225Z 00000KT 7SM FEW030 SCT230 22/08 A3012 RMK 8/502 HZY CB E

MMMM Flight Activity (Flightaware)

Listeners: 0 out of 650 total

Morelia Tower: 118.500

MMMX Approach (Archives)
Mexico City, Mexico

Feed Status: UP
Listen in your browser - HTML5 player(in browser, HTML5)
Click here to listen with your own player(launches your MP3 player)

MMMX 010145Z 03013KT 8SM SCT020 21/04 A3025 NOSIG RMK 8/400 HZY ISOL AC

MMMX Flight Activity (Flightaware)

Listeners: 5 out of 650 total

Mexico City Approach: 121.200

MMMX Twr/App (Archives)
Mexico City, Mexico

Feed Status: UP
Listen in your browser - HTML5 player(in browser, HTML5)
Click here to listen with your own player(launches your MP3 player)

MMMX 010145Z 03013KT 8SM SCT020 21/04 A3025 NOSIG RMK 8/400 HZY ISOL AC

MMMX Flight Activity (Flightaware)

Listeners: 5 out of 650 total

Mexico City Approach: 121.200
Mexico City Departure (East): 120.500
Mexico City Departure (West): 129.100
Mexico City Final Approach: 119.750
Mexico City Helicopters: 118.150
Mexico City Terminal: 129.600
Mexico City Tower: 118.550

MMMY Tower/Approach (Archives)
Monterrey, Mexico

Feed Status: UP
Listen in your browser - HTML5 player(in browser, HTML5)
Click here to listen with your own player(launches your MP3 player)

MMMY 010140Z 10008KT 10SM SCT070 BKN200 28/03 A2995 RMK 8/072

MMMY Flight Activity (Flightaware)

Listeners: 1 out of 650 total

Monterrey Approach/Departure: 119.750
Monterrey Tower: 118.100

MMQT Tower/App
Queretaro, Mexico

Feed Status: DOWN
Offline since: 2020-01-27 20:28:06 UTC

MMQT 010146Z 07012KT 6SM FEW020 SCT250 20/13 A3021 RMK 8/505 HZY

Queretaro Approach: 127.200
Queretaro Tower: 118.950

MMSP Gnd/Twr/App/Center (Archives)
San Luis Potosi, Mexico

Feed Status: UP
Listen in your browser - HTML5 player(in browser, HTML5)
Click here to listen with your own player(launches your MP3 player)

MMSP 010148Z 12007KT 7SM SCT230 20/14 A3017 RMK 8/001 HZY

MMSP Flight Activity (Flightaware)

Listeners: 0 out of 650 total

AMX Ground Ops: 131.000
Mexico Center (North, Sector 6): 126.000
Mexico Center (Northwest, Sector 7): 123.900
Mexico Center (West, Sector 5): 125.100
Potosi Approach: 127.500
Potosi Tower: 118.900
TAO Ground Ops: 133.600

MMTC Twr/App/Center (Archives)
Torreon, Mexico

Feed Status: UP
Listen in your browser - HTML5 player(in browser, HTML5)
Click here to listen with your own player(launches your MP3 player)

MMTC 010140Z 36007KT 10SM SCT030 BKN080 BKN200 28/07 A2997 RMK 8/572 HZY

MMTC Flight Activity (Flightaware)

Listeners: 0 out of 650 total

Mazatlan Center: 124.200
Mazatlan Center: 124.400
Mazatlan Center: 128.000
Mexico Center: 123.900
Monterrey Center: 125.600
Monterrey Center: 125.425
Monterrey Center: 127.400
Torreon Approach: 119.500
Torreon Tower: 118.500

MMTJ Approach (Archives)
Tijuana, Mexico

Feed Status: UP
Listen in your browser - HTML5 player(in browser, HTML5)
Click here to listen with your own player(launches your MP3 player)

MMTJ 010146Z 30007KT 8SM OVC180 16/12 A2995 RMK 8/007 HZY

MMTJ Flight Activity (Flightaware)

Listeners: 1 out of 650 total

Tijuana Approach: 120.300

MMTJ Twr/Ramp (Archives)
Tijuana, Mexico

Feed Status: UP
Listen in your browser - HTML5 player(in browser, HTML5)
Click here to listen with your own player(launches your MP3 player)

MMTJ 010146Z 30007KT 8SM OVC180 16/12 A2995 RMK 8/007 HZY

MMTJ Flight Activity (Flightaware)

Listeners: 1 out of 650 total

Tijuana Ramp: 126.100
Tijuana Tower: 118.100

MROC Del/Gnd/Twr (Archives)
San Jose, Costa Rica

Feed Status: UP
Listen in your browser - HTML5 player(in browser, HTML5)
Click here to listen with your own player(launches your MP3 player)

MROC 010200Z 10004KT 060V130 CAVOK 23/18 A2999 NOSIG

MROC Flight Activity (Flightaware)

Listeners: 2 out of 650 total

Coco Clearance Delivery/Ground: 121.900
Coco Tower: 118.600

MROC Del/Gnd/Twr/App/Center/Misc (Archives)
San Jose, Costa Rica

Feed Status: UP
Listen in your browser - HTML5 player(in browser, HTML5)
Click here to listen with your own player(launches your MP3 player)

MROC 010200Z 10004KT 060V130 CAVOK 23/18 A2999 NOSIG

MROC Flight Activity (Flightaware)

Listeners: 6 out of 650 total

Central American Center (CENAMER Control): 124.100
Coco Center (Control over CR Airspace): 119.600
Coco Clearance Delivery: 121.300
Coco Ground: 121.900
Coco Terminal Control: 120.500
Coco Tower: 118.600
Coco UNICOM: 126.800
SYQ Ground: 121.700
SYQ Tower: 118.300

MSLP Gnd/Twr/App (Archives)
San Salvador, El Salvador

Feed Status: UP
Listen in your browser - HTML5 player(in browser, HTML5)
Click here to listen with your own player(launches your MP3 player)

MSLP 010150Z 24004KT 9999 FEW023 SCT037 29/23 Q1010 A2983 NOSIG RMK FU S

MSLP Flight Activity (Flightaware)

Listeners: 0 out of 650 total

Comalapa Ground: 121.700
Comalapa Tower: 118.000
Compalapa Approach: 119.900

MSLP Gnd/Twr/App/Center (Archives)
San Salvador, El Salvador

Feed Status: UP
Listen in your browser - HTML5 player(in browser, HTML5)
Click here to listen with your own player(launches your MP3 player)

MSLP 010150Z 24004KT 9999 FEW023 SCT037 29/23 Q1010 A2983 NOSIG RMK FU S

MSLP Flight Activity (Flightaware)

Listeners: 0 out of 650 total

Avianca Ops: 123.500
CCA: 119.300
CENAMER: 124.100
Comalapa Authorizations: 121.250
Comalapa Departure: 123.900
Comalapa Ground: 121.700
Comalapa Tower: 118.000
Compalapa Approach: 119.900
Ilopango Tower: 118.300
TACA Ops: 130.500

MSSS Tower
San Salvador, El Salvador

Feed Status: DOWN
Offline since: 2020-03-31 02:26:22 UTC

MSSS 312150Z 19011KT 9999 FEW040 29/21 Q1011 A2988

Ilopango Tower: 118.300

MUFH Havana FIR (App/Center) (Archives)
Havana, Cuba

Feed Status: UP
Listen in your browser - HTML5 player(in browser, HTML5)
Click here to listen with your own player(launches your MP3 player)

MUFH Flight Activity (Flightaware)

Listeners: 1 out of 650 total

Hava Approach: 120.300
Havana Center: 120.250
Havana Center: 123.700
Havana Center: 124.550
Havana Center: 133.700
Havana Center: 135.100

OKBK Gnd/Twr/App/Radar (Archives)
Kuwait City, Kuwait

Feed Status: UP
Listen in your browser - HTML5 player(in browser, HTML5)
Click here to listen with your own player(launches your MP3 player)

OKBK 010200Z 16007KT CAVOK 19/11 Q1013 NOSIG


Listeners: 4 out of 650 total

Kuwait Approach: 121.300
Kuwait Approach: 124.800
Kuwait Ground: 121.700
Kuwait Radar (Center): 125.300
Kuwait Tower: 118.300

OPKC Gnd/Twr/Radar (Archives)
Karachi, Pakistan

Feed Status: UP
Listen in your browser - HTML5 player(in browser, HTML5)
Click here to listen with your own player(launches your MP3 player)

OPKC 010200Z 28006KT 5000 FU FEW020 24/21 Q1013 NOSIG


Listeners: 0 out of 650 total

Karachi Ground: 121.600
Karachi Radar: 125.500
Karachi Tower: 118.300

RCTP Approach (Archives)
Taipei, Taiwan

Feed Status: UP
Listen in your browser - HTML5 player(in browser, HTML5)
Click here to listen with your own player(launches your MP3 player)

RCTP 010200Z 03015KT 9999 FEW008 BKN020 BKN025 18/15 Q1019 NOSIG RMK A3010

RCTP Flight Activity (Flightaware)

Listeners: 3 out of 650 total

Emergency/Guard: 121.500
Taipei Approach: 125.100
Taipei Approach: 125.600
Taipei Approach: 128.500

RCTP Tower (Archives)
Taipei, Taiwan

Feed Status: UP
Listen in your browser - HTML5 player(in browser, HTML5)
Click here to listen with your own player(launches your MP3 player)

RCTP 010200Z 03015KT 9999 FEW008 BKN020 BKN025 18/15 Q1019 NOSIG RMK A3010

RCTP Flight Activity (Flightaware)

Listeners: 0 out of 650 total

Taipei Tower: 118.700

RJAA Approach (Archives)
Tokyo, Japan

Feed Status: UP
Listen in your browser - HTML5 player(in browser, HTML5)
Click here to listen with your own player(launches your MP3 player)

RJAA 010200Z 05008KT 020V080 4500 -RA BR FEW003 BKN006 OVC080 14/13 Q1011 NOSIG

RJAA Flight Activity (Flightaware)

Listeners: 2 out of 650 total

Tokyo Approach: 124.400
Tokyo Approach: 127.700

RJAA Clearance Delivery (Archives)
Tokyo, Japan

Feed Status: UP
Listen in your browser - HTML5 player(in browser, HTML5)
Click here to listen with your own player(launches your MP3 player)

RJAA 010200Z 05008KT 020V080 4500 -RA BR FEW003 BKN006 OVC080 14/13 Q1011 NOSIG

RJAA Flight Activity (Flightaware)

Listeners: 0 out of 650 total

Narita Clearance Delivery (Asia/Pacific): 121.650
Narita Clearance Delivery (US/Europe): 121.900

RJAA Clearance Delivery #1 (Archives)
Tokyo, Japan

Feed Status: UP
Listen in your browser - HTML5 player(in browser, HTML5)
Click here to listen with your own player(launches your MP3 player)

RJAA 010200Z 05008KT 020V080 4500 -RA BR FEW003 BKN006 OVC080 14/13 Q1011 NOSIG

RJAA Flight Activity (Flightaware)

Listeners: 0 out of 650 total

Narita Clearance Delivery (Asia/Pacific): 121.650

RJAA Clearance Delivery #2 (Archives)
Tokyo, Japan

Feed Status: UP
Listen in your browser - HTML5 player(in browser, HTML5)
Click here to listen with your own player(launches your MP3 player)

RJAA 010200Z 05008KT 020V080 4500 -RA BR FEW003 BKN006 OVC080 14/13 Q1011 NOSIG

RJAA Flight Activity (Flightaware)

Listeners: 0 out of 650 total

Narita Clearance Delivery (US/Europe): 121.900

RJAA Company Channels (Archives)
Tokyo, Japan

Feed Status: UP
Listen in your browser - HTML5 player(in browser, HTML5)
Click here to listen with your own player(launches your MP3 player)

RJAA 010200Z 05008KT 020V080 4500 -RA BR FEW003 BKN006 OVC080 14/13 Q1011 NOSIG

RJAA Flight Activity (Flightaware)

Listeners: 0 out of 650 total

Ops: 130.450
Ops: 130.550
Ops: 130.900
Ops: 131.025
Ops: 131.100
Ops: 131.200
Ops: 131.700
Ops: 131.750

RJAA Departure (Archives)
Tokyo, Japan

Feed Status: UP
Listen in your browser - HTML5 player(in browser, HTML5)
Click here to listen with your own player(launches your MP3 player)

RJAA 010200Z 05008KT 020V080 4500 -RA BR FEW003 BKN006 OVC080 14/13 Q1011 NOSIG

RJAA Flight Activity (Flightaware)

Listeners: 0 out of 650 total

Tokyo Departure: 119.600
Tokyo Departure: 124.200

RJAA Departure #1 (Archives)
Tokyo, Japan

Feed Status: UP
Listen in your browser - HTML5 player(in browser, HTML5)
Click here to listen with your own player(launches your MP3 player)

RJAA 010200Z 05008KT 020V080 4500 -RA BR FEW003 BKN006 OVC080 14/13 Q1011 NOSIG

RJAA Flight Activity (Flightaware)

Listeners: 1 out of 650 total

Tokyo Departure: 124.200

RJAA Departure #2 (Archives)
Tokyo, Japan

Feed Status: UP
Listen in your browser - HTML5 player(in browser, HTML5)
Click here to listen with your own player(launches your MP3 player)

RJAA 010200Z 05008KT 020V080 4500 -RA BR FEW003 BKN006 OVC080 14/13 Q1011 NOSIG

RJAA Flight Activity (Flightaware)

Listeners: 0 out of 650 total

Tokyo Departure: 119.600

RJAA Emergency/Guard (Archives)
Tokyo, Japan

Feed Status: UP
Listen in your browser - HTML5 player(in browser, HTML5)
Click here to listen with your own player(launches your MP3 player)

RJAA 010200Z 05008KT 020V080 4500 -RA BR FEW003 BKN006 OVC080 14/13 Q1011 NOSIG

RJAA Flight Activity (Flightaware)

Listeners: 0 out of 650 total

Emergency/Guard: 121.500

RJAA Ground #1 (Archives)
Tokyo, Japan

Feed Status: UP
Listen in your browser - HTML5 player(in browser, HTML5)
Click here to listen with your own player(launches your MP3 player)

RJAA 010200Z 05008KT 020V080 4500 -RA BR FEW003 BKN006 OVC080 14/13 Q1011 NOSIG

RJAA Flight Activity (Flightaware)

Listeners: 1 out of 650 total

Narita Ground: 121.850

RJAA Ground #2 (Archives)
Tokyo, Japan

Feed Status: UP
Listen in your browser - HTML5 player(in browser, HTML5)
Click here to listen with your own player(launches your MP3 player)

RJAA 010200Z 05008KT 020V080 4500 -RA BR FEW003 BKN006 OVC080 14/13 Q1011 NOSIG

RJAA Flight Activity (Flightaware)

Listeners: 1 out of 650 total

Narita Ground: 121.950

RJAA Radar 119.025 (Archives)
Tokyo, Japan

Feed Status: UP
Listen in your browser - HTML5 player(in browser, HTML5)
Click here to listen with your own player(launches your MP3 player)

RJAA 010200Z 05008KT 020V080 4500 -RA BR FEW003 BKN006 OVC080 14/13 Q1011 NOSIG

RJAA Flight Activity (Flightaware)

Listeners: 0 out of 650 total

Tokyo Radar: 119.025

RJAA Radar 120.2 (Archives)
Tokyo, Japan

Feed Status: UP
Listen in your browser - HTML5 player(in browser, HTML5)
Click here to listen with your own player(launches your MP3 player)

RJAA 010200Z 05008KT 020V080 4500 -RA BR FEW003 BKN006 OVC080 14/13 Q1011 NOSIG

RJAA Flight Activity (Flightaware)

Listeners: 0 out of 650 total

Tokyo Radar: 120.200

RJAA Radar 120.6 (Archives)
Tokyo, Japan

Feed Status: UP
Listen in your browser - HTML5 player(in browser, HTML5)
Click here to listen with your own player(launches your MP3 player)

RJAA 010200Z 05008KT 020V080 4500 -RA BR FEW003 BKN006 OVC080 14/13 Q1011 NOSIG

RJAA Flight Activity (Flightaware)

Listeners: 0 out of 650 total

Tokyo Radar: 120.600

RJAA Radar 132.1 (Archives)
Tokyo, Japan

Feed Status: UP
Listen in your browser - HTML5 player(in browser, HTML5)
Click here to listen with your own player(launches your MP3 player)

RJAA 010200Z 05008KT 020V080 4500 -RA BR FEW003 BKN006 OVC080 14/13 Q1011 NOSIG

RJAA Flight Activity (Flightaware)

Listeners: 0 out of 650 total

Tokyo Radar: 132.100

RJAA Radar 133.35 (Archives)
Tokyo, Japan

Feed Status: UP
Listen in your browser - HTML5 player(in browser, HTML5)
Click here to listen with your own player(launches your MP3 player)

RJAA 010200Z 05008KT 020V080 4500 -RA BR FEW003 BKN006 OVC080 14/13 Q1011 NOSIG

RJAA Flight Activity (Flightaware)

Listeners: 0 out of 650 total

Tokyo Radar: 133.350

RJAA Ramp #1 (Archives)
Tokyo, Japan

Feed Status: UP
Listen in your browser - HTML5 player(in browser, HTML5)
Click here to listen with your own player(launches your MP3 player)

RJAA 010200Z 05008KT 020V080 4500 -RA BR FEW003 BKN006 OVC080 14/13 Q1011 NOSIG

RJAA Flight Activity (Flightaware)

Listeners: 0 out of 650 total

Narita Ramp: 121.600

RJAA Ramp #2 (Archives)
Tokyo, Japan

Feed Status: UP
Listen in your browser - HTML5 player(in browser, HTML5)
Click here to listen with your own player(launches your MP3 player)

RJAA 010200Z 05008KT 020V080 4500 -RA BR FEW003 BKN006 OVC080 14/13 Q1011 NOSIG

RJAA Flight Activity (Flightaware)

Listeners: 0 out of 650 total

Narita Ramp: 121.750

RJAA TCA (Archives)
Tokyo, Japan

Feed Status: UP
Listen in your browser - HTML5 player(in browser, HTML5)
Click here to listen with your own player(launches your MP3 player)

RJAA 010200Z 05008KT 020V080 4500 -RA BR FEW003 BKN006 OVC080 14/13 Q1011 NOSIG

RJAA Flight Activity (Flightaware)

Listeners: 0 out of 650 total

Tokyo TCA (Terminal Control Area): 119.450

RJAA Tokyo Control (Archives)
Tokyo, Japan

Feed Status: UP
Listen in your browser - HTML5 player(in browser, HTML5)
Click here to listen with your own player(launches your MP3 player)

RJAA 010200Z 05008KT 020V080 4500 -RA BR FEW003 BKN006 OVC080 14/13 Q1011 NOSIG

RJAA Flight Activity (Flightaware)

Listeners: 0 out of 650 total

Tokyo Control: 125.900

RJAA Tower #1 (Archives)
Tokyo, Japan

Feed Status: UP
Listen in your browser - HTML5 player(in browser, HTML5)
Click here to listen with your own player(launches your MP3 player)

RJAA 010200Z 05008KT 020V080 4500 -RA BR FEW003 BKN006 OVC080 14/13 Q1011 NOSIG

RJAA Flight Activity (Flightaware)

Listeners: 2 out of 650 total

Narita Tower (Rwy 16R/34L): 118.200

RJAA Tower #2 (Archives)
Tokyo, Japan

Feed Status: UP
Listen in your browser - HTML5 player(in browser, HTML5)
Click here to listen with your own player(launches your MP3 player)

RJAA 010200Z 05008KT 020V080 4500 -RA BR FEW003 BKN006 OVC080 14/13 Q1011 NOSIG

RJAA Flight Activity (Flightaware)

Listeners: 1 out of 650 total

Narita Tower (Rwy 16L/34R): 118.350

RJAA Tower (Both) (Archives)
Tokyo, Japan

Feed Status: UP
Listen in your browser - HTML5 player(in browser, HTML5)
Click here to listen with your own player(launches your MP3 player)

RJAA 010200Z 05008KT 020V080 4500 -RA BR FEW003 BKN006 OVC080 14/13 Q1011 NOSIG

RJAA Flight Activity (Flightaware)

Listeners: 5 out of 650 total

Narita Tower (Rwy 16L/34R): 118.350
Narita Tower (Rwy 16R/34L): 118.200

RJOO Tower (Archives)
Osaka, Japan

Feed Status: UP
Listen in your browser - HTML5 player(in browser, HTML5)
Click here to listen with your own player(launches your MP3 player)

RJOO 010202Z 07015G25KT 9999 -SHRA FEW008 SCT025 BKN080 15/13 Q1004 RMK 1ST008 3CU025 5AC080 A2967

RJOO Flight Activity (Flightaware)

Listeners: 0 out of 650 total

Osaka Tower: 118.100

RJSF RDO (Archives)
Sukagawa, Japan

Feed Status: UP
Listen in your browser - HTML5 player(in browser, HTML5)
Click here to listen with your own player(launches your MP3 player)

RJSF 010200Z 15008KT 110V170 9999 -RA FEW015 BKN035 BKN060 13/13 Q1012

RJSF Flight Activity (Flightaware)

Listeners: 0 out of 650 total

Fukushima Radio: 118.050

RJTT App/Dep (Archives)
Tokyo, Japan

Feed Status: UP
Listen in your browser - HTML5 player(in browser, HTML5)
Click here to listen with your own player(launches your MP3 player)

RJTT 010200Z 36011KT 4000 -RA BR FEW006 BKN010 13/12 Q1011 TEMPO FEW005 BKN008

RJTT Flight Activity (Flightaware)

Listeners: 3 out of 650 total

Tokyo Approach: 119.100
Tokyo Approach: 119.400
Tokyo Departure: 120.800
Tokyo Departure: 126.000

RJTT Approach (Archives)
Tokyo, Japan

Feed Status: UP
Listen in your browser - HTML5 player(in browser, HTML5)
Click here to listen with your own player(launches your MP3 player)

RJTT 010200Z 36011KT 4000 -RA BR FEW006 BKN010 13/12 Q1011 TEMPO FEW005 BKN008

RJTT Flight Activity (Flightaware)

Listeners: 2 out of 650 total

Tokyo Approach: 119.100
Tokyo Approach: 119.400

RJTT ATIS (Archives)
Tokyo, Japan

Feed Status: UP
Listen in your browser - HTML5 player(in browser, HTML5)
Click here to listen with your own player(launches your MP3 player)

RJTT 010200Z 36011KT 4000 -RA BR FEW006 BKN010 13/12 Q1011 TEMPO FEW005 BKN008

RJTT Flight Activity (Flightaware)

Listeners: 0 out of 650 total

Tokyo ATIS: 128.800

RJTT Company Channels (Archives)
Tokyo, Japan

Feed Status: UP
Listen in your browser - HTML5 player(in browser, HTML5)
Click here to listen with your own player(launches your MP3 player)

RJTT 010200Z 36011KT 4000 -RA BR FEW006 BKN010 13/12 Q1011 TEMPO FEW005 BKN008

RJTT Flight Activity (Flightaware)

Listeners: 13 out of 650 total

Company TBD: 128.500
Company TBD: 131.850
Company TBD: 129.725
Company TBD: 129.700
Company TBD: 131.900
Company TBD: 129.850
Company TBD: 128.975
Company TBD: 123.675
Company TBD: 132.075

RJTT Del/Ground (Archives)
Tokyo, Japan

Feed Status: UP
Listen in your browser - HTML5 player(in browser, HTML5)
Click here to listen with your own player(launches your MP3 player)

RJTT 010200Z 36011KT 4000 -RA BR FEW006 BKN010 13/12 Q1011 TEMPO FEW005 BKN008

RJTT Flight Activity (Flightaware)

Listeners: 1 out of 650 total

Tokyo Clearance Delivery: 121.825
Tokyo Ground: 121.700
Tokyo Ground: 118.225
Tokyo Ground: 121.625
Tokyo Ground: 121.975

RJTT Del/Twr/TCA/Gnd (Archives)
Tokyo, Japan

Feed Status: UP
Listen in your browser - HTML5 player(in browser, HTML5)
Click here to listen with your own player(launches your MP3 player)

RJTT 010200Z 36011KT 4000 -RA BR FEW006 BKN010 13/12 Q1011 TEMPO FEW005 BKN008

RJTT Flight Activity (Flightaware)

Listeners: 1 out of 650 total

Tokyo Clearance Delivery: 121.825
Tokyo Ground: 121.975
Tokyo Ground: 121.625
Tokyo Ground: 121.700
Tokyo Ground: 118.225
Tokyo TCA: 124.750
Tokyo Tower: 118.100
Tokyo Tower: 118.575
Tokyo Tower: 118.725
Tokyo Tower: 124.350

RJTT Departure (Archives)
Tokyo, Japan

Feed Status: UP
Listen in your browser - HTML5 player(in browser, HTML5)
Click here to listen with your own player(launches your MP3 player)

RJTT 010200Z 36011KT 4000 -RA BR FEW006 BKN010 13/12 Q1011 TEMPO FEW005 BKN008

RJTT Flight Activity (Flightaware)

Listeners: 2 out of 650 total

Tokyo Departure: 120.800
Tokyo Departure: 126.000

RJTT Tokyo Control (Archives)
Tokyo, Japan

Feed Status: UP
Listen in your browser - HTML5 player(in browser, HTML5)
Click here to listen with your own player(launches your MP3 player)

RJTT 010200Z 36011KT 4000 -RA BR FEW006 BKN010 13/12 Q1011 TEMPO FEW005 BKN008

RJTT Flight Activity (Flightaware)

Listeners: 11 out of 650 total

Tokyo Control: 133.700
Tokyo Control: 125.900
Tokyo Control: 120.500

RJTT Twr/TCA (Archives)
Tokyo, Japan

Feed Status: UP
Listen in your browser - HTML5 player(in browser, HTML5)
Click here to listen with your own player(launches your MP3 player)

RJTT 010200Z 36011KT 4000 -RA BR FEW006 BKN010 13/12 Q1011 TEMPO FEW005 BKN008

RJTT Flight Activity (Flightaware)

Listeners: 1 out of 650 total

Tokyo TCA: 124.750
Tokyo Tower: 118.100
Tokyo Tower: 118.575
Tokyo Tower: 118.725
Tokyo Tower: 124.350

RJTY Approach (Archives)
Tokyo, Japan

Feed Status: UP
Listen in your browser - HTML5 player(in browser, HTML5)
Click here to listen with your own player(launches your MP3 player)

RJTY 010156Z AUTO 03007KT 5SM -RA BR OVC006 11/11 A2993 RMK AO2 RAE16RAB18 CIG 005 RWY18 SLP141 P0001 T01130111 FZRANO $

RJTY Flight Activity (Flightaware)

Listeners: 3 out of 650 total

Yokota Approach: 118.300
Yokota APproach: 123.800
Yokota Approach: 120.700

RJTY ATIS (Archives)
Tokyo, Japan

Feed Status: UP
Listen in your browser - HTML5 player(in browser, HTML5)
Click here to listen with your own player(launches your MP3 player)

RJTY 010156Z AUTO 03007KT 5SM -RA BR OVC006 11/11 A2993 RMK AO2 RAE16RAB18 CIG 005 RWY18 SLP141 P0001 T01130111 FZRANO $

RJTY Flight Activity (Flightaware)

Listeners: 0 out of 650 total

Yokota ATIS: 126.400

RJTY Ground (Archives)
Tokyo, Japan

Feed Status: UP
Listen in your browser - HTML5 player(in browser, HTML5)
Click here to listen with your own player(launches your MP3 player)

RJTY 010156Z AUTO 03007KT 5SM -RA BR OVC006 11/11 A2993 RMK AO2 RAE16RAB18 CIG 005 RWY18 SLP141 P0001 T01130111 FZRANO $

RJTY Flight Activity (Flightaware)

Listeners: 0 out of 650 total

Yokota Ground: 133.200

RJTY Ground/Tower (Archives)
Tokyo, Japan

Feed Status: UP
Listen in your browser - HTML5 player(in browser, HTML5)
Click here to listen with your own player(launches your MP3 player)

RJTY 010156Z AUTO 03007KT 5SM -RA BR OVC006 11/11 A2993 RMK AO2 RAE16RAB18 CIG 005 RWY18 SLP141 P0001 T01130111 FZRANO $

RJTY Flight Activity (Flightaware)

Listeners: 2 out of 650 total

Yokota Ground: 133.200
Yokota Tower: 134.300

RJTY Tower (Archives)
Tokyo, Japan

Feed Status: UP
Listen in your browser - HTML5 player(in browser, HTML5)
Click here to listen with your own player(launches your MP3 player)

RJTY 010156Z AUTO 03007KT 5SM -RA BR OVC006 11/11 A2993 RMK AO2 RAE16RAB18 CIG 005 RWY18 SLP141 P0001 T01130111 FZRANO $

RJTY Flight Activity (Flightaware)

Listeners: 0 out of 650 total

Yokota Tower: 134.300

RKSG Gnd/Twr/App (Archives)
Pyeongtaek, Korea, Republic of

Feed Status: UP
Listen in your browser - HTML5 player(in browser, HTML5)
Click here to listen with your own player(launches your MP3 player)

RKSG 010156Z 30008KT 5SM HZ BKN200 14/00 A2996 RMK AO2A SLP149 T01390002 $

RKSG Flight Activity (Flightaware)

Listeners: 1 out of 650 total

Desiderio Final: 255.800
Desiderio GCA: 226.800
Desiderio GCA: 127.000
Desiderio Ground (Camp Humphreys A-511 AAF): 119.500
Desiderio Ground UHF: 229.700
Desiderio Ops: 294.100
Desiderio Tower (Camp Humphreys A-511 AAF): 122.500
Desiderio Tower UHF: 257.800

RKRR Incheon Control (Archives)
Incheon, Korea, Republic of

Feed Status: UP
Listen in your browser - HTML5 player(in browser, HTML5)
Click here to listen with your own player(launches your MP3 player)

RKSI 010200Z 32014KT 9000 NSC 13/01 Q1015 NOSIG

RKSI Flight Activity (Flightaware)

Listeners: 5 out of 650 total

Incheon Control North Sector (Primary): 128.700
Incheon Control North Sector (Secondary): 132.800
Incheon Control Northwest Sector (Primary): 126.175
Incheon Control Northwest Sector (Secondary): 123.725

RKSO Gnd/Twr/App (Archives)
Pyeongtaek, Korea, Republic of

Feed Status: UP
Listen in your browser - HTML5 player(in browser, HTML5)
Click here to listen with your own player(launches your MP3 player)

RKSO 010158Z AUTO 30007KT 7SM CLR 15/M02 A2996 RMK AO2 SLP149 T01481019 $

RKSO Flight Activity (Flightaware)

Listeners: 4 out of 650 total

25 FS Ops: 229.000
36FS Ops: 371.300
Osan Air Base Approach/Departure: 127.900
Osan Air Base Approach/Departure: 133.650
Osan Air Base Ground: 132.450
Osan Air Base Tower: 122.100
Osan App/Dep UHF: 306.600
Osan App/Dep UHF: 234.300
Osan App/Dep UHF (possibly inactive): 306.300
Osan App/Dep UHF (possibly inactive): 363.100
Osan Ground UHF: 253.700
Osan SAR: 282.800
Osan SAR: 381.000
Osan SOF: 299.800
Osan Tower UHF: 308.800
Stallion Ops: 276.200

ROAH Gnd/Twr/App (Archives)
Okinawa, Japan

Feed Status: UP
Listen in your browser - HTML5 player(in browser, HTML5)
Click here to listen with your own player(launches your MP3 player)

RODN 010156Z 29013G22KT 10SM OVC015 20/20 A2995 RMK AO2A PK WND 33028/40 CIG 014 RWY05 SLP148 $

RODN Flight Activity (Flightaware)

Listeners: 2 out of 650 total


ROAH Naha ACC (Archives)
Okinawa, Japan

Feed Status: UP
Listen in your browser - HTML5 player(in browser, HTML5)
Click here to listen with your own player(launches your MP3 player)

RODN 010156Z 29013G22KT 10SM OVC015 20/20 A2995 RMK AO2A PK WND 33028/40 CIG 014 RWY05 SLP148 $

RODN Flight Activity (Flightaware)

Listeners: 1 out of 650 total


RODN Gnd/Twr/App (Archives)
Okinawa, Japan

Feed Status: UP
Listen in your browser - HTML5 player(in browser, HTML5)
Click here to listen with your own player(launches your MP3 player)

RODN 010156Z 29013G22KT 10SM OVC015 20/20 A2995 RMK AO2A PK WND 33028/40 CIG 014 RWY05 SLP148 $

RODN Flight Activity (Flightaware)

Listeners: 1 out of 650 total


ROTM Gnd/Twr (Archives)
Okinawa, Japan

Feed Status: UP
Listen in your browser - HTML5 player(in browser, HTML5)
Click here to listen with your own player(launches your MP3 player)

RODN 010156Z 29013G22KT 10SM OVC015 20/20 A2995 RMK AO2A PK WND 33028/40 CIG 014 RWY05 SLP148 $

RODN Flight Activity (Flightaware)

Listeners: 0 out of 650 total


RPLL ACC 125.7 (Archives)
Manila, Philippines

Feed Status: UP
Listen in your browser - HTML5 player(in browser, HTML5)
Click here to listen with your own player(launches your MP3 player)

RPLL 010200Z VRB05KT 9999 FEW025 33/22 Q1013 NOSIG RMK A2991

RPLL Flight Activity (Flightaware)

Listeners: 0 out of 650 total

Manila Control: 125.700

RPLL App/Dep 124.4 (Archives)
Manila, Philippines

Feed Status: UP
Listen in your browser - HTML5 player(in browser, HTML5)
Click here to listen with your own player(launches your MP3 player)

RPLL 010200Z VRB05KT 9999 FEW025 33/22 Q1013 NOSIG RMK A2991

RPLL Flight Activity (Flightaware)

Listeners: 0 out of 650 total

Manila Approach/.Departure: 124.400

RPLL App/Dep 124.8 (Archives)
Manila, Philippines

Feed Status: UP
Listen in your browser - HTML5 player(in browser, HTML5)
Click here to listen with your own player(launches your MP3 player)

RPLL 010200Z VRB05KT 9999 FEW025 33/22 Q1013 NOSIG RMK A2991

RPLL Flight Activity (Flightaware)

Listeners: 0 out of 650 total

Manila Approach/.Departure: 124.800

RPLL ATIS (Archives)
Manila, Philippines

Feed Status: UP
Listen in your browser - HTML5 player(in browser, HTML5)
Click here to listen with your own player(launches your MP3 player)

RPLL 010200Z VRB05KT 9999 FEW025 33/22 Q1013 NOSIG RMK A2991

RPLL Flight Activity (Flightaware)

Listeners: 0 out of 650 total

Manila ATIS: 126.400

RPLL Clearance Delivery (Archives)
Manila, Philippines

Feed Status: UP
Listen in your browser - HTML5 player(in browser, HTML5)
Click here to listen with your own player(launches your MP3 player)

RPLL 010200Z VRB05KT 9999 FEW025 33/22 Q1013 NOSIG RMK A2991

RPLL Flight Activity (Flightaware)

Listeners: 0 out of 650 total

Manila Clearance Delivery (Primary): 125.100
Manila Clearance Delivery (Secondary): 125.500

RPLL Ground (Archives)
Manila, Philippines

Feed Status: UP
Listen in your browser - HTML5 player(in browser, HTML5)
Click here to listen with your own player(launches your MP3 player)

RPLL 010200Z VRB05KT 9999 FEW025 33/22 Q1013 NOSIG RMK A2991

RPLL Flight Activity (Flightaware)

Listeners: 0 out of 650 total

Manila Ground: 121.800

RPLL Ramp/Taxi (Archives)
Manila, Philippines

Feed Status: UP
Listen in your browser - HTML5 player(in browser, HTML5)
Click here to listen with your own player(launches your MP3 player)

RPLL 010200Z VRB05KT 9999 FEW025 33/22 Q1013 NOSIG RMK A2991

RPLL Flight Activity (Flightaware)

Listeners: 0 out of 650 total

Manila Ramp/Taxi: 121.350
Manila Ramp/Taxi: 121.700

RPLL Tower (Archives)
Manila, Philippines

Feed Status: UP
Listen in your browser - HTML5 player(in browser, HTML5)
Click here to listen with your own player(launches your MP3 player)

RPLL 010200Z VRB05KT 9999 FEW025 33/22 Q1013 NOSIG RMK A2991

RPLL Flight Activity (Flightaware)

Listeners: 0 out of 650 total

Manila Tower: 118.100

SABE Gnd/Twr/App (Archives)
Buenos Aires, Argentina

Feed Status: UP
Listen in your browser - HTML5 player(in browser, HTML5)
Click here to listen with your own player(launches your MP3 player)

SABE 010200Z 09014KT CAVOK 23/19 Q1016 NOSIG

SABE Flight Activity (Flightaware)

Listeners: 0 out of 650 total

Aerolineas Argentinas Ops: 131.950
Aerolineas Argentinas Ops: 131.100
Aeroparque Ground: 121.900
Aeroparque Tower: 120.600
Aeroparque Tower: 118.250
Aeroparque Tower: 128.850
Aeroparque Tower: 118.850
Aeroparque Tower: 129.300
Air to Air: 123.450
Baires: 125.900
Baires: 125.300
Baires: 124.900
Cordoba South: 126.500
Ezeiza Ground: 121.750
Ezeiza North: 133.350
Ezeiza North: 124.500
Ezeiza North: 125.600
Ezeiza North: 135.500
Ezeiza South: 124.100
Ezeiza South: 125.200
LAN Ops: 131.700

SANT Tower/Apps (Archives)
Tucuman, Argentina

Feed Status: UP
Listen in your browser - HTML5 player(in browser, HTML5)
Click here to listen with your own player(launches your MP3 player)

SANT 010200Z 23004KT 2000 DZBR OVC003 22/21 Q1014

SANT Flight Activity (Flightaware)

Listeners: 0 out of 650 total

Aeroclub Tucuman: 119.000
Aerolineas Argentinas SOC Salta: 131.100
Aerolineas Argentinas SOC Tucuman: 131.950
Air To Air: 123.450
Andes Lineas Aereas: 132.000
Campo Arenal: 130.950
Catamarca Tower: 118.150
Copa Airlines: 129.400
Cordoba Centro Norte: 125.100
Cordoba Centro Sur: 126.500
Emergency/Guard: 121.500
Lan Argentina Operaciones: 131.700
Lan Peru: 131.300
Salta Tower: 128.850
Santiago del Estero Tower: 118.700
Taca Peru: 126.450
Termas de Rio Hondo: 118.200
Termas de Rio Hondo: 119.850
Tucuman Ground: 121.750
Tucuman Ground: 121.750
Tucuman Tower: 118.350
Tucuman Tower: 119.500

SASA Twr/App (Archives)
Salta, Argentina

Feed Status: UP
Listen in your browser - HTML5 player(in browser, HTML5)
Click here to listen with your own player(launches your MP3 player)

SASA 010200Z 32003KT 8000 -RA BKN020 OVC050 21/20 Q1018

SASA Flight Activity (Flightaware)

Listeners: 0 out of 650 total

Cordoba Approach (North): 125.100
Salta Approach: 124.600
Salta Tower: 126.000
Salta Tower/Ground: 128.850

SAZN Tower (Archives)
Neuquen, Argentina

Feed Status: UP
Listen in your browser - HTML5 player(in browser, HTML5)
Click here to listen with your own player(launches your MP3 player)

SAZN 010200Z 00000KT 9999 SCT040 SCT080 17/14 Q1017

SAZN Flight Activity (Flightaware)

Listeners: 0 out of 650 total

Neuquen Tower/Approach: 119.800

SAZS Gnd/Twr/App (Archives)
Rio Negro, Argentina

Feed Status: UP
Listen in your browser - HTML5 player(in browser, HTML5)
Click here to listen with your own player(launches your MP3 player)

SAZS 010200Z 29016KT CAVOK 10/04 Q1019

SAZS Flight Activity (Flightaware)

Listeners: 0 out of 650 total

Bariloche Ground: 118.650
Bariloche Twr/App: 119.100
Chapelco Tower/Approach: 119.600
Comodoro Rivadavia Control: 125.500
Emergency: 121.500
Ezeiza South: 125.200
Puerto Mont Radar North: 121.300
Puerto Mont Radar South: 128.300
Puerto Mont Radio: 126.900

SBBR Approach (Archives)
Brasilia, Brazil

Feed Status: UP
Listen in your browser - HTML5 player(in browser, HTML5)
Click here to listen with your own player(launches your MP3 player)

SBBR 010200Z 14003KT 110V170 CAVOK 24/17 Q1019

SBBR Flight Activity (Flightaware)

Listeners: 0 out of 650 total

Brasilia Approach: 120.650
Brasilia Approach: 129.150
Brasilia Approach: 129.600
Brasilia Approach (Final): 119.200
Brasilia Departure: 119.500
Brasilia Departure: 119.700

SBBR Ground (Archives)
Brasilia, Brazil

Feed Status: UP
Listen in your browser - HTML5 player(in browser, HTML5)
Click here to listen with your own player(launches your MP3 player)

SBBR 010200Z 14003KT 110V170 CAVOK 24/17 Q1019

SBBR Flight Activity (Flightaware)

Listeners: 0 out of 650 total

Brasilia Ground: 121.950
Brasilia Ground: 121.800

SBBR Tower (Archives)
Brasilia, Brazil

Feed Status: UP
Listen in your browser - HTML5 player(in browser, HTML5)
Click here to listen with your own player(launches your MP3 player)

SBBR 010200Z 14003KT 110V170 CAVOK 24/17 Q1019

SBBR Flight Activity (Flightaware)

Listeners: 0 out of 650 total

Brasilia Tower: 118.100
Brasilia Tower: 181.750
Brasilia Tower: 118.450

SBBV Approach (Archives)
Boa Vista, Brazil

Feed Status: UP
Listen in your browser - HTML5 player(in browser, HTML5)
Click here to listen with your own player(launches your MP3 player)

SBBV 010200Z 10011KT CAVOK 30/20 Q1010

SBBV Flight Activity (Flightaware)

Listeners: 2 out of 650 total

Boa Vista Approach: 120.100

SBBV Tower (Archives)
Boa Vista, Brazil

Feed Status: UP
Listen in your browser - HTML5 player(in browser, HTML5)
Click here to listen with your own player(launches your MP3 player)

SBBV 010200Z 10011KT CAVOK 30/20 Q1010

SBBV Flight Activity (Flightaware)

Listeners: 1 out of 650 total

Boa Vista Tower: 118.100

SBCT Gnd/Twr/App (Archives)
Curitiba, Brazil

Feed Status: UP
Listen in your browser - HTML5 player(in browser, HTML5)
Click here to listen with your own player(launches your MP3 player)

SBCT 010200Z 12005KT 9999 SCT013 BKN050 20/20 Q1019

SBCT Flight Activity (Flightaware)

Listeners: 0 out of 650 total

Curitiba Approach: 119.950
Curitiba Ground: 121.900
Curitiba Tower: 118.150
Curitiba Tower: 118.900

SBDN Twr/App (Archives)
Presidente Prudente/Sao Paulo, Brazil

Feed Status: UP
Listen in your browser - HTML5 player(in browser, HTML5)
Click here to listen with your own player(launches your MP3 player)

SBDN 010100Z 13004KT CAVOK 24/15 Q1014

SBDN Flight Activity (Flightaware)

Listeners: 0 out of 650 total

Air-to-Air: 123.450
Curitiba Sector 13: 133.595
Prudente Approach: 118.450
Prudente Tower: 125.450

SBEG Tower/App (Archives)
Manaus, Brazil

Feed Status: UP
Listen in your browser - HTML5 player(in browser, HTML5)
Click here to listen with your own player(launches your MP3 player)

SBEG 010200Z 35002KT 9999 FEW001 BKN090 23/23 Q1011

SBEG Flight Activity (Flightaware)

Listeners: 0 out of 650 total

Emergency/Guard: 121.500
Manaus Approach : 119.250
Manaus Approach: 120.400
Manaus Approach: 119.700
Manaus Tower: 118.300

SBFI Twr/App/Ctr/Misc (Archives)
Foz do Iguacu, Brazil

Feed Status: UP
Listen in your browser - HTML5 player(in browser, HTML5)
Click here to listen with your own player(launches your MP3 player)

SBFI 010200Z 17003KT CAVOK 25/24 Q1013

SBFI Flight Activity (Flightaware)

Listeners: 0 out of 650 total

Asuncion Center (Paraguay): 126.900
Asuncion Center (Paraguay): 128.400
Curitiba Center: 127.200
Curitiba Center: 125.800
Emergency/Guard: 121.500
Foz do Iguacu Approach/Departure: 120.300
Foz do Iguacu Approach/Departure: 119.150
Foz do Iguacu Tower: 118.800
Guarani Approach (Paraguay): 119.300
Puerto Iguazu - Cataratas Tower (Argentina) : 120.700
Resistencia Center (Argentina): 124.300
UNICOM: 123.450

SBFZ ACC/Misc (Archives)
Fortaleza, Brazil

Feed Status: UP
Listen in your browser - HTML5 player(in browser, HTML5)
Click here to listen with your own player(launches your MP3 player)

SBFZ 010200Z 14004KT 9999 SCT020 SCT100 27/25 Q1010

SBFZ Flight Activity (Flightaware)

Listeners: 0 out of 650 total

:
Ait to Air: 123.450
SBAC: 131.250
SBJE: 131.050
SBJU: 131.750
SBMS: 125.800
SBPB: 126.600
SBRF ACC: 133.500
SBRF ACC: 135.250
SBRF ACC: 126.350
SBRF ACC: 125.150

SBFZ Twr/App/Center
Fortaleza, Brazil

Feed Status: DOWN
Offline since: 2020-03-31 23:38:23 UTC

SBFZ 010200Z 14004KT 9999 SCT020 SCT100 27/25 Q1010

ACC-RE (Fortaleza Sector): 125.150
ACC-RE (Fortaleza Sector): 126.350
ACC-RE (Fortaleza Sector): 135.250
Fortaleza Approach: 133.000
Fortaleza Tower: 129.000

SBGO Gnd/Twr/App (Archives)
Goiania, Brazil

Feed Status: UP
Listen in your browser - HTML5 player(in browser, HTML5)
Click here to listen with your own player(launches your MP3 player)

SBGO 010200Z 00000KT CAVOK 23/19 Q1016

SBGO Flight Activity (Flightaware)

Listeners: 0 out of 650 total

Anapolis Approach: 119.150
Anapolis Approach: 120.550
Anapolis Approach: 133.000
Anapolis Approach: 129.450
Emergency/Guard: 121.500
Goiania Ground: 121.700
Goiania Tower: 118.700
Goiania Tower: 121.050

SBJP Twr/Control/Airlines (Archives)
Joao Pessoa, Brazil

Feed Status: UP
Listen in your browser - HTML5 player(in browser, HTML5)
Click here to listen with your own player(launches your MP3 player)

SBJP 010200Z 23003KT 9999 FEW020 25/25 Q1012

SBJP Flight Activity (Flightaware)

Listeners: 0 out of 650 total

AZUL: 130.900
GOL: 131.225
Joao Pessoa Tower: 118.300
Recife Control: 119.500
TAM: 130.500

SBJU Tower/Center (Archives)
Juazeiro do Norte, Brazil

Feed Status: UP
Listen in your browser - HTML5 player(in browser, HTML5)
Click here to listen with your own player(launches your MP3 player)

SBJU 312200Z 00000KT 9999 -RA SCT020 25/24 Q1014

SBJU Flight Activity (Flightaware)

Listeners: 0 out of 650 total

Pilot-to-Pilot: 123.450
Radio Juazeiro: 131.750
Recife Center: 135.250
Recife Center: 125.150

SBKP Approach (Archives)
Campinas, Brazil

Feed Status: UP
Listen in your browser - HTML5 player(in browser, HTML5)
Click here to listen with your own player(launches your MP3 player)

SBKP 010200Z 12010KT CAVOK 21/17 Q1017

SBKP Flight Activity (Flightaware)

Listeners: 0 out of 650 total

Campinas Approach: 132.100
Campinas Approach: 135.750

SBKP Tower #1 (Archives)
Campinas, Brazil

Feed Status: UP
Listen in your browser - HTML5 player(in browser, HTML5)
Click here to listen with your own player(launches your MP3 player)

SBKP 010200Z 12010KT CAVOK 21/17 Q1017

SBKP Flight Activity (Flightaware)

Listeners: 3 out of 650 total

Campinas Tower: 118.250

SBKP Tower #2 (Archives)
Campinas, Brazil

Feed Status: UP
Listen in your browser - HTML5 player(in browser, HTML5)
Click here to listen with your own player(launches your MP3 player)

SBKP 010200Z 12010KT CAVOK 21/17 Q1017

SBKP Flight Activity (Flightaware)

Listeners: 0 out of 650 total

Campinas Tower: 118.250

SBLO Gnd/Twr/App
Londrina, Brazil

Feed Status: DOWN
Offline since: 2020-03-10 19:18:40 UTC

SBLO 312300Z 00000KT CAVOK 29/19 Q1014

Londrina Approach: 129.700
Londrina Ground: 119.550
Londrina Tower: 118.400

SBMG Twr/App/Misc (Archives)
Maringa, Brazil

Feed Status: UP
Listen in your browser - HTML5 player(in browser, HTML5)
Click here to listen with your own player(launches your MP3 player)

SBMG 010000Z 14002KT CAVOK 27/18 Q1014

SBMG Flight Activity (Flightaware)

Listeners: 0 out of 650 total

Air to Air: 123.450
Londrina Approach: 129.700
Maringa Tower: 118.750

SBMK RDO/Center (Archives)
Montes Claros, Brazil

Feed Status: UP
Listen in your browser - HTML5 player(in browser, HTML5)
Click here to listen with your own player(launches your MP3 player)

SBMK Flight Activity (Flightaware)

Listeners: 0 out of 650 total

Brasilia Center (Sector 15): 127.300
Montes Claros RDO: 131.700

SBMQ Tower/App/Center (Archives)
Macapa, Brazil

Feed Status: UP
Listen in your browser - HTML5 player(in browser, HTML5)
Click here to listen with your own player(launches your MP3 player)

SBMQ 010200Z 02006KT CAVOK 26/26 Q1011

SBMQ Flight Activity (Flightaware)

Listeners: 0 out of 650 total

Amazonico Center: 123.950
Amazonico Center: 128.000
Macapa Approach: 119.000
Macapa Tower: 118.000

SBNF Tower
Navegantes, Brazil

Feed Status: DOWN
Offline since: 2020-03-31 00:16:40 UTC

SBNF 010200Z 06006KT 9999 SCT014 26/23 Q1015

Navegantes Tower: 118.200

SBPL RDO (Archives)
Petrolina, Brazil

Feed Status: UP
Listen in your browser - HTML5 player(in browser, HTML5)
Click here to listen with your own player(launches your MP3 player)

SBPL 010200Z 17004KT CAVOK 25/22 Q1014

SBPL Flight Activity (Flightaware)

Listeners: 2 out of 650 total

Petrolina RDO: 125.700

SBRF App 129.60
Recife, Brazil

Feed Status: DOWN
Offline since: 2020-03-31 19:11:06 UTC

SBRF 010200Z 13005KT 9999 SCT022 SCT050 28/24 Q1011

Recife Approach: 129.600

SBRF Gol Ops
Recife, Brazil

Feed Status: DOWN
Offline since: 2020-03-31 19:10:40 UTC

SBRF 010200Z 13005KT 9999 SCT022 SCT050 28/24 Q1011

Gol Ops: 131.225

SBRF Ground
Recife, Brazil

Feed Status: DOWN
Offline since: 2020-03-31 19:10:40 UTC

SBRF 010200Z 13005KT 9999 SCT022 SCT050 28/24 Q1011

Recife Ground: 121.850

SBRF LATAM Ops
Recife, Brazil

Feed Status: DOWN
Offline since: 2020-03-31 19:11:06 UTC

SBRF 010200Z 13005KT 9999 SCT022 SCT050 28/24 Q1011

LATAM Ops: 130.500

SBRF Recife ACC
Recife, Brazil

Feed Status: DOWN
Offline since: 2020-03-31 19:11:06 UTC

SBRF 010200Z 13005KT 9999 SCT022 SCT050 28/24 Q1011

Recife Center: 128.700
Recife Center: 133.650
Recife Center: 134.800

SBRF Tower
Recife, Brazil

Feed Status: DOWN
Offline since: 2020-03-31 19:11:06 UTC

SBRF 010200Z 13005KT 9999 SCT022 SCT050 28/24 Q1011

Recife Tower: 125.250
Recife Tower: 118.350
Recife Tower: 118.900

SBRP Tower/Center (Archives)
Ribeirao Preto, Brazil

Feed Status: UP
Listen in your browser - HTML5 player(in browser, HTML5)
Click here to listen with your own player(launches your MP3 player)

SBRP 010200Z 08005KT CAVOK 24/20 Q1015

SBRP Flight Activity (Flightaware)

Listeners: 2 out of 650 total

Leite Lopes Tower: 118.000
Pirassununga Center (North): 119.550

SBSL Tower (Archives)
Sao Luis, Brazil

Feed Status: UP
Listen in your browser - HTML5 player(in browser, HTML5)
Click here to listen with your own player(launches your MP3 player)

SBSL 010200Z 00000KT 9999 BKN017 25/24 Q1011

SBSL Flight Activity (Flightaware)

Listeners: 0 out of 650 total

Sao Luis Tower: 118.900

SBSN Twr/App/ACC (Archives)
Santarem, Brazil

Feed Status: UP
Listen in your browser - HTML5 player(in browser, HTML5)
Click here to listen with your own player(launches your MP3 player)

SBSN 010200Z 19003KT 9999 FEW020 25/24 Q1010

SBSN Flight Activity (Flightaware)

Listeners: 0 out of 650 total

Brasilia Center/ACC: 123.650
Brasilia Center/ACC: 125.050
Santarem Approach: 119.300
Santarem Tower: 118.100

SBSR AFIS/App/Center (Archives)
Sao Jose do Rio Preto, Brazil

Feed Status: UP
Listen in your browser - HTML5 player(in browser, HTML5)
Click here to listen with your own player(launches your MP3 player)

SBSR 010100Z 00000KT CAVOK 26/18 Q1015

SBSR Flight Activity (Flightaware)

Listeners: 0 out of 650 total

Academia Approach (North Sector): 119.750
Academia Approach (North Sector): 120.400
Brasilia Center: 135.150
Rio Preto Radio AFIS: 130.850

SBTE Twr/App (Archives)
Teresina, Brazil

Feed Status: UP
Listen in your browser - HTML5 player(in browser, HTML5)
Click here to listen with your own player(launches your MP3 player)

SBTE 010200Z 18006KT CAVOK 26/24 Q1010

SBTE Flight Activity (Flightaware)

Listeners: 1 out of 650 total

Teresina Approach: 119.600
Teresina Tower: 118.800

SBRE Recife ACC (Archives)
Paulo Afonso, Brazil

Feed Status: UP
Listen in your browser - HTML5 player(in browser, HTML5)
Click here to listen with your own player(launches your MP3 player)

SBRE Flight Activity (Flightaware)

Listeners: 0 out of 650 total

Recife Center (ACC): 125.400
Recife Center (ACC): 125.450
Recife Center (ACC): 126.850
Recife Center (ACC): 133.650
Recife Center (ACC): 134.500
Recife Center (ACC): 134.900

SBUF AFIS/Center (Archives)
Paulo Afonso, Brazil

Feed Status: UP
Listen in your browser - HTML5 player(in browser, HTML5)
Click here to listen with your own player(launches your MP3 player)

SBUF 311900Z 10012KT 9999 SCT020 30/22 Q1009

SBUF Flight Activity (Flightaware)

Listeners: 0 out of 650 total

Paulo Afonso Radio: 125.850
Recife Center: 133.650
Recife Center: 134.500
Recife Center: 125.450

SBQV AFIS (Archives)
Vitoria da Conquista, Brazil

Feed Status: UP
Listen in your browser - HTML5 player(in browser, HTML5)
Click here to listen with your own player(launches your MP3 player)

SBQV Flight Activity (Flightaware)

Listeners: 0 out of 650 total

Conquista AFIS: 130.850
Despacho Azul: 131.875
Despacho Passaredo: 132.000

SBVT Gnd/Twr/App (Archives)
Vitoria, Brazil

Feed Status: UP
Listen in your browser - HTML5 player(in browser, HTML5)
Click here to listen with your own player(launches your MP3 player)

SBVT 010200Z 28002KT 9999 FEW018 BKN025 26/24 Q1015

SBVT Flight Activity (Flightaware)

Listeners: 1 out of 650 total

SBVT Approach: 119.850
SBVT Ground: 121.950
SBVT Tower: 118.100

SCEL Gnd/Twr/Radar (Archives)
Santiago, Chile

Feed Status: UP
Listen in your browser - HTML5 player(in browser, HTML5)
Click here to listen with your own player(launches your MP3 player)

SCEL 010200Z AUTO 13004KT 9999 NCD 20/06 Q1015 NOSIG

SCEL Flight Activity (Flightaware)

Listeners: 1 out of 650 total

Santiago Authorizations: 121.700
Santiago Control (Lat 3323S North): 128.100
Santiago Control (Lat 3323S South): 126.300
Santiago Ground (Primary): 122.200
Santiago Ground (Secondary): 122.500
Santiago Radar: 125.400
Santiago Radar: 135.400
Santiago Radar (Arrival, Primary): 129.700
Santiago Radar (Arrival, Secondary): 119.700
Santiago Radar (Arrival, Secondary): 123.800
Santiago Radar (Departure, Primary): 121.100
Santiago Radar (Departure, Secondary): 123.800
Santiago Radar (Information, Primary): 122.400
Santiago Radar (Information, Secondary): 120.800
Santiago Radar (Information, Secondary): 123.800
Santiago Tower (Primary): 118.100
Santiago Tower (Secondary): 118.350
SCTB Tobalaba Tower: 118.700

SEGU App/Dep/Info (Archives)
Guayaquil, Ecuador

Feed Status: UP
Listen in your browser - HTML5 player(in browser, HTML5)
Click here to listen with your own player(launches your MP3 player)

SEGU 010200Z 27003KT 9999 VCSH BKN023 BKN100 26/24 Q1010 NOSIG RMK A2983

SEGU Flight Activity (Flightaware)

Listeners: 0 out of 650 total

Guayaquil Approach: 120.700
Guayaquil Approach (Secondary): 119.300
Guayaquil Info: 126.900

SEGU Gnd/Twr (Archives)
Guayaquil, Ecuador

Feed Status: UP
Listen in your browser - HTML5 player(in browser, HTML5)
Click here to listen with your own player(launches your MP3 player)

SEGU 010200Z 27003KT 9999 VCSH BKN023 BKN100 26/24 Q1010 NOSIG RMK A2983

SEGU Flight Activity (Flightaware)

Listeners: 0 out of 650 total

Guayaquil Ground: 121.900
Guayaquil Ground (Secondary): 121.700
Guayaquil Tower: 118.300
Guayaquil Tower (Secondary): 118.900

SEGU Gnd/Twr/App (Archives)
Guayaquil, Ecuador

Feed Status: UP
Listen in your browser - HTML5 player(in browser, HTML5)
Click here to listen with your own player(launches your MP3 player)

SEGU 010200Z 27003KT 9999 VCSH BKN023 BKN100 26/24 Q1010 NOSIG RMK A2983

SEGU Flight Activity (Flightaware)

Listeners: 0 out of 650 total

Guayaquil Approach: 120.700
Guayaquil Ground: 121.900
Guayaquil Tower: 118.300

SEGU Guayaquil Center (Archives)
Guayaquil, Ecuador

Feed Status: UP
Listen in your browser - HTML5 player(in browser, HTML5)
Click here to listen with your own player(launches your MP3 player)

SEGU 010200Z 27003KT 9999 VCSH BKN023 BKN100 26/24 Q1010 NOSIG RMK A2983

SEGU Flight Activity (Flightaware)

Listeners: 0 out of 650 total

Guayaquil Center: 127.950
Guayaquil Center: 128.300
Guayaquil Center (Secondary): 128.000
Guayaquil Center (Secondary): 123.900

SEQM ATIS (Archives)
Quito, Ecuador

Feed Status: UP
Listen in your browser - HTML5 player(in browser, HTML5)
Click here to listen with your own player(launches your MP3 player)

SEQM 010200Z 01004KT 9999 BKN010 14/13 Q1026 NOSIG RMK A3030

SEQM Flight Activity (Flightaware)

Listeners: 0 out of 650 total

Quito ATIS: 118.700

SEQM Gnd/Twr/App (Archives)
Quito, Ecuador

Feed Status: UP
Listen in your browser - HTML5 player(in browser, HTML5)
Click here to listen with your own player(launches your MP3 player)

SEQM 010200Z 01004KT 9999 BKN010 14/13 Q1026 NOSIG RMK A3030

SEQM Flight Activity (Flightaware)

Listeners: 1 out of 650 total

Quito Approach/Departure: 119.700
Quito Approach/Departure: 121.200
Quito Ground: 121.900
Quito Tower: 118.100
Quito Tower (Secondary): 118.350

SEQM Tower (Archives)
Quito, Ecuador

Feed Status: UP
Listen in your browser - HTML5 player(in browser, HTML5)
Click here to listen with your own player(launches your MP3 player)

SEQM 010200Z 01004KT 9999 BKN010 14/13 Q1026 NOSIG RMK A3030

SEQM Flight Activity (Flightaware)

Listeners: 0 out of 650 total

Quito Tower: 118.100
Quito Tower (Secondary): 118.350

SJOY CTAF (Archives)
Palmeira, Brazil

Feed Status: UP
Listen in your browser - HTML5 player(in browser, HTML5)
Click here to listen with your own player(launches your MP3 player)

AUTO METAR SJOY 010220Z 09007KT BKN006 19/18 Q1020

SJOY Flight Activity (Flightaware)

Listeners: 0 out of 650 total


SKBO Del/Gnd/Twr/App
Bogota, Colombia

Feed Status: DOWN
Offline since: 2020-03-27 23:09:40 UTC

SKBO 010200Z 30003KT 9999 FEW023 13/10 A3030 NOSIG

Bogota Approach: 119.500
Bogota Clearance Delivery: 121.600
Bogota Departure (North): 121.300
Bogota Departure (South): 119.650
Bogota Ground (North): 121.800
Bogota Ground (South): 122.750
Bogota Information: 126.900
Bogota Tower (North): 118.100
Bogota Tower (South): 118.250
Guaymaral Ground: 121.700
Guaymaral Tower: 118.800

SKBQ Approach (Archives)
Barranquilla, Colombia

Feed Status: UP
Listen in your browser - HTML5 player(in browser, HTML5)
Click here to listen with your own player(launches your MP3 player)

SKBQ 010200Z 36012KT 330V030 CAVOK 27/22 A2979 NOSIG

SKBQ Flight Activity (Flightaware)

Listeners: 0 out of 650 total

Barranquilla Approach/Departure: 119.100

SKRG Gnd/Twr/App
Rionegro, Colombia

Feed Status: DOWN
Offline since: 2020-03-25 03:06:40 UTC

SKRG 010200Z 04004KT 7000 TS BKN013CB SCT080 17/16 A3025 TEMPO FM0300 5000 TSRA RMK CB VCSH/E/S

Jose Maria Cordova Ground: 121.900
Jose Maria Cordova Tower: 118.600
Medellin Approach (South): 121.100

HF CWP/SEA (Archives)
Pyeongtaek, Korea, Republic of

Feed Status: UP
Listen in your browser - HTML5 player(in browser, HTML5)
Click here to listen with your own player(launches your MP3 player)


Listeners: 0 out of 650 total

CWP 1 (Tokyo): 11.384
CWP 1/2 (Tokyo): 13.300
CWP-1/2 (San Francisco): 17.904
CWP-1/2 (Tokyo/Manila): 8.903
CWP-1/2 (Tokyo/San Francisco): 21.985
SEA-2 (Manila): 8.942

SPJC Approach (Archives)
Lima, Peru

Feed Status: UP
Listen in your browser - HTML5 player(in browser, HTML5)
Click here to listen with your own player(launches your MP3 player)

SPJC 010200Z 17006KT 9999 FEW009 OVC170 21/20 Q1012 NOSIG RMK PPTRZ

SPJC Flight Activity (Flightaware)

Listeners: 0 out of 650 total

Lima Approach: 119.700

SPJC Ground (Archives)
Lima, Peru

Feed Status: UP
Listen in your browser - HTML5 player(in browser, HTML5)
Click here to listen with your own player(launches your MP3 player)

SPJC 010200Z 17006KT 9999 FEW009 OVC170 21/20 Q1012 NOSIG RMK PPTRZ

SPJC Flight Activity (Flightaware)

Listeners: 0 out of 650 total

Lima Ground: 121.900

SPJC Tower (Archives)
Lima, Peru

Feed Status: UP
Listen in your browser - HTML5 player(in browser, HTML5)
Click here to listen with your own player(launches your MP3 player)

SPJC 010200Z 17006KT 9999 FEW009 OVC170 21/20 Q1012 NOSIG RMK PPTRZ

SPJC Flight Activity (Flightaware)

Listeners: 0 out of 650 total

Lima Tower: 118.100

SPST Tower (Archives)
Tarapoto, Peru

Feed Status: UP
Listen in your browser - HTML5 player(in browser, HTML5)
Click here to listen with your own player(launches your MP3 player)

SPST 312100Z 18003KT 9999 SCT020 32/22 Q1007 RMK BIRD HAZARD RWY 17/35 TMX32.9 PP000

SPST Flight Activity (Flightaware)

Listeners: 1 out of 650 total

Tarapoto Tower: 118.400

SSBL Air to Air
Blumenau, Brazil

Feed Status: DOWN
Offline since: 2020-04-01 02:35:06 UTC

Air to Air: 123.450

SULS Tower (Archives)
Punta del Este, Uruguay

Feed Status: UP
Listen in your browser - HTML5 player(in browser, HTML5)
Click here to listen with your own player(launches your MP3 player)

SULS 010200Z 05008KT CAVOK 19/17 Q1019

SULS Flight Activity (Flightaware)

Listeners: 0 out of 650 total

Air to Air: 123.450
SULS A/G: 122.100
SULS Tower: 118.300

SUMU Twr/App (Archives)
Montevideo, Uruguay

Feed Status: UP
Listen in your browser - HTML5 player(in browser, HTML5)
Click here to listen with your own player(launches your MP3 player)

SUMU 010200Z 09011KT CAVOK 19/16 Q1018 NOSIG

SUMU Flight Activity (Flightaware)

Listeners: 0 out of 650 total

SUMU Approach: 119.200
SUMU Tower: 118.100

SUMU Twr/App/Radar (Archives)
Montevideo, Uruguay

Feed Status: UP
Listen in your browser - HTML5 player(in browser, HTML5)
Click here to listen with your own player(launches your MP3 player)

SUMU 010200Z 09011KT CAVOK 19/16 Q1018 NOSIG

SUMU Flight Activity (Flightaware)

Listeners: 0 out of 650 total

SUMU Approach: 120.200
SUMU Approach: 119.200
SUMU Info: 121.800
SUMU Informacion: 121.800
SUMU Radar Control: 128.500
SUMU Radar Control: 126.300
SUMU Radar Control: 128.000
SUMU Tower: 118.100

SUPE CTAF (Archives)
Punta del Este, Uruguay

Feed Status: UP
Listen in your browser - HTML5 player(in browser, HTML5)
Click here to listen with your own player(launches your MP3 player)

SULS 010200Z 05008KT CAVOK 19/17 Q1019

SULS Flight Activity (Flightaware)

Listeners: 0 out of 650 total

SUPE CTAF: 118.700

SUPU/SUPC Misc (Archives)
Paysandu, Uruguay

Feed Status: UP
Listen in your browser - HTML5 player(in browser, HTML5)
Click here to listen with your own player(launches your MP3 player)

SUPU 040900Z 10005KT 9999 FEW020TCU BKN070 FEW200 23/23 Q1010

SUPU Flight Activity (Flightaware)

Listeners: 0 out of 650 total

Chalkling Tower: 118.700
Paysandu Tower: 118.200

SVBC Gnd/Twr/App
Barcelona, Venezuela

Feed Status: DOWN
Offline since: 2020-03-17 04:09:06 UTC

SVBC 010202Z AUTO 02009KT NCD 28/19 Q1010

Barcelona Approach: 121.100
Barcelona Ground: 121.900
Barcelona Tower: 118.700
Emergency/Guard: 121.500
SAR: 123.100

SVPR Twr/App/FIR (Archives)
Ciudad Guayana, Venezuela

Feed Status: UP
Listen in your browser - HTML5 player(in browser, HTML5)
Click here to listen with your own player(launches your MP3 player)

SVPR Flight Activity (Flightaware)

Listeners: 0 out of 650 total

Emergency/Guard: 121.500
FIR 6: 126.000
Guayana Approach (Primary): 119.500
Guayana Approach (Secondary): 120.300
Guayana Tower (Primary): 118.000
Guayana Tower (Secondary): 123.500
SMC: 121.900

SVVA Gnd/Twr/App (Archives)
Valencia, Venezuela

Feed Status: UP
Listen in your browser - HTML5 player(in browser, HTML5)
Click here to listen with your own player(launches your MP3 player)

SVVA 312202Z AUTO 20005KT NCD 34/14 Q1008

SVVA Flight Activity (Flightaware)

Listeners: 0 out of 650 total

Libertador Approach: 119.300
Valencia Ground: 121.900
Valencia Tower: 121.200

TBPB Gnd/Twr/Radar/Center
Bridgetown, Barbados

Feed Status: DOWN
Offline since: 2020-03-31 15:48:40 UTC

TBPB 010200Z 08010KT 9999 SCT020 25/20 Q1013 NOSIG

Adams Approach/Departure: 129.350
Adams Approach/Departure: 128.850
Adams Ground: 121.900
Adams Tower: 118.700
Piarco Center: 123.700

TNCA Twr/Apron/FIR (Archives)
Oranjestad, Aruba

Feed Status: UP
Listen in your browser - HTML5 player(in browser, HTML5)
Click here to listen with your own player(launches your MP3 player)

TNCA 010200Z 09016KT 9999 SCT023 27/22 Q1011 NOSIG

TNCA Flight Activity (Flightaware)

Listeners: 0 out of 650 total

Beatrix Ground (Apron): 121.600
Beatrix Tower: 120.900
Beatrix Tower (secondary): 118.000
Curacao Control: 127.100
Emergency/Guard: 121.500
Search/Rescue: 123.100

TNCB Tower (Archives)
Kralendijk, Bonaire

Feed Status: UP
Listen in your browser - HTML5 player(in browser, HTML5)
Click here to listen with your own player(launches your MP3 player)

TNCB 010155Z AUTO 09015KT 9999 FEW031/// 27/22 Q1011

TNCB Flight Activity (Flightaware)

Listeners: 0 out of 650 total

Bonaire Tower: 118.700

TNCC Curacao Control (Archives)
Willemstad, Curacao

Feed Status: UP
Listen in your browser - HTML5 player(in browser, HTML5)
Click here to listen with your own player(launches your MP3 player)

TNCC 010200Z 10012KT 9999 FEW020 27/21 Q1012 NOSIG=

TNCC Flight Activity (Flightaware)

Listeners: 0 out of 650 total

Curacao Control: 124.100
Curacao Control: 127.100

TNCC Tower/Radar (Archives)
Willemstad, Curacao

Feed Status: UP
Listen in your browser - HTML5 player(in browser, HTML5)
Click here to listen with your own player(launches your MP3 player)

TNCC 010200Z 10012KT 9999 FEW020 27/21 Q1012 NOSIG=

TNCC Flight Activity (Flightaware)

Listeners: 0 out of 650 total

Hato Radar: 119.600
Hato Tower: 118.300

TNCC Twr/Radar/Control (Archives)
Willemstad, Curacao

Feed Status: UP
Listen in your browser - HTML5 player(in browser, HTML5)
Click here to listen with your own player(launches your MP3 player)

TNCC 010200Z 10012KT 9999 FEW020 27/21 Q1012 NOSIG=

TNCC Flight Activity (Flightaware)

Listeners: 0 out of 650 total

Curacao Control: 127.100
Hato Radar: 119.600
Hato Tower: 118.300

TNCE Info (Archives)
Oranjestad, Sint Eustatius

Feed Status: UP
Listen in your browser - HTML5 player(in browser, HTML5)
Click here to listen with your own player(launches your MP3 player)

TNCE 010155Z AUTO 08008KT //// // ///////// 24/20 Q1014 RE//

TNCE Flight Activity (Flightaware)

Listeners: 0 out of 650 total

Statia Info: 118.100

TTCP Gnd/Twr/App (Archives)
Scarborough, Trinidad and Tobago

Feed Status: UP
Listen in your browser - HTML5 player(in browser, HTML5)
Click here to listen with your own player(launches your MP3 player)

TTCP 010200Z 08004KT 9999 FEW016 25/18 Q1013 NOSIG

TTCP Flight Activity (Flightaware)

Listeners: 0 out of 650 total

Piarco Approach: 119.000
Robinson Ground: 121.700
Robinson Tower: 118.400

TTPP Apron/Gnd/Twr (Archives)
Port of Spain, Trinidad and Tobago

Feed Status: UP
Listen in your browser - HTML5 player(in browser, HTML5)
Click here to listen with your own player(launches your MP3 player)

TTPP 010200Z 10004KT 9999 FEW018 25/19 Q1013 NOSIG

TTPP Flight Activity (Flightaware)

Listeners: 0 out of 650 total

Piarco Apron: 121.750
Piarco Ground: 121.900
Piarco Tower: 118.100

TTPP Piarco Approach (Archives)
Port of Spain, Trinidad and Tobago

Feed Status: UP
Listen in your browser - HTML5 player(in browser, HTML5)
Click here to listen with your own player(launches your MP3 player)

TTPP 010200Z 10004KT 9999 FEW018 25/19 Q1013 NOSIG

TTPP Flight Activity (Flightaware)

Listeners: 0 out of 650 total

Piarco Approach: 119.550
Piarco Approach: 119.000
Piarco Approach (backup): 124.000

TTPP Piarco Center (Archives)
Port of Spain, Trinidad and Tobago

Feed Status: UP
Listen in your browser - HTML5 player(in browser, HTML5)
Click here to listen with your own player(launches your MP3 player)

TTPP 010200Z 10004KT 9999 FEW018 25/19 Q1013 NOSIG

TTPP Flight Activity (Flightaware)

Listeners: 0 out of 650 total

Piarco Center: 123.700
Piarco Center (Oceanic): 126.500
Piarco Center (South Sector): 125.400
Piarco Center Oceanic (Backup): 133.100

TXKF Tower/Ground (Archives)
Hamilton, Bermuda

Feed Status: UP
Listen in your browser - HTML5 player(in browser, HTML5)
Click here to listen with your own player(launches your MP3 player)

TXKF 010155Z 29003KT 9999 FEW035 SCT220 BKN250 19/13 Q1009

TXKF Flight Activity (Flightaware)

Listeners: 0 out of 650 total

Bermuda CTAF: 122.800
Bermuda Ground/Clearance: 124.500
Bermuda Tower: 118.100

ZNY Bermuda Sector (Archives)
Hamilton, Bermuda

Feed Status: UP
Listen in your browser - HTML5 player(in browser, HTML5)
Click here to listen with your own player(launches your MP3 player)

TXKF 010155Z 29003KT 9999 FEW035 SCT220 BKN250 19/13 Q1009

TXKF Flight Activity (Flightaware)

Listeners: 0 out of 650 total

New York Approach (Bermuda Sector) : 119.100
New York Center (Bermuda Sector): 128.500

UAAA Approach (Archives)
Almaty, Kazakhstan

Feed Status: UP
Listen in your browser - HTML5 player(in browser, HTML5)
Click here to listen with your own player(launches your MP3 player)

UAAA 010200Z 22002MPS 9999 SCT050 OVC100 09/M03 Q1009 R23L/CLRD65 NOSIG

UAAA Flight Activity (Flightaware)

Listeners: 0 out of 650 total

Almaty Approach: 124.800

UAAA Tower (Archives)
Almaty, Kazakhstan

Feed Status: UP
Listen in your browser - HTML5 player(in browser, HTML5)
Click here to listen with your own player(launches your MP3 player)

UAAA 010200Z 22002MPS 9999 SCT050 OVC100 09/M03 Q1009 R23L/CLRD65 NOSIG

UAAA Flight Activity (Flightaware)

Listeners: 0 out of 650 total

Almaty Tower: 119.400

UAAA Tower/Approach (Archives)
Almaty, Kazakhstan

Feed Status: UP
Listen in your browser - HTML5 player(in browser, HTML5)
Click here to listen with your own player(launches your MP3 player)

UAAA 010200Z 22002MPS 9999 SCT050 OVC100 09/M03 Q1009 R23L/CLRD65 NOSIG

UAAA Flight Activity (Flightaware)

Listeners: 0 out of 650 total

Almaty Approach: 124.800
Almaty Tower: 119.400

UKKK Gnd/Twr/ACC
Kyiv, Ukraine

Feed Status: DOWN
Offline since: 2020-02-16 19:49:23 UTC

UKKK 010200Z 23002MPS 8000 NSC M07/M11 Q1020 R26/190060 NOSIG

Emergency/Guard: 121.500
Kyiv Radar ACC: 122.775
Kyiv Radar ACC: 124.675
Kyiv Radar ACC: 127.725
Kyiv Radar ACC: 128.175
Kyiv Radar ACC: 125.300
Kyiv Zhuliany Ground: 119.000
Kyiv Zhuliany Tower: 120.700

UMGG Control
Gomel, Belarus

Feed Status: DOWN
Offline since: 2019-12-11 18:02:40 UTC

UMGG 010200Z 22006MPS 9999 SCT050CB BKN100 M01/M04 Q1017 R28/CLRD// NOSIG

Minsk Control: 119.125
Minsk Control: 120.125
Minsk Control: 120.575

UNNT Gnd/Twr/App/Radar/Misc (Archives)
Novosibirsk, Russia

Feed Status: UP
Listen in your browser - HTML5 player(in browser, HTML5)
Click here to listen with your own player(launches your MP3 player)

UNNT 010200Z 14002MPS CAVOK 00/M05 Q1023 R25/150060 R16/090070 NOSIG RMK QFE757/1010

UNNT Flight Activity (Flightaware)

Listeners: 13 out of 650 total

ACC_Novosibirsk-Control [5th military channel]: 128.500
ACC_Novosibirsk-Control [Southeast]: 126.100
ACC_Novosibirsk-Control [West]: 127.000
GPA_Kristallik [Severniy airfield]: 123.425
GPA_Sernisiy [Chkalovskiy airfield]: 124.750
GPA_Tomsk Information 1: 134.500
MIL_3 [3rd military channel]: 130.750
MIL_Larek [Shilovo facility]: 123.750
MIL_Maneken [Chkalovskiy airfield]: 123.550
MIL_Novosibirsk-1 [1st military channel]: 124.000
MIL_Noyabr' 31: 124.900
MIL_Trimaran: 124.500
SP_Air-to-Air: 123.450
SP_Air-to-Air 2: 123.400
SP_Common backup frequency: 129.000
SP_Emergency: 121.500
SP_Emergency 2: 123.100
SP_Flyoff: 124.375
SURF_Boarding: 163.425
SURF_Duty chart: 163.800
SURF_O&D Service: 163.325
SURF_Search & Rescue: 164.000
SURF_Security: 163.750
SURF_Tower surf: 163.650
SURF_Vehicles: 163.850
UNNT_Backup frequency: 127.100
UNNT_Novosibirsk-Approach: 127.500
UNNT_Novosibirsk-Ground: 121.700
UNNT_Novosibirsk-Radar: 122.000
UNNT_Novosibirsk-Tower: 118.500
UNNT_Novosibirsk-Transit: 131.600
UNNT_S7 FOCC: 131.925

UNOO Gnd/Tower/App (Archives)
Omsk, Russia

Feed Status: UP
Listen in your browser - HTML5 player(in browser, HTML5)
Click here to listen with your own player(launches your MP3 player)

UNOO 010200Z 14005MPS CAVOK 01/M04 Q1016 R25/CLRD60 NOSIG RMK QFE754

UNOO Flight Activity (Flightaware)

Listeners: 1 out of 650 total

Aerodrom Kalachevo: 123.300
Aerodrom Marianovka: 123.000
Emergency/Guard: 121.500
Novosibirsk Control (Sector 7): 132.500
Novosibirsk Control (Sector 8): 132.900
Omsk Approach (FL060-FL265): 131.200
Omsk Apron: 118.800
Omsk Start/Radar: 119.000
Omsk Taxiing: 121.700
Omsk Transit: 131.700
UNOS/OMSK-Severny: 124.000

UNTT Gnd/Info/Radar/Control (Archives)
Tomsk, Russia

Feed Status: UP
Listen in your browser - HTML5 player(in browser, HTML5)
Click here to listen with your own player(launches your MP3 player)

UNTT Flight Activity (Flightaware)

Listeners: 0 out of 650 total

Common Backup Frequency: 129.000
Emergency/Guard: 121.500
Novosibirsk Control (Sector 2): 126.100
Novosibirsk Control (Sector 3): 129.300
Novosibirsk Control (Sector 5): 132.300
Tomsk Ground: 118.800
Tomsk Information 1: 134.500
Tomsk Krug (Radar): 127.300
Tomsk Transit: 131.875
Troynik (Golovino): 122.400

URKK Gnd/Twr/App (Archives)
Krasnodar, Russia

Feed Status: UP
Listen in your browser - HTML5 player(in browser, HTML5)
Click here to listen with your own player(launches your MP3 player)

URKK 010200Z 33003MPS 9000 NSC 03/02 Q1015 R23L/CLRD70 TEMPO 0400 FG SCT002 RMK QFE757

URKK Flight Activity (Flightaware)

Listeners: 1 out of 650 total

Krasnodar Approach: 129.600
Krasnodar Ground: 119.000
Krasnodar Radar: 121.300
Krasnodar Tower: 118.200

URMT Twr/App/Control (Archives)
Stavropol, Russia

Feed Status: UP
Listen in your browser - HTML5 player(in browser, HTML5)
Click here to listen with your own player(launches your MP3 player)

URMT 010200Z 32003MPS CAVOK 05/02 Q1013 R25/150060 NOSIG RMK QFE721

URMT Flight Activity (Flightaware)

Listeners: 0 out of 650 total

Stavropol Approach: 120.300
Stavropol Control: 118.250
Stavropol Tower: 120.900

URSS Gnd/Twr/App (Archives)
Sochi, Russia

Feed Status: UP
Listen in your browser - HTML5 player(in browser, HTML5)
Click here to listen with your own player(launches your MP3 player)

URSS 010200Z 04004MPS 9999 NSC 08/03 Q1012 R02/010070 R06/010070 NOSIG RMK R06/00000MPS QFE757

URSS Flight Activity (Flightaware)

Listeners: 0 out of 650 total

Sochi Approach: 118.300
Sochi Approach: 119.700
Sochi District (Small Aircraft): 118.500
Sochi Start: 121.200
Sochi Taxi: 119.000
Sochi Tower: 124.600

USDD Gnd/Twr/App/Control (Archives)
Salekhard, Russia

Feed Status: UP
Listen in your browser - HTML5 player(in browser, HTML5)
Click here to listen with your own player(launches your MP3 player)

USDD 150530Z 05007MPS 9999 -SHRA BKN009CB 09/07 Q1002 R04/290060 NOSIG RMK QFE746/0994

USDD Flight Activity (Flightaware)

Listeners: 0 out of 650 total

Salekhard Control: 132.300
Salekhard Ground: 118.800
Salekhard Info: 125.200
Salekhard Krug: 120.800
Salekhard Tower: 118.600
Salekhard Transit: 131.700

USTR Gnd/Twr/App (Archives)
Tyumen, Russia

Feed Status: UP
Listen in your browser - HTML5 player(in browser, HTML5)
Click here to listen with your own player(launches your MP3 player)

USTR 010200Z 19004MPS CAVOK 01/M03 Q1008 R21/CLRD65 R30/CLRD65 NOSIG RMK QFE746/0995

USTR Flight Activity (Flightaware)

Listeners: 0 out of 650 total

Tyumen Approach: 126.100
Tyumen Control: 132.600
Tyumen Control: 133.600
Tyumen Info (Regional): 133.400
Tyumen Start: 118.200
Tyumen Transit: 131.800

USUU Twr/App/Control
Kurgan, Russia

Feed Status: DOWN
Offline since: 2019-09-20 03:54:23 UTC

Aerodromnaya 50: 164.100
Baggage Handling: 164.025
Kurgan Approach: 120.300
Kurgan Tower: 134.300
Kurgan/USUU Transit: 131.700
Kurtamysh: 122.450
Ural Control Sector 4: 119.700
USUL Tower: 129.600

UUDD Twr/App
Moscow, Russia

Feed Status: DOWN
Offline since: 2020-03-13 02:32:23 UTC

UUDD 010200Z VRB01MPS CAVOK M10/M15 Q1010 R32L/420240 NOSIG

Domodedovo Tower: 118.600
Moscow Approach: 125.300
Moscow Approach: 127.700

UUEE Twr/App/Radar (Archives)
Moscow, Russia

Feed Status: UP
Listen in your browser - HTML5 player(in browser, HTML5)
Click here to listen with your own player(launches your MP3 player)

UUEE 010200Z 24003MPS CAVOK M09/M15 Q1009 R24L/150051 R24R/190051 NOSIG

UUEE Flight Activity (Flightaware)

Listeners: 1 out of 650 total

Sheremetyevo Radar: 118.100
Sheremetyevo Radar/Departure: 126.600
Sheremetyevo Tower: 131.500
Sheremetyevo Tower (Rwy 24R/06L): 118.700

VCBI Director
Colombo, Sri Lanka

Feed Status: DOWN
Offline since: 2020-03-31 07:00:39 UTC

VCBI 010210Z 05005KT 9000 FEW018 26/25 Q1011 NOSIG

Colombo Director: 132.400

VGHS Tower
Dhaka, Bangladesh

Feed Status: DOWN
Offline since: 2020-03-31 17:09:40 UTC

VGHS 010200Z 00000KT 3500 HZ NSC 27/19 Q1011 NOSIG

Bangladesh Tower: 118.300

VHHH Approach 119.1 #1 (Archives)
Hong Kong, Hong Kong

Feed Status: UP
Listen in your browser - HTML5 player(in browser, HTML5)
Click here to listen with your own player(launches your MP3 player)

VHHH 010200Z 05004KT 9999 FEW009 SCT028 19/16 Q1017 NOSIG

VHHH Flight Activity (Flightaware)

Listeners: 1 out of 650 total

Hong Kong Approach: 119.100

VHHH ATIS (Archives)
Hong Kong, Hong Kong

Feed Status: UP
Listen in your browser - HTML5 player(in browser, HTML5)
Click here to listen with your own player(launches your MP3 player)

VHHH 010200Z 05004KT 9999 FEW009 SCT028 19/16 Q1017 NOSIG

VHHH Flight Activity (Flightaware)

Listeners: 0 out of 650 total

Hong Kong Arrival ATIS: 128.200

VHHH Clearance Delivery (Archives)
Hong Kong, Hong Kong

Feed Status: UP
Listen in your browser - HTML5 player(in browser, HTML5)
Click here to listen with your own player(launches your MP3 player)

VHHH 010200Z 05004KT 9999 FEW009 SCT028 19/16 Q1017 NOSIG

VHHH Flight Activity (Flightaware)

Listeners: 0 out of 650 total

Hong Kong Clearance Delivery: 129.900

VHHH Departure (Primary) (Archives)
Hong Kong, Hong Kong

Feed Status: UP
Listen in your browser - HTML5 player(in browser, HTML5)
Click here to listen with your own player(launches your MP3 player)

VHHH 010200Z 05004KT 9999 FEW009 SCT028 19/16 Q1017 NOSIG

VHHH Flight Activity (Flightaware)

Listeners: 0 out of 650 total

Hong Kong Departure: 123.800

VHHH Director #1 (Archives)
Hong Kong, Hong Kong

Feed Status: UP
Listen in your browser - HTML5 player(in browser, HTML5)
Click here to listen with your own player(launches your MP3 player)

VHHH 010200Z 05004KT 9999 FEW009 SCT028 19/16 Q1017 NOSIG

VHHH Flight Activity (Flightaware)

Listeners: 0 out of 650 total

Hong Kong Director: 119.500

VHHH Ground (Archives)
Hong Kong, Hong Kong

Feed Status: UP
Listen in your browser - HTML5 player(in browser, HTML5)
Click here to listen with your own player(launches your MP3 player)

VHHH 010200Z 05004KT 9999 FEW009 SCT028 19/16 Q1017 NOSIG

VHHH Flight Activity (Flightaware)

Listeners: 0 out of 650 total

Hong Kong Ground (North): 121.600
Hong Kong Ground (South): 122.550

VHHH Ground (North) (Archives)
Hong Kong, Hong Kong

Feed Status: UP
Listen in your browser - HTML5 player(in browser, HTML5)
Click here to listen with your own player(launches your MP3 player)

VHHH 010200Z 05004KT 9999 FEW009 SCT028 19/16 Q1017 NOSIG

VHHH Flight Activity (Flightaware)

Listeners: 1 out of 650 total

Hong Kong Ground (North): 121.600

VHHH Ground (South) (Archives)
Hong Kong, Hong Kong

Feed Status: UP
Listen in your browser - HTML5 player(in browser, HTML5)
Click here to listen with your own player(launches your MP3 player)

VHHH 010200Z 05004KT 9999 FEW009 SCT028 19/16 Q1017 NOSIG

VHHH Flight Activity (Flightaware)

Listeners: 0 out of 650 total

Hong Kong Ground (South): 122.550

VMMC Tower (Archives)
Taipa, China

Feed Status: UP
Listen in your browser - HTML5 player(in browser, HTML5)
Click here to listen with your own player(launches your MP3 player)

VMMC 010200Z 36013KT 4200 -RA BR FEW008 SCT020 18/16 Q1017 NOSIG

VMMC Flight Activity (Flightaware)

Listeners: 3 out of 650 total

Macau Tower: 118.000

VTBS Approach (East) (Archives)
Bangkok, Thailand

Feed Status: UP
Listen in your browser - HTML5 player(in browser, HTML5)
Click here to listen with your own player(launches your MP3 player)

VTBS 010200Z 17011KT 9999 FEW017 SCT025 31/25 Q1012 NOSIG

VTBS Flight Activity (Flightaware)

Listeners: 0 out of 650 total

Bangkok Approach (East): 122.350

VTBS Approach (North) (Archives)
Bangkok, Thailand

Feed Status: UP
Listen in your browser - HTML5 player(in browser, HTML5)
Click here to listen with your own player(launches your MP3 player)

VTBS 010200Z 17011KT 9999 FEW017 SCT025 31/25 Q1012 NOSIG

VTBS Flight Activity (Flightaware)

Listeners: 0 out of 650 total

Bangkok Approach (North): 121.700

VTBS Approach 119.1 (Archives)
Bangkok, Thailand

Feed Status: UP
Listen in your browser - HTML5 player(in browser, HTML5)
Click here to listen with your own player(launches your MP3 player)

VTBS 010200Z 17011KT 9999 FEW017 SCT025 31/25 Q1012 NOSIG

VTBS Flight Activity (Flightaware)

Listeners: 0 out of 650 total

Bangkok Approach: 119.100

VTBS Approach 119.4 (Archives)
Bangkok, Thailand

Feed Status: UP
Listen in your browser - HTML5 player(in browser, HTML5)
Click here to listen with your own player(launches your MP3 player)

VTBS 010200Z 17011KT 9999 FEW017 SCT025 31/25 Q1012 NOSIG

VTBS Flight Activity (Flightaware)

Listeners: 0 out of 650 total

Bangkok Approach: 119.400

VTBS Approach 120.3 (Archives)
Bangkok, Thailand

Feed Status: UP
Listen in your browser - HTML5 player(in browser, HTML5)
Click here to listen with your own player(launches your MP3 player)

VTBS 010200Z 17011KT 9999 FEW017 SCT025 31/25 Q1012 NOSIG

VTBS Flight Activity (Flightaware)

Listeners: 0 out of 650 total

Bangkok Approach: 120.300

VTBS Approach/Arrival (Archives)
Bangkok, Thailand

Feed Status: UP
Listen in your browser - HTML5 player(in browser, HTML5)
Click here to listen with your own player(launches your MP3 player)

VTBS 010200Z 17011KT 9999 FEW017 SCT025 31/25 Q1012 NOSIG

VTBS Flight Activity (Flightaware)

Listeners: 1 out of 650 total

Bangkok Approach: 124.350
Bangkok Approach: 125.200
Bangkok Approach: 124.700
Bangkok Approach: 126.300
Bangkok Approach: 133.400
Bangkok Arrival (VTBD): 125.500

VTBS Arrival 121.1 (Archives)
Bangkok, Thailand

Feed Status: UP
Listen in your browser - HTML5 player(in browser, HTML5)
Click here to listen with your own player(launches your MP3 player)

VTBS 010200Z 17011KT 9999 FEW017 SCT025 31/25 Q1012 NOSIG

VTBS Flight Activity (Flightaware)

Listeners: 0 out of 650 total

Bangkok Arrival: 121.100

VTBS Departure (Archives)
Bangkok, Thailand

Feed Status: UP
Listen in your browser - HTML5 player(in browser, HTML5)
Click here to listen with your own player(launches your MP3 player)

VTBS 010200Z 17011KT 9999 FEW017 SCT025 31/25 Q1012 NOSIG

VTBS Flight Activity (Flightaware)

Listeners: 0 out of 650 total

Bangkok Departure: 119.250

VTBS Ground (East) (Archives)
Bangkok, Thailand

Feed Status: UP
Listen in your browser - HTML5 player(in browser, HTML5)
Click here to listen with your own player(launches your MP3 player)

VTBS 010200Z 17011KT 9999 FEW017 SCT025 31/25 Q1012 NOSIG

VTBS Flight Activity (Flightaware)

Listeners: 0 out of 650 total

Bangkok Ground (East): 121.650

VTBS Ground (Main) (Archives)
Bangkok, Thailand

Feed Status: UP
Listen in your browser - HTML5 player(in browser, HTML5)
Click here to listen with your own player(launches your MP3 player)

VTBS 010200Z 17011KT 9999 FEW017 SCT025 31/25 Q1012 NOSIG

VTBS Flight Activity (Flightaware)

Listeners: 0 out of 650 total

Bangkok Ground (Main): 121.750

VTBS Ground (West) (Archives)
Bangkok, Thailand

Feed Status: UP
Listen in your browser - HTML5 player(in browser, HTML5)
Click here to listen with your own player(launches your MP3 player)

VTBS 010200Z 17011KT 9999 FEW017 SCT025 31/25 Q1012 NOSIG

VTBS Flight Activity (Flightaware)

Listeners: 0 out of 650 total

Bangkok Ground (West): 121.950

VTBS Tower (Archives)
Bangkok, Thailand

Feed Status: UP
Listen in your browser - HTML5 player(in browser, HTML5)
Click here to listen with your own player(launches your MP3 player)

VTBS 010200Z 17011KT 9999 FEW017 SCT025 31/25 Q1012 NOSIG

VTBS Flight Activity (Flightaware)

Listeners: 0 out of 650 total

Bangkok Tower (Rwy 01L/19R): 119.000
Bangkok Tower (Rwy 01R/19L): 118.200

VTBS Tower (Rwy 01L/19R) (Archives)
Bangkok, Thailand

Feed Status: UP
Listen in your browser - HTML5 player(in browser, HTML5)
Click here to listen with your own player(launches your MP3 player)

VTBS 010200Z 17011KT 9999 FEW017 SCT025 31/25 Q1012 NOSIG

VTBS Flight Activity (Flightaware)

Listeners: 0 out of 650 total

Bangkok Tower (Rwy 01L/19R): 119.000

VTBS Tower (Rwy 01R/19L) (Archives)
Bangkok, Thailand

Feed Status: UP
Listen in your browser - HTML5 player(in browser, HTML5)
Click here to listen with your own player(launches your MP3 player)

VTBS 010200Z 17011KT 9999 FEW017 SCT025 31/25 Q1012 NOSIG

VTBS Flight Activity (Flightaware)

Listeners: 0 out of 650 total

Bangkok Tower (Rwy 01R/19L): 118.200

VTSS Approach (Archives)
Songkhla, Thailand

Feed Status: UP
Listen in your browser - HTML5 player(in browser, HTML5)
Click here to listen with your own player(launches your MP3 player)

VTSS 010200Z 08004KT 9999 FEW020 31/25 Q1011 NOSIG

VTSS Flight Activity (Flightaware)

Listeners: 0 out of 650 total

Hat Yai Approach: 126.700

WAHH Approach
Yogyakarta, Indonesia

Feed Status: DOWN
Offline since: 2019-01-09 17:03:03 UTC

Adisutjipto Approach: 123.400

WBKK Gnd/Twr/App (Archives)
Kota Kinabalu, Malaysia

Feed Status: UP
Listen in your browser - HTML5 player(in browser, HTML5)
Click here to listen with your own player(launches your MP3 player)

WBKK 010200Z VRB05KT 9999 FEW015 32/25 Q1011 NOSIG


Listeners: 0 out of 650 total

Kinabalu Director: 119.100
Kinabalu Ground: 121.600
Kinabalu Radar: 126.100
Kinabalu Radar: 132.450
Kinabalu Tower: 118.300

WBKK Gnd/Twr/Radar/Control (Archives)
Kota Kinabalu, Malaysia

Feed Status: UP
Listen in your browser - HTML5 player(in browser, HTML5)
Click here to listen with your own player(launches your MP3 player)

WBKK 010200Z VRB05KT 9999 FEW015 32/25 Q1011 NOSIG


Listeners: 0 out of 650 total

Kinabalu Director: 119.100
Kinabalu Ground: 121.600
Kinabalu Radar: 126.100
Kinabalu Radar: 132.450
Kinabalu Radar: 128.300
Kinabalu Tower: 118.300

WBKS Approach (Archives)
Sandakan, Malaysia

Feed Status: UP
Listen in your browser - HTML5 player(in browser, HTML5)
Click here to listen with your own player(launches your MP3 player)

WBKS 010200Z 03005KT 350V080 9999 SCT015 30/25 Q1012


Listeners: 0 out of 650 total

Sandakan Approach/Departure: 123.200

WBKS ATIS (Archives)
Sandakan, Malaysia

Feed Status: UP
Listen in your browser - HTML5 player(in browser, HTML5)
Click here to listen with your own player(launches your MP3 player)

WBKS 010200Z 03005KT 350V080 9999 SCT015 30/25 Q1012


Listeners: 0 out of 650 total

Sandakan ATIS: 128.200

WBKS Emergency/Guard (Archives)
Sandakan, Malaysia

Feed Status: UP
Listen in your browser - HTML5 player(in browser, HTML5)
Click here to listen with your own player(launches your MP3 player)

WBKS 010200Z 03005KT 350V080 9999 SCT015 30/25 Q1012


Listeners: 1 out of 650 total

Emergency/Guard: 121.500

WBKS Gnd/Twr/App/Guard (Archives)
Sandakan, Malaysia

Feed Status: UP
Listen in your browser - HTML5 player(in browser, HTML5)
Click here to listen with your own player(launches your MP3 player)

WBKS 010200Z 03005KT 350V080 9999 SCT015 30/25 Q1012


Listeners: 0 out of 650 total

Emergency/Guard: 121.500
Sandakan Approach/Departure: 123.200
Sandakan Ground: 121.900
Sandakan Tower: 122.050

WBKS Ground (Archives)
Sandakan, Malaysia

Feed Status: UP
Listen in your browser - HTML5 player(in browser, HTML5)
Click here to listen with your own player(launches your MP3 player)

WBKS 010200Z 03005KT 350V080 9999 SCT015 30/25 Q1012


Listeners: 0 out of 650 total

Sandakan Ground: 121.900

WBKS Tower (Archives)
Sandakan, Malaysia

Feed Status: UP
Listen in your browser - HTML5 player(in browser, HTML5)
Click here to listen with your own player(launches your MP3 player)

WBKS 010200Z 03005KT 350V080 9999 SCT015 30/25 Q1012


Listeners: 0 out of 650 total

Sandakan Tower: 122.050

WMKB Radar (Archives)
Penang, Malaysia

Feed Status: UP
Listen in your browser - HTML5 player(in browser, HTML5)
Click here to listen with your own player(launches your MP3 player)

WMKB 010200Z VRB02KT 6000 FEW020 31/27 Q1011 NOSIG


Listeners: 3 out of 650 total

Butterworth Radar: 125.800

WMKK Control/Info/Radar (Archives)
Sepang, Malaysia

Feed Status: UP
Listen in your browser - HTML5 player(in browser, HTML5)
Click here to listen with your own player(launches your MP3 player)

WMKK 010200Z VRB01KT 9999 FEW018 30/23 Q1011 NOSIG


Listeners: 1 out of 650 total

Lumpur Departure: 120.350
Lumpur Departure: 124.650
Lumpur Departure: 125.100
Lumpur Departure: 135.250
Lumpur Departure: 135.750
Lumpur Information (North): 134.650
Lumpur Information (South): 126.100
Lumpur Radar: 133.700
Lumpur Radar: 132.600
Lumpur Radar: 133.400
Lumpur Radar: 119.450
Lumpur Radar: 125.850
Lumpur Radar: 118.650
Lumpur Radar: 124.200
Lumpur Radar: 121.250
Lumpur Radar: 128.350
Lumpur Radar (East): 134.250
Lumpur Radar (North): 132.800
Lumpur Radar (South): 123.750

WMSA Del/Gnd/Twr/App (Archives)
Subang, Malaysia

Feed Status: UP
Listen in your browser - HTML5 player(in browser, HTML5)
Click here to listen with your own player(launches your MP3 player)

WMSA 010200Z VRB02KT 9000 FEW017CB 30/25 Q1011


Listeners: 1 out of 650 total

Lumpur Approach: 119.450
Lumpur Director: 124.200
Subang Clearance Delivery: 126.000
Subang Ground: 121.900
Subang Tower: 118.200

YADG CTAF (Archives)
Sellicks Hill, South Australia, Australia

Feed Status: UP
Listen in your browser - HTML5 player(in browser, HTML5)
Click here to listen with your own player(launches your MP3 player)

YADG Flight Activity (Flightaware)

Listeners: 0 out of 650 total

Aldinga CTAF: 127.150

YBAF Gnd/Twr #2 (Archives)
Brisbane, Queensland, Australia

Feed Status: UP
Listen in your browser - HTML5 player(in browser, HTML5)
Click here to listen with your own player(launches your MP3 player)

YBAF Flight Activity (Flightaware)

Listeners: 4 out of 650 total

Brisbane Ground: 119.900
Brisbane Tower (North): 123.600
Brisbane Tower/CTAF (South): 118.100

YBAS Tower/Center (Archives)
Alice Springs, Northern Territory, Australia

Feed Status: UP
Listen in your browser - HTML5 player(in browser, HTML5)
Click here to listen with your own player(launches your MP3 player)

YBAS 010200Z 08014KT 9999 FEW040 SCT100 BKN175 26/20 Q1014

YBAS Flight Activity (Flightaware)

Listeners: 0 out of 650 total

Alice Tower/CTAF: 118.300
Melbourne Center (above FL280): 128.850
Melbourne Center (below FL280): 119.800

YBBN Gnd/Twr/App/Dep
Brisbane, Queensland, Australia

Feed Status: DOWN
Offline since: 2020-03-29 21:19:40 UTC

YBBN 010200Z AUTO 13010KT 9999 // SCT041 SCT046 SCT055 28/18 Q1016

Approach: 123.500
Brisbane Approach: 124.700
Brisbane Approach/Departure: 125.600
Brisbane Departure: 128.300
Brisbane Departure: 133.450
Brisbane Ground: 121.700
Brisbane Tower: 120.500

YBCG Approach (Archives)
Gold Coast City, Queensland, Australia

Feed Status: UP
Listen in your browser - HTML5 player(in browser, HTML5)
Click here to listen with your own player(launches your MP3 player)

YBCG 010200Z AUTO 14013KT 9999 // SCT039 28/18 Q1016

YBCG Flight Activity (Flightaware)

Listeners: 0 out of 650 total

Brisbane Approach: 123.500

YBCG Area CTAF (Archives)
Gold Coast City, Queensland, Australia

Feed Status: UP
Listen in your browser - HTML5 player(in browser, HTML5)
Click here to listen with your own player(launches your MP3 player)

YBCG 010200Z AUTO 14013KT 9999 // SCT039 28/18 Q1016

YBCG Flight Activity (Flightaware)

Listeners: 0 out of 650 total

Gold Coast Area CTAF: 126.700

YBCG Brisbane Centre (Archives)
Gold Coast City, Queensland, Australia

Feed Status: UP
Listen in your browser - HTML5 player(in browser, HTML5)
Click here to listen with your own player(launches your MP3 player)

YBCG 010200Z AUTO 14013KT 9999 // SCT039 28/18 Q1016

YBCG Flight Activity (Flightaware)

Listeners: 0 out of 650 total

Brisbane Centre/Radar: 119.500

YBCG Ground (Archives)
Gold Coast City, Queensland, Australia

Feed Status: UP
Listen in your browser - HTML5 player(in browser, HTML5)
Click here to listen with your own player(launches your MP3 player)

YBCG 010200Z AUTO 14013KT 9999 // SCT039 28/18 Q1016

YBCG Flight Activity (Flightaware)

Listeners: 0 out of 650 total

Gold Coast Ground: 121.800

YBCG Ground/Tower (Archives)
Gold Coast City, Queensland, Australia

Feed Status: UP
Listen in your browser - HTML5 player(in browser, HTML5)
Click here to listen with your own player(launches your MP3 player)

YBCG 010200Z AUTO 14013KT 9999 // SCT039 28/18 Q1016

YBCG Flight Activity (Flightaware)

Listeners: 1 out of 650 total

Gold Coast Ground: 121.800
Gold Coast Tower: 118.700

YBCG Tower (Archives)
Gold Coast City, Queensland, Australia

Feed Status: UP
Listen in your browser - HTML5 player(in browser, HTML5)
Click here to listen with your own player(launches your MP3 player)

YBCG 010200Z AUTO 14013KT 9999 // SCT039 28/18 Q1016

YBCG Flight Activity (Flightaware)

Listeners: 1 out of 650 total

Gold Coast Tower: 118.700

YBCS App/Dep #1 (Archives)
Cairns, Queensland, Australia

Feed Status: UP
Listen in your browser - HTML5 player(in browser, HTML5)
Click here to listen with your own player(launches your MP3 player)

YBCS 010200Z AUTO 12009KT 9999 // SCT039 30/22 Q1012 NOSIG

YBCS Flight Activity (Flightaware)

Listeners: 0 out of 650 total

Cairns Approach/Departure: 118.400

YBCS App/Dep #2 (Archives)
Cairns, Queensland, Australia

Feed Status: UP
Listen in your browser - HTML5 player(in browser, HTML5)
Click here to listen with your own player(launches your MP3 player)

YBCS 010200Z AUTO 12009KT 9999 // SCT039 30/22 Q1012 NOSIG

YBCS Flight Activity (Flightaware)

Listeners: 0 out of 650 total

Cairns Approach/Departure: 126.100

YBCS App/Dep (all) (Archives)
Cairns, Queensland, Australia

Feed Status: UP
Listen in your browser - HTML5 player(in browser, HTML5)
Click here to listen with your own player(launches your MP3 player)

YBCS 010200Z AUTO 12009KT 9999 // SCT039 30/22 Q1012 NOSIG

YBCS Flight Activity (Flightaware)

Listeners: 0 out of 650 total

Cairns Approach/Departure: 126.100
Cairns Approach/Departure: 118.400

YBCS Brisbane Centre (Archives)
Cairns, Queensland, Australia

Feed Status: UP
Listen in your browser - HTML5 player(in browser, HTML5)
Click here to listen with your own player(launches your MP3 player)

YBCS 010200Z AUTO 12009KT 9999 // SCT039 30/22 Q1012 NOSIG

YBCS Flight Activity (Flightaware)

Listeners: 0 out of 650 total

Brisbane Centre: 121.200

YBCS Emergency/Guard (Archives)
Cairns, Queensland, Australia

Feed Status: UP
Listen in your browser - HTML5 player(in browser, HTML5)
Click here to listen with your own player(launches your MP3 player)

YBCS 010200Z AUTO 12009KT 9999 // SCT039 30/22 Q1012 NOSIG

YBCS Flight Activity (Flightaware)

Listeners: 0 out of 650 total

Emergency/Guard: 121.500

YBCS Ground (Archives)
Cairns, Queensland, Australia

Feed Status: UP
Listen in your browser - HTML5 player(in browser, HTML5)
Click here to listen with your own player(launches your MP3 player)

YBCS 010200Z AUTO 12009KT 9999 // SCT039 30/22 Q1012 NOSIG

YBCS Flight Activity (Flightaware)

Listeners: 0 out of 650 total

Cairns Ground: 121.700

YBCS Ground/Tower (Archives)
Cairns, Queensland, Australia

Feed Status: UP
Listen in your browser - HTML5 player(in browser, HTML5)
Click here to listen with your own player(launches your MP3 player)

YBCS 010200Z AUTO 12009KT 9999 // SCT039 30/22 Q1012 NOSIG

YBCS Flight Activity (Flightaware)

Listeners: 0 out of 650 total

Cairns Ground: 121.700
Cairns Tower: 124.900

YBCS Tower (Archives)
Cairns, Queensland, Australia

Feed Status: UP
Listen in your browser - HTML5 player(in browser, HTML5)
Click here to listen with your own player(launches your MP3 player)

YBCS 010200Z AUTO 12009KT 9999 // SCT039 30/22 Q1012 NOSIG

YBCS Flight Activity (Flightaware)

Listeners: 0 out of 650 total

Cairns Tower: 124.900

YBCV CTAF/Brisbane Center
Charleville, Queensland, Australia

Feed Status: DOWN
Offline since: 2020-01-16 04:54:39 UTC

YBCV 010200Z AUTO 35005KT 320V020 9999 // NCD 31/14 Q1015

Brisbane Center: 124.800
Charleville CTAF/UNICOM: 126.700

YBDG CTAF (Archives)
Bendigo, Victoria, Australia

Feed Status: UP
Listen in your browser - HTML5 player(in browser, HTML5)
Click here to listen with your own player(launches your MP3 player)

YBDG Flight Activity (Flightaware)

Listeners: 0 out of 650 total

Bendigo CTAF: 119.300

YBOK Del/Gnd/Twr/App (Archives)
Oakey, Queensland, Australia

Feed Status: UP
Listen in your browser - HTML5 player(in browser, HTML5)
Click here to listen with your own player(launches your MP3 player)

YBOK Flight Activity (Flightaware)

Listeners: 1 out of 650 total

Brisbane Center/FSS: 121.200
Oakey Approach: 125.400
Oakey Approach: 123.700
Oakey Approach (Final): 135.850
Oakey Clearance Delivery: 133.350
Oakey CTAF (+YTWB/YBWW): 127.650
Oakey Ground: 121.900
Oakey Tower: 120.100

YBTL Approach/Departure (Archives)
Townsville, Queensland, Australia

Feed Status: UP
Listen in your browser - HTML5 player(in browser, HTML5)
Click here to listen with your own player(launches your MP3 player)

YBTL 010200Z 06013KT 9999 FEW035 BKN350 30/21 Q1013

YBTL Flight Activity (Flightaware)

Listeners: 0 out of 650 total

Townsville Approach/Departure: 126.800

YBTL ATIS (Archives)
Townsville, Queensland, Australia

Feed Status: UP
Listen in your browser - HTML5 player(in browser, HTML5)
Click here to listen with your own player(launches your MP3 player)

YBTL 010200Z 06013KT 9999 FEW035 BKN350 30/21 Q1013

YBTL Flight Activity (Flightaware)

Listeners: 0 out of 650 total

Townsville ATIS: 133.500

YBTL Brisbane Center (Archives)
Townsville, Queensland, Australia

Feed Status: UP
Listen in your browser - HTML5 player(in browser, HTML5)
Click here to listen with your own player(launches your MP3 player)

YBTL 010200Z 06013KT 9999 FEW035 BKN350 30/21 Q1013

YBTL Flight Activity (Flightaware)

Listeners: 0 out of 650 total

Brisbane Center: 120.550

YBTL Clearance Delivery (Archives)
Townsville, Queensland, Australia

Feed Status: UP
Listen in your browser - HTML5 player(in browser, HTML5)
Click here to listen with your own player(launches your MP3 player)

YBTL 010200Z 06013KT 9999 FEW035 BKN350 30/21 Q1013

YBTL Flight Activity (Flightaware)

Listeners: 0 out of 650 total

Townsville Clearance Delivery: 128.100

YBTL Ground (Archives)
Townsville, Queensland, Australia

Feed Status: UP
Listen in your browser - HTML5 player(in browser, HTML5)
Click here to listen with your own player(launches your MP3 player)

YBTL 010200Z 06013KT 9999 FEW035 BKN350 30/21 Q1013

YBTL Flight Activity (Flightaware)

Listeners: 0 out of 650 total

Townsville Ground: 119.450

YBTL Tower (Archives)
Townsville, Queensland, Australia

Feed Status: UP
Listen in your browser - HTML5 player(in browser, HTML5)
Click here to listen with your own player(launches your MP3 player)

YBTL 010200Z 06013KT 9999 FEW035 BKN350 30/21 Q1013

YBTL Flight Activity (Flightaware)

Listeners: 0 out of 650 total

Townsville Tower: 118.300

YGAW CTAF (Archives)
Gawler, South Australia, Australia

Feed Status: UP
Listen in your browser - HTML5 player(in browser, HTML5)
Click here to listen with your own player(launches your MP3 player)

METAR NOT AVAILABLE

YGAW Flight Activity (Flightaware)

Listeners: 0 out of 650 total

Gawler CTAF: 126.550

YGLA CTAF (Archives)
Gladstone, Queensland, Australia

Feed Status: UP
Listen in your browser - HTML5 player(in browser, HTML5)
Click here to listen with your own player(launches your MP3 player)

YGLA 010200Z AUTO 06009KT 9999 // BKN032 29/19 Q1015 RF00.0/000.0

YGLA Flight Activity (Flightaware)

Listeners: 0 out of 650 total

Gladstone CTF/Multicom: 118.800

YGTH AWIS (Archives)
Griffith, New South Wales, Australia

Feed Status: UP
Listen in your browser - HTML5 player(in browser, HTML5)
Click here to listen with your own player(launches your MP3 player)

YGTH 010200Z AUTO 36009KT 330V030 9999 // BKN074 28/12 Q1015

YGTH Flight Activity (Flightaware)

Listeners: 0 out of 650 total

Griffith AWIS Weather: 132.950

YGTH CTAF (Archives)
Griffith, New South Wales, Australia

Feed Status: UP
Listen in your browser - HTML5 player(in browser, HTML5)
Click here to listen with your own player(launches your MP3 player)

YGTH 010200Z AUTO 36009KT 330V030 9999 // BKN074 28/12 Q1015

YGTH Flight Activity (Flightaware)

Listeners: 0 out of 650 total

Griffith CTAF: 126.550

YMHB Gnd/Twr/Centre (Archives)
Cambridge, Tasmania, Australia

Feed Status: UP
Listen in your browser - HTML5 player(in browser, HTML5)
Click here to listen with your own player(launches your MP3 player)

YMHB 010200Z 15009KT 9999 FEW038 BKN050 18/09 Q1018 RF00.0/000.0

YMHB Flight Activity (Flightaware)

Listeners: 0 out of 650 total

Hobart Ground: 121.700
Hobart Tower: 118.100
Melbourne Centre: 125.550

YMIA CTAF/Melbourne Center (Archives)
Mildura, Victoria, Australia

Feed Status: UP
Listen in your browser - HTML5 player(in browser, HTML5)
Click here to listen with your own player(launches your MP3 player)

YMIA 010200Z AUTO 08002KT 4500 // SCT067 SCT077 OVC094 15/14 Q1015

YMIA Flight Activity (Flightaware)

Listeners: 0 out of 650 total

Melbourne Center: 112.100
Melbourne Center: 132.600
Mildura CTAF: 118.800

YMML Twr/App/Center (Archives)
Melbourne, Victoria, Australia

Feed Status: UP
Listen in your browser - HTML5 player(in browser, HTML5)
Click here to listen with your own player(launches your MP3 player)

YMML 010200Z 10005KT 020V140 9999 FEW048 22/10 Q1016 NOSIG

YMML Flight Activity (Flightaware)

Listeners: 3 out of 650 total

Air Ambulance: 132.750
DSE & Other Company: 119.100
Essendon Tower: 125.100
Inter-Pilot: 123.450
Jetstar Company: 130.925
Melbourne ACD: 127.200
Melbourne Approach: 132.000
Melbourne Centre: 130.300
Melbourne Centre: 128.500
Melbourne Centre: 126.800
Melbourne Centre: 125.800
Melbourne Centre: 125.700
Melbourne Centre: 125.200
Melbourne Centre: 123.750
Melbourne Centre: 122.400
Melbourne Departure: 118.900
Melbourne Departure: 129.400
Melbourne Tower: 120.500
Moorabbin Tower (East): 118.100
Moorabbin Tower (West): 123.000
Police Air Wing: 131.600
Qantas Company: 130.850
Qantas Company: 129.500
Rex Company: 126.450
Royal Victorian Aero Club Company: 128.700
Royal Victorian Aero Club Company: 133.400

YPAD Del/Gnd/Twr/App (Archives)
Adelaide, South Australia, Australia

Feed Status: UP
Listen in your browser - HTML5 player(in browser, HTML5)
Click here to listen with your own player(launches your MP3 player)

YPAD 010200Z 01010KT 9999 FEW035 BKN110 22/10 Q1013 FM0400 10012KT 9999 -RA NSC

YPAD Flight Activity (Flightaware)

Listeners: 0 out of 650 total

Adelaide Approach (East of Adelaide): 118.200
Adelaide Approach (East of Adelaide): 130.450
Adelaide Approach (Kangaroo Island): 123.050
Adelaide Approach (North of Adelaide): 128.600
Adelaide Approach (West of Adelaide): 124.200
Adelaide Clearance Delivery: 126.100
Adelaide Ground: 121.700
Adelaide Tower: 120.500

YPAD Gnd/Twr/App/Center (Archives)
Adelaide, South Australia, Australia

Feed Status: UP
Listen in your browser - HTML5 player(in browser, HTML5)
Click here to listen with your own player(launches your MP3 player)

YPAD 010200Z 01010KT 9999 FEW035 BKN110 22/10 Q1013 FM0400 10012KT 9999 -RA NSC

YPAD Flight Activity (Flightaware)

Listeners: 1 out of 650 total

Adelaide Approach (East of Adelaide): 118.200
Adelaide Approach (East of Adelaide): 130.450
Adelaide Approach (Kangaroo Island): 123.050
Adelaide Approach (North of Adelaide): 128.600
Adelaide Approach (West of Adelaide): 124.200
Adelaide Clearance Delivery: 126.100
Adelaide Ground: 121.700
Adelaide Tower: 120.500
Flight Watch: 135.750
Melbourne Centre: 124.300
Melbourne Centre ( East of Adelaide): 125.300
Melbourne Centre ( Pt Augusta, Pt Pirie, Whyalla): 123.900
Melbourne Centre (Mildura): 122.100
Melbourne Centre (North of Adelaide): 122.400
Melbourne Centre (Pt Lincoln): 125.900
Melbourne Centre (West of Adelaide ): 127.050

YPDN Gnd/Twr/App/Dep (Archives)
Darwin, Northern Territory, Australia

Feed Status: UP
Listen in your browser - HTML5 player(in browser, HTML5)
Click here to listen with your own player(launches your MP3 player)

YPDN 010200Z 05004KT 020V090 9999 FEW040 32/22 Q1010 FM0300 32010KT 9999 FEW040

YPDN Flight Activity (Flightaware)

Listeners: 0 out of 650 total

Darwin Approach: 134.100
Darwin Arrival: 125.200
Darwin Departure: 119.550
Darwin Ground: 121.800
Darwin Tower: 133.100

YPJT Gnd/Twr (Archives)
Perth, Western Australia, Australia

Feed Status: UP
Listen in your browser - HTML5 player(in browser, HTML5)
Click here to listen with your own player(launches your MP3 player)

YPJT 010200Z AUTO 05006KT 9999 // ////// 23/13 Q1014 RF00.0/000.0

YPJT Flight Activity (Flightaware)

Listeners: 0 out of 650 total

Jandakot Ground: 124.300
Jandakot Tower: 119.400
Jandakot Tower/CTAF: 118.100

YPMQ CTAF (Archives)
Port Macquarie, New South Wales, Australia

Feed Status: UP
Listen in your browser - HTML5 player(in browser, HTML5)
Click here to listen with your own player(launches your MP3 player)

YPMQ Flight Activity (Flightaware)

Listeners: 0 out of 650 total

Port Macquarie CTAF/Multicom: 118.100

YPPF Ground (Archives)
Parafield, South Australia, Australia

Feed Status: UP
Listen in your browser - HTML5 player(in browser, HTML5)
Click here to listen with your own player(launches your MP3 player)

YPPF Flight Activity (Flightaware)

Listeners: 1 out of 650 total

Parafield Ground: 119.900

YPPF Tower #1 (Archives)
Parafield, South Australia, Australia

Feed Status: UP
Listen in your browser - HTML5 player(in browser, HTML5)
Click here to listen with your own player(launches your MP3 player)

YPPF Flight Activity (Flightaware)

Listeners: 0 out of 650 total

Parafield Tower: 118.700

YPPF Tower #2 (Archives)
Parafield, South Australia, Australia

Feed Status: UP
Listen in your browser - HTML5 player(in browser, HTML5)
Click here to listen with your own player(launches your MP3 player)

YPPF Flight Activity (Flightaware)

Listeners: 1 out of 650 total

Parafield Tower: 124.600

YPPH Approach (Archives)
Perth, Western Australia, Australia

Feed Status: UP
Listen in your browser - HTML5 player(in browser, HTML5)
Click here to listen with your own player(launches your MP3 player)

YPPH 010200Z 10004KT CAVOK 23/12 Q1014

YPPH Flight Activity (Flightaware)

Listeners: 2 out of 650 total

Perth Approach: 123.600

YPPH Departure (Archives)
Perth, Western Australia, Australia

Feed Status: UP
Listen in your browser - HTML5 player(in browser, HTML5)
Click here to listen with your own player(launches your MP3 player)

YPPH 010200Z 10004KT CAVOK 23/12 Q1014

YPPH Flight Activity (Flightaware)

Listeners: 2 out of 650 total

Perth Departure: 118.700

YPPH Ground (Archives)
Perth, Western Australia, Australia

Feed Status: UP
Listen in your browser - HTML5 player(in browser, HTML5)
Click here to listen with your own player(launches your MP3 player)

YPPH 010200Z 10004KT CAVOK 23/12 Q1014

YPPH Flight Activity (Flightaware)

Listeners: 0 out of 650 total

Perth Ground: 121.700

YPPH Tower (Archives)
Perth, Western Australia, Australia

Feed Status: UP
Listen in your browser - HTML5 player(in browser, HTML5)
Click here to listen with your own player(launches your MP3 player)

YPPH 010200Z 10004KT CAVOK 23/12 Q1014

YPPH Flight Activity (Flightaware)

Listeners: 2 out of 650 total

Perth Tower: 127.400

YROM CTAF/Center (Archives)
Roma, Queensland, Australia

Feed Status: UP
Listen in your browser - HTML5 player(in browser, HTML5)
Click here to listen with your own player(launches your MP3 player)

METAR NOT AVAILABLE

YROM Flight Activity (Flightaware)

Listeners: 0 out of 650 total

Brisbane Center: 126.000
Roma CTAF: 126.950

YRYW 122.5 (Archives)
Raywood, Victoria, Australia

Feed Status: UP
Listen in your browser - HTML5 player(in browser, HTML5)
Click here to listen with your own player(launches your MP3 player)

METAR NOT AVAILABLE

YRYW Flight Activity (Flightaware)

Listeners: 0 out of 650 total


YRYW 122.7 (Archives)
Raywood, Victoria, Australia

Feed Status: UP
Listen in your browser - HTML5 player(in browser, HTML5)
Click here to listen with your own player(launches your MP3 player)

METAR NOT AVAILABLE

YRYW Flight Activity (Flightaware)

Listeners: 0 out of 650 total


YRYW 122.9 (Archives)
Raywood, Victoria, Australia

Feed Status: UP
Listen in your browser - HTML5 player(in browser, HTML5)
Click here to listen with your own player(launches your MP3 player)

METAR NOT AVAILABLE

YRYW Flight Activity (Flightaware)

Listeners: 0 out of 650 total


YRYW CTAF (Archives)
Raywood, Victoria, Australia

Feed Status: UP
Listen in your browser - HTML5 player(in browser, HTML5)
Click here to listen with your own player(launches your MP3 player)

METAR NOT AVAILABLE

YRYW Flight Activity (Flightaware)

Listeners: 0 out of 650 total

Raywood CTAF: 126.700

YSBK ATIS (Archives)
Bankstown, New South Wales, Australia

Feed Status: UP
Listen in your browser - HTML5 player(in browser, HTML5)
Click here to listen with your own player(launches your MP3 player)

YSBK Flight Activity (Flightaware)

Listeners: 0 out of 650 total

Bankstown ATIS: 120.900

YSBK Tower (Archives)
Bankstown, New South Wales, Australia

Feed Status: UP
Listen in your browser - HTML5 player(in browser, HTML5)
Click here to listen with your own player(launches your MP3 player)

YSBK Flight Activity (Flightaware)

Listeners: 0 out of 650 total

Bankstown Tower: 132.800

YSCB App/Dep (Archives)
Canberra, Australian Capital Territory, Australia

Feed Status: UP
Listen in your browser - HTML5 player(in browser, HTML5)
Click here to listen with your own player(launches your MP3 player)

YSCB 010200Z AUTO 03006KT 360V060 9999 // BKN038 BKN045 23/13 Q1019

YSCB Flight Activity (Flightaware)

Listeners: 0 out of 650 total

Canberra Approach/Departure: 124.500

YSCB App/Dep/Center (Archives)
Canberra, Australian Capital Territory, Australia

Feed Status: UP
Listen in your browser - HTML5 player(in browser, HTML5)
Click here to listen with your own player(launches your MP3 player)

YSCB 010200Z AUTO 03006KT 360V060 9999 // BKN038 BKN045 23/13 Q1019

YSCB Flight Activity (Flightaware)

Listeners: 0 out of 650 total

Melbourne Center: 125.900

YSCB ATIS (Archives)
Canberra, Australian Capital Territory, Australia

Feed Status: UP
Listen in your browser - HTML5 player(in browser, HTML5)
Click here to listen with your own player(launches your MP3 player)

YSCB 010200Z AUTO 03006KT 360V060 9999 // BKN038 BKN045 23/13 Q1019

YSCB Flight Activity (Flightaware)

Listeners: 0 out of 650 total

Canberra ATIS: 127.450

YSCB Ground/Tower (Archives)
Canberra, Australian Capital Territory, Australia

Feed Status: UP
Listen in your browser - HTML5 player(in browser, HTML5)
Click here to listen with your own player(launches your MP3 player)

YSCB 010200Z AUTO 03006KT 360V060 9999 // BKN038 BKN045 23/13 Q1019

YSCB Flight Activity (Flightaware)

Listeners: 0 out of 650 total

Canberra Ground: 121.700
Canberra Tower: 118.700

YSCB Melbourne Center (Archives)
Canberra, Australian Capital Territory, Australia

Feed Status: UP
Listen in your browser - HTML5 player(in browser, HTML5)
Click here to listen with your own player(launches your MP3 player)

YSCB 010200Z AUTO 03006KT 360V060 9999 // BKN038 BKN045 23/13 Q1019

YSCB Flight Activity (Flightaware)

Listeners: 0 out of 650 total

Melbourne Center: 128.400

YSCN Tower/CTAF (Archives)
Camden, New South Wales, Australia

Feed Status: UP
Listen in your browser - HTML5 player(in browser, HTML5)
Click here to listen with your own player(launches your MP3 player)

YSCN Flight Activity (Flightaware)

Listeners: 1 out of 650 total

Camden Tower/CTAF: 120.100

YSNW Gnd/CTAF/App/Center (Archives)
Nowra, New South Wales, Australia

Feed Status: UP
Listen in your browser - HTML5 player(in browser, HTML5)
Click here to listen with your own player(launches your MP3 player)

YSNW 010200Z 07010KT 9999 FEW015 BKN030 23/18 Q1018 TL 0300Z

YSNW Flight Activity (Flightaware)

Listeners: 0 out of 650 total

Enroute: 132.300
Nowra Approach: 123.500
Nowra CTAF: 118.850
Nowra Ground: 135.850

YSSY Approach (North/East) (Archives)
Sydney, New South Wales, Australia

Feed Status: UP
Listen in your browser - HTML5 player(in browser, HTML5)
Click here to listen with your own player(launches your MP3 player)

YSSY 010200Z 08015KT 9999 FEW022 BKN050 24/19 Q1018 NOSIG

YSSY Flight Activity (Flightaware)

Listeners: 0 out of 650 total

Sydney Approach (North/East): 124.400

YSSY Approach (South) (Archives)
Sydney, New South Wales, Australia

Feed Status: UP
Listen in your browser - HTML5 player(in browser, HTML5)
Click here to listen with your own player(launches your MP3 player)

YSSY 010200Z 08015KT 9999 FEW022 BKN050 24/19 Q1018 NOSIG

YSSY Flight Activity (Flightaware)

Listeners: 0 out of 650 total

Sydney Approach (South/West): 128.300

YSSY ATIS (Archives)
Sydney, New South Wales, Australia

Feed Status: UP
Listen in your browser - HTML5 player(in browser, HTML5)
Click here to listen with your own player(launches your MP3 player)

YSSY 010200Z 08015KT 9999 FEW022 BKN050 24/19 Q1018 NOSIG

YSSY Flight Activity (Flightaware)

Listeners: 0 out of 650 total

Sydney ATIS: 118.550

YSSY Center (South/West) (Archives)
Sydney, New South Wales, Australia

Feed Status: UP
Listen in your browser - HTML5 player(in browser, HTML5)
Click here to listen with your own player(launches your MP3 player)

YSSY 010200Z 08015KT 9999 FEW022 BKN050 24/19 Q1018 NOSIG

YSSY Flight Activity (Flightaware)

Listeners: 0 out of 650 total

Sydney Center: 124.550

YSSY Del/Gnd (Archives)
Sydney, New South Wales, Australia

Feed Status: UP
Listen in your browser - HTML5 player(in browser, HTML5)
Click here to listen with your own player(launches your MP3 player)

YSSY 010200Z 08015KT 9999 FEW022 BKN050 24/19 Q1018 NOSIG

YSSY Flight Activity (Flightaware)

Listeners: 0 out of 650 total

Sydney Clearance Delivery: 133.800
Sydney Ground (East of Rwys 16R/34L): 121.700
Sydney Ground (West of Rwys 16R/34L): 126.500

YSSY Departure (North/East) (Archives)
Sydney, New South Wales, Australia

Feed Status: UP
Listen in your browser - HTML5 player(in browser, HTML5)
Click here to listen with your own player(launches your MP3 player)

YSSY 010200Z 08015KT 9999 FEW022 BKN050 24/19 Q1018 NOSIG

YSSY Flight Activity (Flightaware)

Listeners: 0 out of 650 total

Sydney Departure (North/East): 123.000

YSSY Departure (South/West) (Archives)
Sydney, New South Wales, Australia

Feed Status: UP
Listen in your browser - HTML5 player(in browser, HTML5)
Click here to listen with your own player(launches your MP3 player)

YSSY 010200Z 08015KT 9999 FEW022 BKN050 24/19 Q1018 NOSIG

YSSY Flight Activity (Flightaware)

Listeners: 0 out of 650 total

Sydney Departure (Rte S, W and NW): 129.700

YSSY Director (Both) (Archives)
Sydney, New South Wales, Australia

Feed Status: UP
Listen in your browser - HTML5 player(in browser, HTML5)
Click here to listen with your own player(launches your MP3 player)

YSSY 010200Z 08015KT 9999 FEW022 BKN050 24/19 Q1018 NOSIG

YSSY Flight Activity (Flightaware)

Listeners: 0 out of 650 total

Sydney Director (East): 125.300
Sydney Director (West): 126.100

YSSY Director (East) (Archives)
Sydney, New South Wales, Australia

Feed Status: UP
Listen in your browser - HTML5 player(in browser, HTML5)
Click here to listen with your own player(launches your MP3 player)

YSSY 010200Z 08015KT 9999 FEW022 BKN050 24/19 Q1018 NOSIG

YSSY Flight Activity (Flightaware)

Listeners: 0 out of 650 total

Sydney Director (East): 125.300

YSSY Tower (Both) (Archives)
Sydney, New South Wales, Australia

Feed Status: UP
Listen in your browser - HTML5 player(in browser, HTML5)
Click here to listen with your own player(launches your MP3 player)

YSSY 010200Z 08015KT 9999 FEW022 BKN050 24/19 Q1018 NOSIG

YSSY Flight Activity (Flightaware)

Listeners: 3 out of 650 total

Sydney Tower (Rwy 16L/34R): 124.700
Sydney Tower (Rwy 16R/34L, Rwy 07/25): 120.500

YSSY Tower (Rwy 16L/34R) (Archives)
Sydney, New South Wales, Australia

Feed Status: UP
Listen in your browser - HTML5 player(in browser, HTML5)
Click here to listen with your own player(launches your MP3 player)

YSSY 010200Z 08015KT 9999 FEW022 BKN050 24/19 Q1018 NOSIG

YSSY Flight Activity (Flightaware)

Listeners: 1 out of 650 total

Sydney Tower (Rwy 16L/34R): 124.700

YSSY Tower (Rwys 16R/34L,7/25) (Archives)
Sydney, New South Wales, Australia

Feed Status: UP
Listen in your browser - HTML5 player(in browser, HTML5)
Click here to listen with your own player(launches your MP3 player)

YSSY 010200Z 08015KT 9999 FEW022 BKN050 24/19 Q1018 NOSIG

YSSY Flight Activity (Flightaware)

Listeners: 1 out of 650 total

Sydney Tower (Rwy 16R/34L, Rwy 07/25): 120.500

YSSY/YMMB/YBBN Centers (Archives)
Sydney, New South Wales, Australia

Feed Status: UP
Listen in your browser - HTML5 player(in browser, HTML5)
Click here to listen with your own player(launches your MP3 player)


Listeners: 1 out of 650 total

Brisbane Center: 123.400
Brisbane Center: 128.600
Melbourne Center: 133.500
Melbourne Center: 118.500
Sydney Departures: 118.400

ZBAA Tower (Archives)
Beijing, China

Feed Status: UP
Listen in your browser - HTML5 player(in browser, HTML5)
Click here to listen with your own player(launches your MP3 player)

ZBAA 010200Z 35004MPS 290V040 CAVOK 13/M16 Q1029 NOSIG


Listeners: 14 out of 650 total

Beijing Tower (Rwy 01/19): 118.600

ZHNY Tower (Archives)
Nanyang, China

Feed Status: UP
Listen in your browser - HTML5 player(in browser, HTML5)
Click here to listen with your own player(launches your MP3 player)


Listeners: 0 out of 650 total

Nanyang Tower: 118.500

ZYCY Tower (Archives)
Chaoyang, China

Feed Status: UP
Listen in your browser - HTML5 player(in browser, HTML5)
Click here to listen with your own player(launches your MP3 player)

ZYCY 140700Z 25002MPS CAVOK 29/16 Q1006 NOSIG


Listeners: 1 out of 650 total

Chaoyang Tower: 118.350